GFSSGP_sfc_30mbdewp_000.txt.gz
Dewpoint
41 40 34 29 11 19 15 16 29 37 47 52 53 54 54 57 52 48 65 67 68 69 70 69 70 70 70 69 68 69 68 67 66 66 66 65 64 64 64 63 62 61 60 59 59 60 60 61 62
30 32 28 24 16 13 13 20 40 45 49 49 50 51 53 53 62 63 64 68 68 69 70 69 69 69 70 69 69 68 67 67 67 67 66 65 64 63 63 62 62 60 59 58 58 58 58 59 60
31 31 21 20 18 13 13 36 43 46 47 45 46 49 51 52 62 63 66 68 69 69 69 69 69 70 70 69 69 68 68 68 68 67 65 64 63 62 61 61 60 59 58 57 56 56 56 57 58
27 25 17 15 13 16 20 39 45 45 44 46 46 47 51 59 62 65 68 69 68 68 69 69 69 70 69 69 69 69 68 68 67 66 65 64 63 61 60 60 58 57 56 55 55 55 57 57 58
28 19 13 12 12 15 18 37 42 43 44 42 41 43 50 64 66 67 68 68 67 68 69 69 70 70 69 69 69 69 68 67 67 66 65 64 63 62 60 58 57 57 56 56 57 57 58 58 58
23 18 12 9 14 22 31 40 44 45 45 45 47 50 53 65 65 66 67 67 67 68 69 69 69 69 69 68 68 68 67 66 66 66 64 63 63 62 60 58 58 57 56 56 58 58 58 58 58
19 14 12 15 25 23 30 43 42 41 41 46 47 49 58 62 65 67 66 66 66 68 69 69 69 69 68 68 68 68 67 66 66 65 64 63 63 61 60 59 59 59 58 57 57 58 58 58 57
20 15 19 26 22 26 14 37 42 43 44 45 47 52 56 62 66 66 65 64 64 65 65 66 67 69 68 67 67 66 66 65 65 65 64 62 62 61 61 61 59 60 59 58 59 58 58 57 57
19 15 20 24 27 27 24 32 28 42 44 44 44 52 58 64 64 63 63 64 63 64 65 66 66 67 67 66 66 65 65 64 64 63 63 62 61 60 60 61 61 60 60 60 60 60 59 59 59
20 15 14 15 15 30 31 30 37 42 43 43 45 55 62 63 62 61 60 61 61 63 64 65 65 65 65 65 65 64 63 63 62 62 62 62 61 61 61 61 61 62 62 62 62 62 62 61 59
18 14 7 9 11 12 24 22 34 41 40 43 46 56 59 62 61 61 61 61 61 63 64 64 63 63 63 63 63 61 62 61 61 61 60 60 61 61 61 61 60 59 60 59 57 58 58 58 58
12 10 5 6 7 12 28 16 37 31 34 43 50 56 57 58 57 57 57 57 58 60 61 61 61 61 61 61 61 60 60 60 60 61 61 60 60 59 56 56 53 52 52 51 52 52 53 54 52
12 7 10 6 2 8 7 19 30 22 38 43 48 53 53 54 54 53 52 53 55 56 58 58 59 59 59 58 59 59 59 60 60 61 61 59 57 53 52 51 50 50 51 50 49 49 49 49 47
11 5 7 12 5 4 7 10 13 17 44 42 46 49 49 51 50 49 48 49 52 55 56 57 58 57 55 56 57 58 59 60 61 61 58 56 53 52 50 46 45 45 47 47 47 48 46 44 43
6 3 6 9 11 8 14 11 12 29 43 41 41 43 42 43 43 43 43 45 49 54 55 57 57 57 57 57 56 57 56 56 58 55 52 52 50 46 43 41 41 42 45 44 42 43 40 39 38
8 9 1 8 14 16 8 3 16 38 43 42 42 42 43 43 43 42 43 40 47 54 57 58 59 59 58 58 58 56 51 53 51 50 48 44 41 41 40 41 41 43 40 38 38 39 36 38 37
10 7 9 9 16 16 13 17 32 29 43 41 41 41 43 44 46 48 51 49 52 58 58 59 59 57 57 56 53 49 45 45 45 43 41 39 39 39 40 41 41 38 36 37 36 37 36 36 36
5 7 10 10 15 26 26 32 36 37 39 40 41 42 44 43 44 47 51 52 55 57 58 56 55 53 50 49 49 48 45 44 44 41 39 38 38 39 39 38 38 37 36 36 36 34 36 37 39
12 11 10 14 22 30 32 34 36 40 40 40 41 42 42 43 44 45 47 48 51 53 53 53 51 49 46 46 44 43 42 45 40 39 38 36 36 36 37 38 38 37 36 37 38 37 36 35 41
19 17 21 24 28 30 31 31 33 37 39 40 41 41 41 41 41 41 42 44 47 50 47 45 45 45 44 43 45 46 45 43 40 36 35 36 36 36 37 38 38 37 36 38 38 38 35 38 40
24 19 20 24 29 30 29 29 33 36 39 40 40 40 40 41 41 38 38 38 41 41 40 38 39 39 41 44 43 40 40 40 36 37 33 35 35 36 36 37 37 37 37 37 38 38 36 37 37
21 25 24 27 26 23 25 24 29 35 38 39 39 40 40 39 37 35 34 33 33 33 34 35 36 36 37 37 37 36 37 35 38 34 32 34 34 34 35 36 37 36 37 38 38 36 35 36 31
25 25 24 22 21 21 24 25 26 34 35 37 38 39 39 38 36 36 36 36 37 36 35 36 36 36 36 37 38 37 34 36 35 33 33 33 34 35 35 36 36 36 36 36 35 32 31 32 30
27 28 28 28 25 18 23 22 25 31 33 36 37 39 39 39 38 38 39 38 37 36 35 36 37 36 36 35 36 34 34 33 31 33 33 34 34 35 36 36 36 36 35 34 33 31 31 30 30
27 25 22 21 21 20 26 24 23 30 33 35 36 37 39 39 39 39 38 37 37 36 35 35 33 32 33 33 33 32 30 30 32 33 34 35 34 35 37 36 36 35 34 33 31 28 28 27 25
23 25 21 18 19 22 25 24 25 29 32 35 36 37 38 39 39 38 37 36 36 34 31 31 31 31 32 33 33 34 34 34 35 35 35 35 35 34 37 35 32 32 33 31 32 29 27 28 26
23 19 25 24 24 21 24 26 28 32 32 34 35 36 37 37 37 37 36 35 35 36 34 31 31 28 27 27 30 28 28 26 27 30 32 34 36 36 36 32 34 35 35 31 30 28 26 27 26
24 26 16 20 10 10 22 24 25 30 31 33 33 34 36 36 36 35 33 33 34 35 36 30 23 19 20 21 22 22 23 26 28 31 31 33 35 35 35 34 34 32 29 29 28 27 26 27 28
24 21 24 24 21 9 13 21 27 29 32 31 31 34 35 35 34 32 31 30 29 28 25 21 18 17 19 20 23 24 26 27 27 27 31 32 33 34 33 31 32 30 28 30 25 24 24 27 27
25 23 19 5 13 22 19 15 29 29 30 30 33 34 35 34 32 31 29 23 19 19 19 18 18 18 19 21 24 25 27 27 27 27 29 31 30 30 30 31 32 32 28 25 23 23 25 23 20

GFSSGP_sfc_30mbdewp_003.txt.gz
Dewpoint
50 44 34 29 17 19 16 17 29 45 50 54 55 54 54 55 53 49 65 67 67 68 68 67 67 68 69 68 68 68 68 67 67 67 66 65 65 65 64 63 63 61 59 59 58 58 57 58 59
30 31 28 26 12 9 14 22 42 48 51 50 49 49 50 49 56 62 64 68 68 68 68 66 67 68 69 68 69 68 67 67 67 67 66 65 64 64 63 63 62 60 58 57 56 55 56 57 58
30 29 23 21 18 9 17 39 44 47 49 48 48 51 52 50 56 62 65 68 68 68 67 67 67 67 68 68 68 68 68 68 68 67 65 64 63 62 62 61 60 58 56 54 54 54 56 58 58
28 26 19 17 16 17 18 43 45 44 45 44 47 46 55 59 59 63 68 68 67 67 67 67 67 67 67 68 69 69 68 68 68 67 65 64 62 61 61 59 57 55 55 56 56 57 58 58 58
27 21 16 14 13 18 23 43 45 45 44 42 42 47 53 64 65 67 67 67 66 66 67 67 67 67 67 68 69 69 68 68 67 66 65 64 63 61 60 58 57 57 57 58 58 59 59 59 60
25 20 13 11 18 25 29 42 44 42 43 43 46 50 55 65 66 67 67 66 67 66 66 66 67 67 68 69 68 68 67 67 66 66 65 64 63 62 59 59 59 58 58 59 59 59 60 60 60
21 16 12 13 26 26 36 45 44 42 42 45 48 51 60 63 65 66 65 66 67 67 67 67 67 68 68 68 68 67 66 66 66 65 65 64 62 61 60 60 61 61 60 60 59 59 59 60 60
21 15 15 26 25 22 28 40 43 42 44 46 52 52 56 61 65 65 65 65 66 67 66 66 67 67 67 67 68 67 67 66 65 64 64 62 62 61 61 61 60 61 61 60 60 60 59 60 60
19 15 24 22 25 27 30 31 31 43 45 44 43 55 58 64 65 64 63 63 64 65 66 66 66 67 68 68 67 66 66 65 65 63 63 62 60 60 60 61 61 62 61 61 61 61 61 61 60
19 16 18 20 28 31 28 25 37 42 42 41 50 60 63 63 63 62 62 61 62 62 64 65 65 66 67 66 66 65 63 62 61 61 62 61 62 62 62 62 62 62 62 62 62 61 61 61 58
20 15 10 8 -2 21 28 25 37 41 39 41 49 59 61 61 61 59 60 60 61 62 62 64 65 65 65 64 64 63 61 61 61 62 61 62 62 62 62 61 61 60 59 56 53 54 55 57 56
14 14 2 -1 4 22 24 31 39 35 32 41 54 61 61 60 59 60 60 60 61 62 62 64 63 63 63 61 61 60 59 60 60 61 62 62 61 60 57 54 54 54 53 52 51 51 53 52 49
12 8 10 4 11 22 13 33 36 17 40 46 56 59 60 61 60 60 58 59 59 59 60 60 60 60 59 59 59 59 60 61 62 62 62 62 59 56 54 52 49 49 48 47 47 48 46 44 41
10 9 9 6 6 6 16 12 19 22 41 49 55 57 58 58 56 54 52 53 55 57 58 59 57 56 57 57 59 59 57 57 60 62 59 58 57 54 47 45 44 44 45 45 44 43 39 37 36
8 7 9 13 11 13 14 12 17 31 41 44 52 51 52 51 50 50 48 49 53 55 58 57 57 58 58 58 58 57 55 56 55 56 56 52 49 46 44 44 43 43 42 41 40 37 38 35 33
8 9 5 10 16 16 7 8 28 33 41 39 41 43 44 44 45 47 46 45 54 56 57 56 58 57 57 57 55 52 51 50 51 51 49 46 43 44 45 43 42 39 37 37 37 35 33 33 33
11 3 7 10 24 17 17 20 34 36 40 39 41 42 43 44 47 52 52 50 55 57 57 57 56 55 53 54 49 43 44 44 45 45 43 41 42 43 43 42 40 39 37 38 35 34 33 32 31
6 9 9 11 21 27 29 33 37 40 40 41 42 43 43 44 47 52 55 58 59 57 57 55 55 52 52 51 46 47 45 44 42 38 37 38 38 41 41 41 41 39 37 37 35 33 33 35 36
9 10 11 15 28 31 32 34 36 40 40 41 42 42 43 45 48 52 55 58 58 57 55 54 52 50 49 46 46 46 45 44 37 36 37 37 38 39 40 38 38 38 36 37 35 31 30 30 36
19 18 22 26 29 31 32 35 37 38 40 41 42 42 43 45 47 49 54 57 57 56 56 53 50 45 44 46 47 47 46 41 36 35 37 37 38 37 36 38 37 39 37 39 38 33 29 33 38
23 21 22 24 28 29 30 31 36 39 41 42 42 42 43 45 46 48 52 54 53 51 50 50 46 44 44 45 43 41 41 40 37 35 34 35 36 35 37 39 39 40 39 38 38 36 33 30 34
20 24 28 27 25 21 24 19 34 38 40 40 40 41 42 40 41 42 43 45 45 40 40 40 40 39 38 40 39 40 37 35 38 34 34 36 38 37 37 38 40 40 40 39 37 35 34 31 27
25 28 26 22 21 21 24 22 27 36 38 39 40 40 39 38 36 34 34 34 35 37 38 39 38 37 37 39 37 35 35 36 36 36 38 38 38 38 38 38 40 40 39 38 37 34 29 25 22
29 27 27 28 25 18 22 20 24 33 36 38 39 39 38 37 37 37 38 38 37 37 39 39 36 35 35 35 35 35 34 33 34 35 36 36 37 36 38 38 39 39 38 36 33 31 28 22 21
27 26 23 21 20 17 26 23 22 29 34 37 37 38 38 39 38 39 38 38 38 38 38 35 33 33 34 34 34 34 34 34 32 31 31 33 31 31 35 39 39 38 35 34 32 29 27 23 17
24 25 20 14 18 20 25 23 23 28 32 36 37 38 39 39 40 40 39 37 35 35 34 33 33 30 30 29 26 23 21 18 18 22 24 25 28 30 37 39 37 35 34 33 33 30 26 27 24
21 19 26 24 23 21 23 25 27 30 30 35 36 37 38 39 39 39 38 36 34 33 34 32 23 19 19 21 21 23 24 24 24 26 27 27 33 36 39 36 36 35 34 33 31 29 27 27 28
23 25 18 21 14 16 19 23 23 29 29 33 35 36 38 37 38 38 36 38 38 36 30 24 18 17 20 22 24 24 26 27 27 27 27 29 33 36 38 35 34 35 34 31 30 27 27 27 28
23 20 23 23 21 7 7 14 27 29 30 31 34 36 36 37 37 35 35 36 38 30 22 20 19 20 20 22 25 27 27 28 28 28 29 30 33 35 35 34 33 33 31 29 29 28 26 26 27
24 21 19 5 9 20 19 12 28 30 29 33 32 34 36 36 34 33 31 28 25 21 19 20 20 19 20 22 24 26 27 29 28 29 29 31 31 32 32 33 32 31 30 28 26 25 24 25 24

GFSSGP_sfc_30mbdewp_006.txt.gz
Dewpoint
51 38 26 26 20 16 16 18 39 46 49 52 53 51 51 52 52 49 63 64 64 65 66 65 68 68 68 68 68 68 68 67 67 66 65 65 64 63 63 63 62 60 58 57 55 54 54 55 57
27 22 26 22 16 13 13 19 32 47 48 47 48 47 45 44 55 61 61 65 65 65 65 64 67 67 68 68 68 67 67 67 67 66 65 64 63 63 63 62 61 58 56 54 53 53 54 56 58
23 26 17 12 8 11 14 30 44 45 45 42 45 49 49 46 52 59 65 66 66 65 65 64 67 67 66 67 67 67 68 68 67 65 64 63 62 62 61 60 58 55 55 55 55 55 56 58 60
15 21 20 11 7 8 22 40 43 43 44 44 46 44 49 51 51 60 64 66 66 66 65 66 66 66 66 66 66 68 68 68 67 66 64 62 61 60 59 58 56 56 57 57 57 57 59 60 60
18 17 11 9 11 14 28 41 41 40 39 42 43 45 44 57 61 62 65 66 65 65 66 66 67 66 65 66 68 68 68 68 67 66 64 63 61 58 58 57 57 58 58 58 58 59 59 60 61
14 18 9 10 10 22 20 39 42 40 36 39 42 46 49 62 62 64 66 65 66 64 65 66 66 65 66 67 68 68 67 67 66 65 64 63 61 59 59 59 59 59 59 59 59 59 60 60 61
17 11 8 10 23 28 28 40 40 38 36 39 44 47 59 62 64 65 64 63 65 65 65 64 64 65 67 68 67 67 66 66 66 65 64 62 61 61 60 61 61 61 60 60 60 60 61 61 61
20 12 9 18 25 30 37 41 38 31 35 45 47 45 56 61 64 64 64 64 65 65 65 65 64 65 64 65 67 67 66 65 65 64 62 61 60 60 61 58 60 61 61 61 61 61 61 61 60
22 9 10 24 28 36 40 37 38 37 42 46 45 50 57 62 60 61 62 63 64 63 64 63 62 63 63 63 65 65 65 64 63 61 61 60 55 55 54 58 60 62 62 62 62 61 61 60 58
19 12 18 25 30 30 29 30 36 41 43 43 49 56 60 60 60 60 60 61 60 61 64 64 64 64 64 61 61 59 57 55 55 56 58 55 59 59 59 59 61 60 60 60 55 54 55 56 48
20 14 14 19 28 27 26 27 34 37 40 40 49 56 59 59 59 60 59 60 59 60 63 63 64 64 61 59 56 53 52 55 57 60 60 59 60 59 56 54 53 54 54 50 48 47 46 50 48
19 16 13 4 2 23 25 29 34 33 31 39 53 57 60 59 59 58 58 54 56 58 61 62 59 60 60 54 52 54 54 57 57 60 61 61 60 60 55 51 51 52 49 47 45 44 47 46 44
18 15 10 3 12 27 30 34 34 30 41 49 54 56 57 56 55 53 52 52 53 54 56 58 58 57 56 55 56 57 57 58 60 60 62 60 58 58 56 53 49 47 45 44 43 42 40 38 37
15 8 5 8 17 17 29 29 26 25 43 49 53 52 54 55 51 51 50 50 50 54 56 56 54 55 57 58 59 56 56 57 60 62 61 59 58 55 57 48 44 44 43 41 39 37 35 35 35
11 4 7 12 15 14 11 12 24 34 42 48 48 50 52 52 50 47 46 46 49 54 55 55 56 58 57 56 55 56 55 56 56 58 60 59 58 57 49 45 45 42 41 40 38 36 36 35 34
8 6 4 15 11 14 10 7 27 37 39 44 47 50 51 50 48 47 47 45 49 54 55 54 56 56 56 57 55 54 54 55 53 52 52 50 47 48 47 43 43 41 38 37 37 36 34 34 34
9 1 2 8 21 12 9 9 30 39 38 39 43 46 46 46 48 49 46 45 49 54 55 55 55 54 56 57 51 50 49 47 45 43 42 44 43 44 44 42 41 40 38 38 36 34 34 31 32
5 1 2 3 21 14 17 25 30 38 39 38 40 42 44 44 47 49 46 48 51 55 56 56 53 54 56 53 51 45 42 41 40 38 38 39 40 41 40 41 41 37 35 34 34 35 34 34 35
7 8 6 15 27 26 26 27 30 37 40 41 41 41 42 44 49 52 54 53 54 56 56 55 54 54 53 50 48 45 44 42 39 38 40 39 39 38 38 36 36 38 36 38 38 35 33 32 34
11 8 15 22 27 26 27 30 33 35 38 40 41 42 44 47 50 53 55 55 55 54 54 54 53 53 49 47 45 46 45 41 38 38 39 37 37 35 35 38 37 37 36 36 38 36 32 28 32
20 15 21 15 26 27 26 28 32 37 39 40 42 43 45 47 50 53 54 55 55 55 55 53 51 46 44 45 43 42 42 40 38 36 35 38 38 37 36 37 37 37 36 35 36 35 34 30 29
17 23 22 24 21 14 25 14 31 36 39 40 42 43 46 49 51 52 54 55 55 55 53 48 43 43 41 40 40 40 37 36 37 35 36 38 39 39 37 36 37 37 35 35 36 33 33 30 24
24 27 25 23 20 21 21 17 29 35 36 39 42 44 46 48 48 48 48 48 45 44 43 42 40 38 39 39 39 37 36 35 35 35 35 35 34 35 34 34 35 35 34 35 37 35 30 28 27
29 26 25 25 22 17 18 19 17 31 32 38 41 41 42 43 41 39 40 38 37 40 41 40 38 37 37 37 38 38 36 31 27 23 20 17 15 16 19 23 33 37 37 38 35 31 31 28 25
27 22 16 14 16 15 25 21 16 26 32 38 39 38 40 39 35 34 35 35 37 40 40 38 36 36 37 37 33 28 23 19 16 16 14 16 15 17 19 25 29 35 38 35 32 32 32 28 24
25 22 15 12 16 11 25 16 15 27 31 37 38 37 37 36 36 36 36 37 38 39 37 37 36 35 31 26 20 20 19 19 18 21 23 21 21 24 29 34 37 38 35 33 35 34 30 26 23
23 21 26 25 26 22 17 21 26 28 29 35 35 35 35 36 37 38 39 38 38 37 38 37 31 25 22 22 22 23 24 26 26 26 24 23 24 26 31 37 37 37 34 36 32 28 26 24 21
24 25 21 23 18 15 14 20 17 28 28 32 33 35 34 36 37 39 39 38 37 38 36 30 25 23 23 23 24 24 25 26 26 25 24 24 26 28 31 34 36 34 34 31 28 25 22 21 19
23 21 21 23 24 12 6 3 26 27 30 31 34 35 35 36 38 39 38 38 38 36 31 27 24 24 22 22 25 27 26 26 26 25 24 25 27 27 29 32 34 33 29 28 29 23 20 19 19
25 21 17 11 14 23 25 8 25 30 31 31 33 35 36 38 39 39 38 39 38 31 27 25 24 23 22 22 24 25 26 26 26 25 25 27 28 28 29 30 31 30 28 28 23 20 20 19 19

GFSSGP_sfc_30mbdewp_009.txt.gz
Dewpoint
46 41 28 16 18 15 16 15 18 39 46 50 49 48 48 51 52 50 60 63 63 64 63 64 68 69 68 68 68 68 68 67 66 65 64 63 62 63 62 62 61 58 55 54 53 52 55 57 58
40 25 15 16 17 15 13 14 20 47 49 48 47 45 44 48 55 60 60 63 63 64 63 62 68 68 68 68 67 67 67 67 66 64 63 62 62 62 61 61 59 56 54 54 53 54 56 57 57
30 15 9 7 15 11 11 22 41 45 45 45 44 43 43 43 55 58 62 63 64 64 63 65 68 66 66 66 66 66 67 67 66 64 63 61 60 60 60 58 56 57 57 57 56 57 58 59 60
19 8 15 14 12 11 12 39 43 41 42 43 44 44 43 47 52 60 63 63 64 64 65 66 66 65 65 65 65 66 68 67 66 65 62 61 59 57 57 57 58 58 57 57 57 58 59 60 61
15 7 3 7 11 13 12 40 36 38 41 41 42 41 42 47 56 57 61 63 65 65 66 65 65 65 65 65 65 67 68 67 66 64 63 60 57 56 57 58 58 58 58 58 58 59 60 60 61
5 9 7 8 13 13 15 36 40 41 40 40 39 41 45 55 54 59 64 65 66 66 65 65 65 65 64 65 67 67 67 66 65 64 62 60 59 59 58 59 59 59 59 59 59 60 60 61 61
7 7 9 11 12 16 21 33 40 41 39 39 42 43 51 54 57 61 65 60 66 62 65 65 64 64 65 66 66 66 66 65 64 64 62 60 60 60 60 60 61 61 61 61 61 61 61 61 60
10 12 9 10 13 26 27 34 38 37 37 42 38 40 49 53 62 63 64 64 65 66 65 64 64 64 65 66 66 65 65 64 63 63 61 60 59 59 58 58 61 62 62 62 63 62 61 59 57
16 13 7 11 24 36 36 35 32 33 32 37 52 47 53 58 61 61 62 63 63 64 64 63 63 62 62 64 64 64 63 62 61 60 58 58 56 54 54 55 59 61 61 60 60 55 54 54 55
11 9 9 22 32 37 35 32 37 33 37 41 49 52 58 58 58 59 59 60 60 61 61 62 62 62 61 57 58 55 53 52 53 55 55 53 56 55 49 54 56 57 57 55 55 52 51 54 44
11 14 22 32 29 29 28 27 31 39 37 39 48 52 53 55 57 57 57 53 53 59 61 61 61 60 57 54 51 49 49 52 56 58 55 58 55 57 54 52 52 52 54 49 49 47 46 47 45
15 16 16 14 22 21 23 21 36 41 44 44 45 51 50 55 56 56 55 52 55 58 60 58 56 56 55 50 48 49 53 54 54 57 57 57 55 56 55 53 53 50 49 48 46 45 45 43 40
15 15 14 9 11 22 25 25 26 30 37 43 49 51 49 52 51 50 48 49 51 52 54 53 54 55 54 52 54 55 57 58 59 59 60 58 56 56 54 55 53 53 47 46 46 44 40 37 36
15 17 7 15 19 26 29 24 20 36 40 45 48 46 45 46 45 45 46 46 48 51 54 54 52 54 55 57 57 54 55 55 55 58 60 59 55 55 53 52 51 47 46 45 42 39 38 37 37
12 7 6 20 20 24 18 17 24 37 40 41 41 41 43 42 42 42 43 45 48 51 52 53 56 57 56 55 53 53 53 55 53 56 60 61 58 57 56 49 48 47 43 40 38 38 37 36 35
9 9 17 22 17 11 6 13 24 34 38 39 40 41 43 44 41 40 41 42 49 51 51 54 56 55 54 56 55 57 55 54 53 52 53 51 48 48 48 47 45 43 42 41 41 39 37 37 34
6 6 11 14 10 1 5 13 26 30 35 37 40 43 43 43 42 42 42 42 49 52 52 53 55 54 57 57 53 52 52 49 46 45 44 44 43 43 43 42 42 43 39 38 38 36 37 36 36
9 6 7 4 6 3 8 18 25 28 31 36 39 42 43 44 44 45 44 43 48 52 53 54 54 53 56 53 51 47 45 43 42 40 41 41 41 42 42 40 42 41 37 38 39 40 39 37 35
9 2 1 5 9 6 14 15 21 28 29 31 35 39 41 43 46 48 46 46 49 53 54 55 53 53 53 49 47 45 44 43 41 40 41 41 40 39 40 39 39 39 38 39 39 39 38 35 31
7 6 8 12 16 21 17 20 23 28 30 33 33 35 38 42 46 48 49 49 51 53 54 54 53 53 48 46 44 45 44 41 39 41 41 39 40 39 38 39 39 38 38 37 37 37 36 31 28
8 5 15 14 21 21 17 22 27 29 33 36 37 37 39 43 46 50 51 52 53 54 53 53 51 48 45 45 44 42 41 41 39 38 37 39 40 40 39 37 37 37 36 32 33 33 34 31 28
12 19 18 15 19 12 16 13 22 30 32 34 36 39 41 44 47 50 52 52 53 53 53 49 47 45 44 40 41 41 39 37 39 37 38 37 36 34 31 29 30 32 34 33 31 31 34 32 27
28 23 20 19 19 15 18 12 31 30 30 32 36 39 41 45 48 50 51 53 51 51 50 46 44 40 40 41 41 39 38 36 35 32 27 22 20 18 17 17 21 27 31 33 33 34 34 31 30
26 24 21 18 16 15 12 18 26 27 27 32 37 41 45 47 48 48 48 49 48 47 45 43 39 39 40 41 41 40 34 28 24 22 19 17 17 17 19 23 26 27 28 34 34 35 33 35 32
22 19 13 11 13 12 15 17 15 17 27 31 37 41 44 45 43 41 43 40 40 42 42 40 38 39 40 39 34 29 26 24 21 21 20 21 19 20 22 28 30 30 31 34 35 36 37 36 31
20 15 14 9 10 8 20 13 10 21 22 28 37 39 42 41 38 37 37 36 38 41 41 38 38 38 36 29 26 26 22 23 22 24 24 21 21 22 25 28 32 32 34 35 35 37 37 35 29
17 19 20 19 22 18 12 10 16 26 26 30 37 38 39 38 35 33 35 36 38 40 40 39 38 35 28 28 29 27 26 28 27 26 24 21 22 22 23 28 31 35 34 36 37 33 30 26 25
23 22 18 16 12 13 10 11 9 25 26 29 35 36 37 36 34 35 35 38 39 40 39 40 35 28 29 30 28 27 27 27 27 26 24 23 24 25 25 26 28 30 32 34 30 27 28 26 23
23 17 18 20 23 17 10 8 18 14 24 28 32 35 36 35 35 36 38 39 40 39 40 36 30 29 30 27 26 27 27 27 26 25 24 24 25 24 24 25 27 27 27 26 27 27 28 22 22
24 21 20 17 15 19 23 12 21 25 26 28 30 33 35 35 35 37 39 39 38 39 37 32 30 29 28 26 26 27 28 27 25 25 24 25 25 25 26 27 27 26 25 24 23 23 21 21 22

GFSSGP_sfc_30mbdewp_012.txt.gz
Dewpoint
43 41 37 25 14 16 15 16 16 34 45 46 45 45 49 52 52 49 66 66 64 63 65 66 68 68 68 68 68 68 68 67 66 65 64 63 63 62 63 62 59 57 54 53 55 55 55 55 56
34 32 30 15 12 13 14 15 43 44 46 45 44 44 45 52 58 60 62 64 63 62 62 65 68 68 67 68 68 67 67 66 65 64 62 62 61 60 60 60 59 58 57 56 56 57 58 59 60
46 34 8 7 11 14 13 25 38 47 46 44 43 44 42 50 57 59 63 65 64 62 61 67 68 65 66 66 66 67 67 66 65 63 61 59 59 58 58 60 60 58 57 57 57 58 60 61 61
27 14 8 11 8 12 13 30 43 42 43 43 43 42 43 46 55 59 65 65 64 64 64 67 65 64 65 65 67 68 67 66 65 63 61 57 56 56 59 61 60 58 58 58 58 59 60 61 61
26 9 1 4 12 13 17 40 46 48 49 48 46 38 40 52 55 61 64 65 66 66 66 66 64 65 65 65 67 67 67 66 65 63 60 58 56 57 59 60 60 59 59 59 59 60 61 61 60
12 10 4 3 4 9 13 44 46 48 50 47 48 39 44 52 56 64 65 65 66 65 66 65 65 65 66 66 67 66 66 65 64 62 60 59 60 60 60 61 60 60 61 61 61 61 61 61 60
16 5 3 7 7 18 15 43 42 45 44 41 47 48 53 50 62 62 62 65 65 66 65 64 65 66 66 66 66 65 64 63 63 61 60 59 60 60 60 61 61 61 62 62 62 61 60 59 58
13 9 8 8 9 17 38 43 46 40 38 42 44 41 47 58 64 60 62 62 62 64 66 64 65 65 66 65 64 63 63 62 61 58 58 59 58 57 58 59 60 60 60 59 59 56 54 55 56
10 6 8 10 13 37 45 41 44 43 35 42 43 43 48 61 62 62 63 57 58 62 64 64 64 64 66 65 64 63 61 60 59 57 58 58 58 58 58 57 57 57 56 55 56 52 50 52 54
10 10 13 37 39 40 42 44 42 34 40 46 49 53 55 59 60 60 61 58 58 61 62 62 63 63 64 60 62 60 59 57 58 56 57 59 58 51 51 57 53 55 54 52 54 52 51 52 48
11 10 14 39 42 40 38 43 37 37 41 48 51 54 56 57 58 59 59 59 59 60 61 62 62 63 60 58 58 54 56 56 58 57 59 58 59 58 57 58 58 57 56 54 53 51 51 47 46
11 10 16 36 37 38 33 36 35 37 43 47 52 52 55 55 56 55 55 56 57 58 60 61 60 56 54 52 51 52 55 58 58 59 57 58 60 59 58 57 55 53 53 51 51 49 47 44 43
12 15 15 18 24 26 32 31 35 36 41 46 49 47 52 53 53 51 50 54 55 55 54 55 57 55 55 54 58 60 59 60 60 61 60 59 58 57 56 55 54 54 52 50 45 44 42 40 40
13 15 11 13 17 32 31 30 32 38 42 45 44 44 48 49 47 46 47 49 52 52 54 55 55 56 57 60 57 56 57 57 57 59 61 60 58 57 56 54 48 49 45 44 44 44 42 41 41
17 14 10 19 19 25 35 27 28 38 42 42 41 42 42 44 43 44 46 47 51 53 53 53 55 60 59 57 56 56 53 55 57 60 60 60 57 54 50 48 50 47 44 43 44 42 40 40 39
13 9 10 22 22 20 15 18 27 38 38 38 38 39 39 40 41 43 45 47 51 52 53 55 57 59 58 56 55 57 57 55 53 54 51 49 47 48 49 47 46 46 44 42 42 42 42 41 40
11 11 22 20 22 11 3 16 25 35 36 36 38 39 40 40 40 41 43 47 50 51 54 56 57 58 55 57 56 55 53 49 47 47 47 45 45 45 46 46 47 44 44 42 43 44 43 42 41
11 11 17 14 14 2 2 16 22 29 41 47 37 39 41 41 39 41 41 46 51 52 53 57 57 58 57 56 52 52 49 47 45 44 44 44 43 44 43 46 43 43 43 42 44 43 44 42 40
15 12 10 9 5 2 13 17 21 24 36 36 38 39 41 42 43 44 43 46 52 54 54 55 56 56 57 53 49 47 45 45 45 43 43 43 42 41 42 43 43 42 42 43 41 41 40 39 37
14 11 5 7 8 6 8 15 18 23 25 30 35 39 40 42 43 46 46 46 51 54 54 55 54 55 54 49 50 49 46 44 43 44 43 43 43 41 40 42 41 42 41 40 41 37 37 37 36
10 11 14 11 8 10 24 19 17 21 25 27 29 33 38 41 45 47 46 49 52 55 55 55 54 54 49 49 47 45 44 44 43 43 43 42 41 38 36 36 37 38 38 38 38 36 37 35 34
19 25 17 19 22 11 24 20 32 31 22 28 31 33 35 39 45 47 50 50 55 55 55 54 52 48 46 44 44 43 42 41 40 40 36 33 29 25 23 25 30 31 34 36 39 35 38 37 33
22 23 22 15 16 19 24 21 30 32 30 29 32 35 38 41 45 49 51 54 54 55 54 51 47 43 42 43 43 42 40 39 36 30 27 26 24 26 25 27 32 33 33 33 37 40 39 38 36
25 21 22 13 13 19 21 25 27 31 30 33 31 36 39 42 46 49 53 53 53 54 51 47 42 41 43 44 44 38 33 29 28 24 23 25 26 25 27 31 33 35 36 37 40 39 38 38 36
18 17 14 17 20 17 14 21 23 31 34 41 42 36 40 45 47 48 52 52 51 50 47 44 41 41 43 42 36 33 29 26 27 25 25 24 24 25 29 29 33 35 37 38 37 38 38 38 37
19 10 17 19 24 22 20 17 14 28 35 43 42 40 44 46 47 47 47 48 47 46 45 41 40 41 41 34 31 30 28 27 28 28 26 25 25 26 26 31 32 34 37 35 37 38 39 38 37
10 13 16 17 30 21 15 9 6 22 21 25 36 40 43 44 44 43 44 42 43 43 44 41 40 40 35 31 32 31 30 30 29 28 26 25 26 25 27 29 30 33 34 36 38 38 36 33 31
22 19 19 18 13 11 9 11 16 23 23 25 34 38 40 42 40 39 39 39 41 43 43 42 40 38 32 33 34 31 31 32 30 28 26 25 27 27 28 28 29 30 33 36 35 33 31 30 31
20 17 16 15 19 21 19 13 14 17 20 25 29 38 39 40 39 36 35 37 40 42 42 42 40 33 32 34 32 32 30 31 30 28 26 26 27 27 27 27 28 28 28 28 29 29 27 30 27
21 22 16 20 17 23 26 19 18 19 19 23 26 33 38 39 38 36 36 38 40 42 41 42 39 32 33 32 31 31 32 30 29 27 26 26 26 27 27 28 28 29 28 28 29 28 26 27 30

GFSSGP_sfc_30mbdewp_015.txt.gz
Dewpoint
44 44 43 36 23 17 14 15 21 42 45 46 50 53 55 56 55 49 66 65 65 66 68 68 68 68 68 69 69 68 68 66 64 64 64 63 62 60 61 60 59 58 56 56 56 57 58 58 59
39 34 33 31 13 11 14 28 45 45 45 44 44 48 52 55 60 64 63 66 64 66 67 67 68 68 68 68 69 67 66 65 64 63 63 62 60 59 61 61 61 59 57 57 58 58 58 58 59
42 42 36 17 11 11 13 33 46 45 44 43 42 43 46 57 62 63 64 64 64 64 66 67 67 67 67 68 68 67 66 65 63 62 61 59 58 59 60 61 60 59 58 58 58 58 59 60 59
37 28 15 6 6 10 13 31 47 46 47 46 44 41 44 55 59 64 65 63 63 66 67 66 65 65 67 67 67 67 65 64 63 61 59 57 58 60 61 61 60 58 58 58 59 59 60 59 57
35 25 5 5 6 11 25 44 48 47 48 46 43 40 47 60 64 64 65 66 65 66 65 65 64 64 66 66 67 66 65 64 62 61 59 59 59 59 60 62 61 59 59 59 60 60 60 59 57
29 15 8 4 2 4 43 48 48 47 48 46 43 43 50 63 63 65 65 65 65 64 65 66 66 66 66 65 66 65 64 63 61 60 60 60 61 61 61 61 61 61 61 61 61 60 59 58 57
26 20 12 6 5 30 43 46 42 45 44 44 47 50 54 60 63 64 64 65 65 64 63 65 66 64 65 64 64 64 64 62 59 60 60 59 59 60 60 61 61 60 59 59 58 56 56 56 56
21 16 14 11 11 34 43 44 45 43 43 45 46 45 50 59 62 63 62 62 64 62 62 63 64 65 65 64 64 62 60 58 57 58 58 58 59 59 59 59 59 58 56 55 55 52 52 54 54
20 12 8 28 38 39 46 42 44 46 45 46 50 49 60 59 61 59 59 61 60 62 59 60 61 63 63 63 63 60 59 57 57 58 57 58 58 58 59 58 57 55 54 53 52 51 52 51 48
19 13 12 38 41 41 42 42 41 41 46 50 45 54 60 60 59 56 55 57 58 60 59 59 62 64 63 61 61 60 60 58 56 56 57 57 58 58 57 57 57 57 56 54 54 53 53 51 46
17 14 24 36 37 41 40 41 46 41 43 46 44 47 58 58 58 55 55 56 58 61 62 61 62 63 62 59 59 57 56 57 58 58 57 59 59 59 58 56 56 56 56 54 53 48 45 43 41
15 14 12 31 36 40 38 44 43 41 42 51 49 54 56 55 57 54 57 58 59 61 61 60 62 62 59 60 59 55 56 59 58 59 59 59 58 57 55 54 53 53 52 46 46 44 42 40 40
15 13 16 29 35 38 40 40 36 40 42 47 52 55 55 55 56 56 56 59 60 60 60 60 57 57 55 57 59 59 59 60 61 60 60 59 57 55 55 54 50 47 45 45 43 42 40 40 39
13 13 11 14 28 33 33 35 36 38 45 47 51 52 54 54 55 56 56 57 57 57 56 55 55 57 58 56 56 56 55 56 59 61 61 60 58 57 51 49 48 45 44 44 42 40 40 39 39
19 14 12 22 31 29 30 33 37 40 44 44 46 52 52 50 49 53 55 54 53 55 55 54 56 58 56 57 55 52 56 58 58 55 55 55 53 49 47 49 46 45 44 42 42 43 43 42 42
17 15 12 21 25 30 29 32 40 43 44 41 44 44 47 45 47 48 52 53 54 53 52 54 59 58 56 55 53 55 55 53 52 50 48 48 48 49 48 46 45 43 43 44 44 43 42 42 41
16 16 22 19 21 23 27 31 39 40 40 39 39 40 41 42 45 47 52 53 52 52 52 58 58 55 53 54 57 54 49 48 48 48 46 45 46 45 47 46 43 42 44 44 43 43 43 41 42
14 19 21 20 18 19 13 24 37 38 39 41 41 42 40 40 43 45 50 52 53 53 56 58 56 53 55 56 53 51 48 48 47 44 45 43 43 41 44 45 44 44 43 42 41 40 41 42 38
17 13 18 20 19 15 11 22 34 38 37 35 42 46 46 40 41 43 50 52 53 55 57 57 56 53 57 52 50 49 46 44 43 43 42 43 43 44 41 41 40 41 40 40 41 39 35 35 37
19 19 17 14 8 3 18 19 25 37 37 36 44 45 47 42 41 41 49 52 53 55 56 56 56 55 56 51 49 48 45 43 42 44 43 42 41 41 40 39 40 39 39 38 39 37 34 38 35
20 21 18 14 11 14 19 22 25 28 35 42 45 47 46 43 43 44 47 53 53 54 55 55 55 54 54 50 48 45 44 45 44 44 43 40 29 24 26 31 30 30 32 35 38 38 36 34 35
19 21 23 18 18 15 18 21 28 26 26 30 38 41 42 42 46 46 47 53 54 55 55 55 54 51 49 45 43 41 42 41 42 37 31 25 25 24 27 31 31 32 33 31 34 39 39 36 33
18 20 21 23 18 24 22 22 28 29 25 28 32 34 39 45 47 47 49 54 55 57 56 55 48 45 45 44 43 43 41 33 30 27 25 23 26 27 30 30 31 34 35 37 39 38 38 36 34
23 20 20 22 22 20 23 20 26 29 27 30 33 33 38 45 47 49 52 55 55 56 54 46 43 43 45 44 41 38 31 27 24 24 24 23 26 28 30 29 33 34 37 39 38 38 38 37 35
25 24 19 16 18 19 28 24 22 31 30 30 32 33 39 44 48 52 53 53 54 53 46 42 43 44 40 36 32 30 28 26 23 24 25 24 24 27 26 29 31 34 39 37 38 38 37 38 37
21 21 19 14 21 24 30 24 24 25 33 34 35 35 38 46 49 52 52 52 51 47 42 41 43 43 37 33 30 28 28 27 27 27 26 27 26 27 28 29 29 32 36 37 38 37 36 38 35
19 19 24 28 32 30 27 22 25 31 33 37 37 38 41 46 48 52 52 49 46 44 42 41 42 41 35 31 31 29 29 30 28 28 27 27 27 25 27 29 28 30 33 37 37 36 35 36 32
22 22 19 24 21 17 12 17 21 25 28 35 38 37 45 47 48 49 48 46 45 44 43 41 41 38 32 31 31 30 31 31 30 28 26 26 27 27 28 28 29 29 29 30 35 35 33 30 32
21 19 17 19 21 16 19 17 18 20 24 34 37 41 44 44 44 44 43 44 44 44 43 42 40 35 32 34 32 32 31 32 30 29 27 27 27 27 27 28 28 29 28 29 29 28 26 30 30
21 20 23 16 15 25 24 21 21 19 21 25 31 40 43 43 41 40 40 41 43 43 43 42 40 33 34 34 33 32 32 31 30 29 28 27 26 28 27 27 29 29 30 30 29 29 28 28 28

GFSSGP_sfc_30mbdewp_018.txt.gz
Dewpoint
50 47 41 35 24 18 14 14 18 31 45 51 55 55 56 57 55 45 65 66 67 68 69 68 68 68 68 69 68 67 66 65 63 63 63 62 60 60 61 60 60 59 58 57 56 56 56 56 58
43 37 33 29 16 10 12 18 31 45 45 45 44 52 55 56 62 63 63 66 66 68 68 67 68 68 69 69 68 66 64 63 63 62 61 61 60 60 62 61 60 60 58 56 56 56 56 58 59
40 41 36 25 13 9 10 35 45 46 45 43 42 43 53 59 63 62 64 64 65 66 66 67 68 69 69 68 67 65 65 64 63 62 59 60 60 60 61 61 61 59 57 57 57 57 58 58 58
37 32 28 7 6 9 12 23 46 43 45 46 42 45 53 62 63 64 64 64 65 66 66 67 67 69 68 67 66 65 64 63 62 61 61 61 60 60 62 61 60 58 58 58 58 58 58 57 57
35 22 12 5 4 10 14 41 48 49 47 45 42 47 54 62 64 64 64 65 65 65 65 65 65 65 65 66 66 65 64 63 61 60 62 61 61 61 62 61 61 60 59 59 59 59 57 56 58
30 17 9 5 9 20 45 47 48 49 49 45 44 51 57 63 63 64 65 64 64 64 64 65 65 65 65 63 65 65 63 62 61 61 62 62 62 62 62 62 62 61 60 59 58 57 56 54 54
28 23 17 14 13 27 43 47 46 45 44 45 50 51 57 60 62 64 64 63 63 64 64 63 62 63 63 63 63 63 61 60 61 61 61 61 61 61 61 61 60 59 58 56 56 54 54 53 55
27 21 14 10 37 40 45 45 45 44 44 46 47 48 54 59 62 63 61 61 61 62 62 60 60 60 64 63 63 61 60 59 59 60 60 60 60 60 60 58 57 57 55 53 53 53 53 49 52
19 16 12 14 35 38 44 41 44 47 47 50 53 56 58 61 61 61 60 59 60 62 62 59 61 63 63 63 62 60 59 58 59 59 59 58 59 59 59 57 58 57 54 53 54 54 54 49 51
20 15 15 21 40 40 42 40 43 44 47 51 54 57 59 59 58 58 57 56 56 56 60 62 60 63 63 61 61 60 59 57 57 57 57 56 57 58 58 58 57 56 57 56 51 52 44 43 43
19 16 18 37 38 41 40 41 44 44 45 46 53 55 57 57 57 57 56 57 52 55 58 59 61 63 62 59 60 58 58 56 56 57 57 58 58 58 56 55 54 54 49 47 44 42 42 40 39
16 16 16 36 39 39 38 43 44 43 43 49 57 55 58 56 55 55 56 57 56 58 56 57 60 63 62 59 58 55 56 58 58 59 59 59 58 55 54 54 51 48 46 44 42 41 40 40 40
16 16 16 31 37 39 40 40 37 41 48 51 56 57 56 54 53 56 56 58 59 60 60 58 61 62 60 58 56 56 58 60 60 60 59 58 55 54 50 47 45 44 44 42 41 40 39 40 39
23 18 14 34 36 37 35 37 37 42 49 51 53 54 56 55 55 57 56 58 59 60 60 60 61 59 58 58 58 58 60 60 61 60 58 57 56 50 49 47 44 43 43 43 42 42 41 41 40
25 14 24 28 32 33 36 34 38 42 49 51 52 54 55 56 54 55 57 58 60 59 59 57 57 58 57 56 55 57 60 59 58 57 57 57 55 49 48 45 45 45 45 43 43 42 42 42 41
22 14 14 28 30 33 33 35 40 43 45 46 48 52 54 55 55 56 58 58 57 57 55 56 58 57 56 53 55 57 56 55 53 51 50 48 48 49 46 45 43 44 45 44 43 42 41 42 41
18 13 17 20 24 27 28 37 41 42 44 45 48 51 49 52 54 56 56 54 56 55 54 58 57 55 54 54 55 53 51 49 48 47 47 46 46 47 46 44 43 44 43 42 41 41 42 41 38
15 17 22 19 20 25 30 36 41 42 41 42 44 46 45 48 50 54 53 54 54 53 55 58 56 53 54 56 51 49 47 48 46 45 44 43 43 46 43 42 42 41 41 40 40 37 37 38 38
20 18 18 21 21 19 24 35 39 39 40 41 43 43 44 46 48 52 53 53 53 53 57 57 54 54 55 52 48 46 46 44 44 43 44 43 42 41 41 41 42 40 39 39 40 38 34 34 35
20 18 18 21 20 13 19 34 36 39 39 40 42 43 42 43 45 51 52 52 52 55 57 56 53 55 54 50 49 47 44 43 43 43 42 42 41 41 37 36 31 33 35 37 37 37 35 38 35
20 20 21 19 12 21 22 24 33 37 38 39 43 42 42 43 43 49 51 52 53 56 57 56 53 55 55 51 49 45 44 44 43 43 43 33 26 27 29 30 30 31 32 30 33 38 37 34 33
20 21 22 21 16 11 18 17 28 32 31 38 38 44 40 46 42 46 51 52 53 56 57 56 55 54 56 50 47 43 41 41 42 41 31 26 26 29 31 31 32 33 35 35 38 39 37 35 32
21 23 21 23 22 21 23 20 20 32 24 34 39 42 42 45 42 43 51 52 53 56 56 56 55 54 52 49 47 43 42 42 39 29 25 26 28 31 31 32 34 34 39 39 38 37 35 35 33
24 20 25 24 24 19 25 21 20 27 24 23 32 41 43 43 44 47 52 53 53 56 56 56 50 49 47 45 44 43 39 35 27 25 23 26 30 30 29 33 33 36 39 38 37 37 37 36 35
25 24 18 15 17 15 28 23 22 24 29 29 28 34 40 42 47 50 53 54 55 56 53 47 45 45 45 43 42 37 32 27 25 24 25 26 27 28 27 30 31 34 38 38 38 37 37 37 36
23 21 16 13 15 18 30 24 23 27 29 31 31 36 43 46 49 51 54 54 55 54 48 45 44 42 40 38 37 31 28 27 26 27 27 27 27 27 30 29 30 32 37 37 38 36 35 37 36
20 17 24 26 31 25 25 26 19 31 31 32 34 37 41 47 50 51 53 53 53 48 44 45 43 38 37 35 33 31 30 29 28 28 28 27 28 28 28 29 29 30 30 35 37 36 35 35 34
25 22 19 25 17 17 15 18 21 27 28 31 36 36 37 47 50 52 52 51 49 43 42 43 42 38 39 35 32 32 31 30 29 28 27 28 28 27 28 28 28 29 29 29 32 32 32 29 31
23 21 19 22 21 14 16 16 18 25 27 29 31 37 37 46 49 51 50 49 46 43 42 42 41 38 37 37 33 31 30 30 29 27 28 28 27 28 27 28 28 28 29 30 29 29 28 29 30
26 24 20 15 14 25 23 20 24 20 23 30 34 38 40 46 48 49 49 47 45 43 42 41 41 38 37 33 31 31 33 32 30 28 29 28 27 28 27 27 27 29 29 30 29 28 29 29 28

GFSSGP_sfc_30mbdewp_021.txt.gz
Dewpoint
51 46 40 33 25 18 13 14 16 21 46 53 56 54 55 58 52 44 64 65 67 67 68 68 68 68 69 68 67 66 65 64 62 61 61 60 61 61 61 61 61 59 57 55 55 55 55 56 60
42 37 33 26 15 12 8 16 26 38 48 51 52 56 55 57 61 62 63 67 67 67 68 67 68 69 68 68 67 65 63 62 62 60 60 60 60 61 62 62 61 59 57 56 56 56 56 57 59
40 40 34 24 14 9 10 28 44 45 47 45 43 50 56 58 62 62 65 67 67 67 67 67 68 68 68 67 65 65 64 64 62 61 60 60 60 60 61 62 61 59 57 57 56 57 58 59 58
37 34 20 10 7 10 9 11 41 45 46 46 45 49 58 63 62 64 65 66 65 66 67 67 68 68 67 66 66 65 65 63 61 62 62 61 60 60 62 62 60 58 57 57 57 57 59 59 55
31 20 13 5 4 5 26 46 45 47 47 47 48 54 57 63 64 63 65 65 65 66 66 66 67 67 65 66 65 65 64 63 62 63 63 63 62 61 63 62 61 60 58 58 57 56 56 58 52
28 16 9 5 9 12 45 47 48 47 47 46 52 53 57 64 63 64 64 64 64 63 63 64 65 65 63 65 65 64 63 62 63 63 63 63 63 63 62 62 61 60 59 58 55 55 56 57 52
26 21 16 14 15 32 43 46 46 46 45 45 52 52 57 60 63 63 63 63 61 61 61 61 63 62 61 63 64 62 62 62 63 63 63 63 62 61 61 60 59 59 58 55 55 54 56 56 53
28 22 15 11 33 34 44 44 44 44 44 48 50 52 53 60 62 62 62 60 59 59 60 59 60 62 62 62 62 60 59 61 62 62 61 61 60 60 60 60 59 57 56 56 55 56 53 57 52
20 17 14 11 36 34 43 42 44 50 50 55 57 57 59 61 61 59 60 60 57 58 59 59 59 58 60 62 62 61 59 60 60 60 59 60 60 59 58 58 57 55 56 56 57 53 49 48 50
21 18 17 17 33 38 41 41 43 46 52 53 55 59 60 60 59 57 58 58 56 56 57 57 56 58 62 62 61 59 58 59 58 58 58 58 58 59 57 58 57 57 55 54 49 45 43 41 42
19 17 18 25 38 42 40 41 45 46 46 51 54 56 58 58 58 58 57 57 57 57 58 59 59 61 63 60 60 58 58 57 57 57 56 57 58 58 56 54 52 48 46 43 42 41 41 40 41
18 17 18 22 36 41 40 44 43 45 46 54 55 56 56 56 56 56 56 55 56 58 59 60 60 62 62 60 58 57 56 56 56 56 58 58 56 54 54 50 47 45 44 42 42 41 40 40 41
16 16 17 22 38 39 41 39 38 45 54 55 56 56 55 55 54 56 57 57 55 56 57 58 59 63 61 59 57 56 56 58 59 58 59 57 54 52 47 45 44 44 43 42 40 40 40 40 40
22 24 21 27 36 39 38 38 40 47 56 54 55 55 53 52 54 55 56 57 58 58 56 57 59 62 60 58 55 56 59 60 60 59 58 56 53 48 46 44 43 43 43 43 42 42 41 41 40
26 17 26 33 35 37 36 35 39 48 53 55 55 54 52 53 54 54 56 57 58 59 59 59 60 60 59 57 57 58 60 60 59 58 57 55 51 49 46 45 45 45 43 43 43 42 42 41 40
21 15 25 29 33 35 33 34 40 48 50 51 54 55 53 54 54 55 55 57 59 59 59 58 59 58 57 56 57 59 58 57 57 56 55 53 49 47 45 43 44 45 44 43 42 42 41 41 37
17 13 20 27 29 34 30 37 41 48 49 50 51 54 55 54 54 55 56 58 59 59 57 57 57 57 55 55 57 56 56 54 52 50 48 49 48 47 43 43 44 43 42 41 40 41 41 39 36
17 16 21 21 25 31 31 38 41 45 45 48 49 52 54 54 54 55 57 58 58 57 55 57 56 55 54 55 53 50 49 48 47 46 46 46 47 45 44 43 42 41 40 39 39 35 36 38 37
22 19 18 20 21 23 27 37 41 42 44 45 47 49 51 53 55 56 57 55 57 55 56 57 55 54 55 51 49 46 45 45 45 44 43 45 44 42 41 42 40 39 38 40 38 37 34 35 34
21 19 19 21 20 19 21 34 39 41 42 44 46 47 48 51 51 55 54 54 54 54 56 56 54 54 54 50 47 46 45 44 43 44 43 42 42 41 40 35 32 33 32 33 36 37 35 37 34
21 20 20 21 18 22 24 30 38 39 39 41 44 46 46 48 49 53 53 53 53 53 56 55 54 54 54 50 47 45 44 43 43 42 42 38 34 31 30 30 31 32 31 31 33 37 36 34 32
20 23 22 21 16 17 20 21 30 36 38 38 40 43 43 45 47 52 52 52 52 53 56 56 54 55 54 50 46 44 42 41 42 42 33 27 31 31 32 32 34 35 35 35 38 38 37 35 32
21 23 23 22 23 21 23 19 21 31 36 37 36 39 43 43 44 49 52 52 52 53 55 57 54 54 55 50 47 44 44 43 41 33 26 28 32 32 32 34 34 37 38 38 36 35 35 34 33
24 22 25 25 24 17 22 22 19 29 32 36 34 37 39 43 45 45 51 52 53 55 56 57 55 54 55 51 48 45 45 42 36 27 25 28 31 30 33 34 35 39 38 37 37 36 35 35 34
25 22 17 15 16 15 27 23 21 23 27 28 27 32 40 43 45 44 50 51 52 55 56 56 55 55 54 52 48 45 44 40 33 26 27 29 28 27 30 30 31 37 39 38 38 37 36 36 34
23 21 16 12 14 15 29 21 20 27 29 31 31 31 34 43 44 47 50 52 53 54 56 56 52 50 48 48 46 42 38 34 28 27 28 28 28 28 30 31 31 38 37 37 38 37 35 36 36
21 19 23 25 30 24 21 26 22 24 30 33 33 37 39 41 46 48 51 53 53 54 54 53 50 48 45 44 40 37 34 32 28 28 29 28 29 29 30 30 31 31 32 35 37 37 35 35 35
23 27 19 24 17 16 19 17 17 25 26 33 35 34 39 46 48 51 52 53 54 55 52 49 47 45 43 41 39 37 34 32 30 29 28 28 29 30 30 30 29 29 29 30 32 34 32 29 29
24 21 21 22 22 14 14 16 20 24 21 26 28 36 37 45 49 51 53 53 54 52 47 47 43 41 40 39 39 39 34 33 31 29 29 30 30 30 29 29 28 28 29 30 29 28 27 28 29
25 23 21 18 16 24 22 18 23 21 21 24 26 32 38 40 48 51 52 51 49 46 45 45 42 41 39 38 37 36 35 33 30 29 32 31 28 29 29 28 28 29 29 30 30 29 29 29 29

GFSSGP_sfc_30mbdewp_024.txt.gz
Dewpoint
51 44 38 29 23 18 12 12 17 15 46 55 56 55 55 57 51 45 64 66 67 67 68 68 68 68 67 67 66 65 64 63 62 62 62 62 62 62 62 61 61 60 59 56 55 59 62 63 64
40 35 32 24 14 8 3 15 19 39 49 50 47 55 56 55 60 62 62 67 66 67 67 67 68 68 67 66 66 65 63 62 61 61 61 62 62 62 63 61 60 60 59 56 54 55 59 61 63
38 40 30 22 14 7 7 17 44 46 47 45 45 54 57 57 61 63 66 66 67 67 67 68 68 68 67 66 65 64 63 62 62 61 61 61 61 61 62 61 61 60 59 56 55 54 57 60 59
36 33 14 13 10 11 11 11 33 44 46 46 47 53 60 63 62 64 66 67 67 67 67 67 67 67 66 66 65 65 64 62 62 62 62 62 61 61 62 61 60 59 58 56 56 54 57 60 58
27 21 15 6 5 5 22 46 48 46 46 49 49 54 56 62 64 65 65 65 65 65 66 65 65 65 66 66 65 65 63 63 63 63 63 62 63 62 62 62 61 60 59 58 58 57 56 57 56
25 16 10 8 5 11 44 46 48 46 47 50 53 53 57 63 63 63 62 61 62 61 62 65 64 63 64 66 65 64 64 64 64 64 64 64 63 63 62 61 61 59 58 58 59 58 53 56 57
24 20 14 13 15 27 42 46 47 46 45 48 54 52 58 61 62 61 61 61 61 61 61 61 62 62 63 64 64 63 63 64 64 64 64 63 62 61 61 60 60 59 57 57 59 60 56 52 56
26 21 16 13 18 33 44 45 46 44 46 52 53 52 54 60 61 60 59 59 59 60 60 60 60 60 60 62 62 62 62 63 63 63 62 61 61 61 60 60 59 57 57 57 55 59 54 52 53
21 18 14 13 25 32 44 43 46 54 53 55 57 56 59 60 60 58 57 58 58 58 58 58 59 59 58 62 60 60 61 62 61 60 60 60 60 59 56 58 57 56 57 56 53 53 54 52 51
22 19 16 17 20 34 41 42 45 49 52 53 56 59 60 60 58 57 55 55 56 56 57 57 57 57 55 61 61 58 59 59 59 59 58 58 58 57 58 58 58 58 57 53 50 47 46 42 40
19 18 18 17 26 41 40 42 45 48 48 51 54 56 59 58 58 58 55 55 55 57 57 58 57 57 56 61 60 57 57 57 57 57 57 58 58 58 54 53 48 46 44 42 41 41 42 40 40
19 18 19 19 33 41 39 43 44 45 47 54 56 57 57 57 57 57 55 56 55 54 55 56 57 60 62 60 58 57 55 56 56 56 57 57 56 53 50 48 45 43 43 41 41 41 41 40 40
18 17 18 18 39 40 42 40 41 51 54 55 56 56 56 56 56 57 56 56 55 55 54 57 60 61 62 59 57 56 54 55 55 56 59 57 54 51 46 45 44 43 42 40 40 41 41 40 39
21 21 24 32 38 40 39 40 45 53 55 53 54 54 55 52 53 56 56 54 57 57 58 58 59 61 61 58 56 55 55 58 58 58 58 55 51 46 44 43 43 42 42 42 42 41 41 40 38
26 20 27 35 38 38 38 37 44 53 54 53 54 54 54 53 54 55 56 56 56 57 56 57 58 61 60 58 55 55 59 60 59 58 56 53 49 46 44 44 43 43 43 43 42 42 42 40 35
20 18 24 30 34 36 36 35 47 53 53 52 53 54 52 52 54 55 55 55 57 58 57 58 59 60 59 57 55 57 59 59 58 57 55 51 49 46 45 44 44 44 43 42 42 41 41 38 34
17 14 22 26 33 35 32 37 44 51 53 52 53 53 52 52 53 55 55 56 57 58 58 58 59 58 58 56 57 58 58 57 56 54 53 50 47 45 43 44 44 43 41 41 41 41 40 36 35
18 17 21 25 27 33 32 38 42 48 50 51 52 54 53 52 53 54 55 57 59 59 58 57 58 57 56 56 55 54 53 52 51 50 49 49 47 44 44 44 43 42 40 39 36 35 37 38 35
23 19 17 21 22 29 31 38 40 46 47 48 50 52 54 54 54 54 55 57 58 58 57 57 56 55 55 53 53 52 51 48 47 46 46 47 45 44 43 42 40 39 38 39 37 36 34 35 34
22 19 19 21 19 21 27 32 41 43 46 46 48 50 52 54 54 54 55 56 57 57 56 56 56 55 54 53 49 48 47 45 44 44 44 45 43 42 42 38 37 37 35 34 37 36 36 35 33
21 20 20 20 20 24 28 32 39 40 42 43 45 48 50 52 53 54 55 55 56 56 56 56 55 54 53 51 46 45 44 44 43 42 42 41 39 36 32 31 31 31 31 31 34 36 35 33 31
17 23 22 22 17 16 21 13 32 38 40 39 43 45 47 48 51 53 54 54 54 55 56 56 55 54 54 49 46 44 43 42 42 42 37 32 32 31 32 33 33 34 35 37 37 38 37 35 32
19 24 23 23 21 21 22 17 19 32 37 39 39 41 45 46 48 50 54 54 54 54 55 56 55 54 54 49 46 45 43 43 42 38 30 31 32 32 34 34 36 37 37 36 36 35 34 34 33
24 22 24 25 24 17 20 21 19 24 32 37 39 39 41 44 45 48 52 53 53 53 54 56 55 54 54 51 48 45 45 42 40 34 29 31 31 33 34 35 37 38 37 37 36 35 33 33 33
24 22 18 16 16 14 27 23 20 21 25 32 35 38 38 41 44 45 50 52 52 53 54 56 55 54 55 53 50 46 46 43 40 34 32 31 30 32 32 34 36 37 38 38 37 36 35 35 33
23 22 18 12 13 15 28 19 16 25 28 28 30 31 35 38 43 44 47 51 52 53 54 55 56 55 55 55 52 48 47 44 41 36 32 31 29 30 31 31 33 37 39 38 38 37 36 36 36
22 19 22 23 29 24 20 23 22 22 28 32 32 33 32 39 42 44 45 50 52 53 54 55 56 55 55 54 51 47 46 44 39 37 33 32 29 31 33 31 32 38 37 37 37 37 36 35 35
23 27 20 23 16 16 18 19 14 15 23 30 33 33 36 42 43 45 47 50 52 53 54 55 56 54 52 51 48 46 44 43 40 36 32 31 32 32 31 31 31 31 32 33 36 36 36 34 34
24 22 22 22 21 14 12 15 21 19 23 23 26 32 35 39 45 47 49 51 52 53 54 54 54 52 47 47 46 44 42 42 38 34 32 32 32 31 31 30 31 30 30 31 30 31 30 28 27
24 22 22 18 17 22 20 16 21 21 22 21 22 27 34 37 45 49 51 52 53 53 53 51 49 47 47 46 44 43 40 37 34 32 31 31 31 32 31 30 30 30 30 30 30 29 28 28 28

GFSSGP_sfc_30mbdewp_027.txt.gz
Dewpoint
53 42 38 28 19 19 12 12 18 16 34 56 56 51 52 54 50 44 64 66 66 66 65 66 68 67 67 67 66 66 65 64 63 63 63 63 63 63 62 62 61 60 61 63 63 63 63 64 64
41 34 32 24 12 6 1 14 22 43 47 50 51 56 55 54 59 61 63 67 67 66 64 64 68 67 67 66 66 65 64 63 63 63 63 64 63 63 62 62 61 60 59 60 61 63 64 65 64
38 37 29 22 14 7 7 16 34 46 48 47 49 57 57 57 61 62 66 66 67 66 65 65 67 67 67 66 65 64 63 63 63 63 63 64 63 63 62 62 61 60 58 56 58 60 62 61 62
35 32 16 15 12 13 12 12 39 41 46 46 52 54 59 63 63 65 66 66 67 66 65 66 66 67 66 65 64 63 63 63 63 63 63 63 62 62 63 62 61 60 58 54 57 59 59 59 60
25 22 19 10 7 7 10 43 49 45 46 51 52 53 56 62 63 64 66 66 66 66 65 65 66 65 66 66 65 64 63 63 63 63 63 63 63 63 63 62 61 61 60 57 57 59 59 58 60
25 17 12 8 7 9 28 46 48 47 49 51 52 53 57 63 61 62 63 63 64 64 65 66 64 64 63 65 64 64 64 64 64 64 64 64 64 63 62 62 61 61 61 61 57 59 59 59 58
25 19 12 13 16 30 41 47 47 46 46 50 54 52 58 60 60 61 61 62 62 63 62 62 62 61 60 61 64 65 65 65 65 65 64 64 63 62 61 60 60 59 60 60 57 56 60 59 57
26 21 17 15 15 21 43 45 47 45 47 53 54 51 53 59 60 59 60 60 61 61 61 59 58 59 60 62 63 64 65 65 65 64 63 61 61 61 60 59 58 58 59 61 57 55 57 56 54
22 19 14 14 19 30 43 43 50 54 52 54 56 56 59 58 58 57 57 58 58 59 58 57 57 59 60 61 62 63 64 64 63 62 60 60 57 56 55 57 57 59 57 58 57 55 53 51 51
23 20 16 17 18 31 41 43 47 50 52 53 56 59 59 58 57 56 55 55 56 56 56 56 57 56 57 59 59 60 61 60 59 58 58 57 58 57 56 58 60 57 55 53 52 49 45 41 40
21 19 19 18 19 38 41 42 47 49 48 51 54 56 57 57 56 56 56 55 55 55 55 55 55 55 54 55 54 58 58 59 59 59 58 58 58 57 57 53 51 48 46 42 44 42 41 42 39
20 20 20 20 29 41 40 44 44 46 47 53 56 57 57 57 56 55 55 55 56 54 55 55 56 56 56 56 60 57 57 57 57 56 58 59 56 54 50 46 46 46 44 45 44 44 45 42 40
20 19 19 20 35 42 43 42 46 52 55 57 57 57 56 56 56 55 56 55 56 56 56 55 56 55 58 58 58 56 55 54 55 56 59 58 54 51 47 47 45 44 44 43 43 43 42 41 39
23 20 24 33 40 40 41 45 46 52 54 54 55 54 55 56 57 55 55 53 54 54 56 55 57 59 60 60 57 55 55 56 57 58 59 57 53 49 47 46 44 44 43 44 43 42 41 39 38
27 23 29 36 39 38 38 39 46 52 53 53 53 53 55 54 56 56 55 53 53 53 54 56 58 60 62 60 56 56 56 57 58 59 58 55 51 49 47 45 45 45 45 45 44 44 42 38 36
20 20 25 31 36 38 34 35 49 52 52 51 52 53 54 52 53 56 56 56 56 55 55 56 57 59 62 59 57 56 57 60 60 58 56 53 49 48 47 46 46 45 45 44 44 43 40 39 36
20 15 23 28 34 36 33 37 46 52 51 49 51 52 51 51 53 55 56 55 56 57 57 57 57 58 61 59 56 57 60 60 59 58 55 51 48 48 47 46 46 46 44 44 42 42 41 39 36
18 18 21 26 29 33 33 39 47 52 52 51 51 51 51 50 51 53 55 55 55 56 57 57 58 59 60 58 57 58 58 57 58 57 53 51 48 47 47 46 46 43 42 41 39 39 40 39 35
23 20 18 21 23 30 32 36 44 50 51 51 52 53 51 49 50 53 54 55 55 57 57 57 57 59 58 56 55 56 56 55 55 54 53 51 47 46 46 44 44 42 41 40 40 38 38 36 37
23 20 19 22 20 26 27 32 41 46 48 49 50 52 52 51 52 54 54 55 56 56 57 58 57 58 58 56 55 56 55 52 52 49 50 49 47 45 45 43 42 41 40 40 40 39 37 35 37
22 20 21 21 21 26 28 26 38 41 46 46 47 50 51 53 53 54 54 55 55 56 58 58 57 57 57 56 52 50 51 48 46 45 46 46 45 44 42 41 39 37 34 34 38 39 37 33 34
19 23 23 22 19 16 22 13 24 39 40 41 44 45 48 51 53 53 54 54 55 56 58 58 57 56 56 54 52 51 53 50 47 45 44 43 42 39 35 34 35 35 35 36 38 39 38 36 33
20 25 23 23 20 22 22 17 17 33 38 39 41 43 45 48 50 52 54 54 55 56 57 58 57 56 56 53 52 52 51 50 47 43 40 38 37 35 33 36 37 37 37 39 40 39 38 38 36
25 24 24 25 24 17 21 20 18 23 30 35 40 42 43 45 48 50 53 54 55 56 57 58 57 56 55 53 51 50 49 47 44 40 38 36 34 35 35 36 37 38 38 40 40 40 37 35 34
24 22 19 16 17 14 26 24 21 22 25 29 32 40 42 43 46 48 50 52 54 55 56 57 57 56 55 54 52 51 49 46 45 41 39 37 36 36 36 38 38 38 39 40 39 38 36 36 33
24 22 19 12 14 15 27 21 16 24 28 29 30 32 36 41 43 45 47 51 53 54 55 56 56 56 55 54 53 50 49 47 47 44 40 37 37 37 37 37 37 39 41 40 39 37 37 38 36
23 22 24 23 29 23 20 22 22 20 24 31 33 34 34 34 40 44 46 49 52 53 54 55 56 56 55 55 55 53 51 50 48 46 42 41 38 36 37 35 35 39 40 40 40 38 38 38 38
23 26 22 23 16 15 18 20 17 18 17 23 28 32 34 39 39 43 45 47 51 53 54 55 55 55 56 56 56 54 52 51 49 45 42 40 37 34 35 34 36 38 39 39 39 38 38 37 37
25 23 23 24 22 15 14 15 21 19 20 24 23 27 35 36 42 44 45 47 49 52 53 55 55 55 55 55 55 53 51 50 48 45 43 39 36 36 35 33 35 35 34 34 34 34 35 36 35
26 24 24 19 18 22 21 18 21 23 23 24 23 25 33 37 39 47 48 50 51 52 53 54 55 55 54 52 53 52 51 49 46 44 41 38 37 36 33 34 32 31 31 32 31 32 30 32 30

GFSSGP_sfc_30mbdewp_030.txt.gz
Dewpoint
51 38 31 28 17 10 7 5 11 18 24 51 54 43 33 49 43 43 63 65 64 61 60 65 68 68 68 67 67 66 65 64 65 64 64 64 64 63 63 63 64 65 65 63 62 63 62 60 61
33 28 28 19 8 5 4 11 17 33 41 48 51 54 51 53 57 61 64 66 64 62 61 60 68 67 67 66 66 65 64 64 64 64 64 64 64 64 63 63 63 65 65 63 63 63 61 61 63
33 32 22 15 6 3 4 16 14 40 47 46 49 54 53 54 59 60 64 66 65 63 61 63 67 67 67 66 65 64 64 64 64 65 64 64 63 63 63 62 61 63 63 63 63 62 61 63 63
29 29 19 9 5 7 7 7 20 33 40 44 49 51 57 58 61 63 66 67 65 64 63 66 67 67 66 66 65 64 64 64 64 65 64 64 63 63 63 62 61 60 60 60 60 58 60 61 61
24 21 12 7 7 6 5 22 44 42 37 45 49 51 54 62 65 64 66 66 65 65 65 66 66 67 66 65 64 64 64 64 64 64 64 64 64 64 64 62 62 60 60 60 59 59 61 61 60
21 18 9 4 6 16 23 38 46 44 46 49 49 51 56 63 62 63 65 66 66 65 65 65 65 64 64 65 64 64 64 64 64 64 64 64 64 64 63 63 63 61 60 61 61 61 60 59 58
20 14 8 17 21 28 40 46 44 44 45 49 51 49 58 59 61 61 63 64 65 66 64 64 61 60 62 64 65 65 65 65 65 65 65 64 63 62 61 61 61 61 59 59 61 61 58 56 55
22 18 14 19 18 24 36 43 46 44 45 52 53 50 54 58 60 60 61 61 61 61 62 61 60 58 57 62 65 65 65 65 65 64 62 62 60 60 60 59 60 62 59 59 60 59 57 55 54
22 14 16 15 14 19 33 40 47 51 49 51 55 54 58 59 59 59 58 58 57 58 58 58 58 59 59 59 61 64 65 65 63 61 59 55 50 49 52 58 60 61 59 58 57 55 53 51 50
20 14 14 15 16 17 29 39 45 47 48 52 55 57 58 58 58 57 57 56 55 55 56 56 57 56 57 58 58 61 62 58 58 57 54 53 54 51 51 58 59 58 56 54 52 46 43 42 39
21 16 18 19 19 20 34 39 45 44 42 48 53 55 57 57 56 56 56 56 55 56 55 56 57 56 55 55 58 58 56 58 57 56 53 54 55 53 54 55 52 49 48 42 41 42 41 42 40
19 20 20 20 23 30 39 43 45 46 49 53 56 57 56 56 56 55 55 55 55 55 54 54 53 53 50 52 53 51 52 53 55 56 55 55 52 53 53 51 50 47 46 46 44 45 45 43 41
22 21 21 23 26 40 41 41 44 51 55 56 56 56 56 56 55 55 55 55 54 53 54 52 51 49 51 49 46 49 53 52 50 52 52 51 51 53 51 50 47 46 45 45 45 44 42 42 41
24 23 25 27 33 41 41 42 43 52 55 55 55 54 56 55 54 52 53 54 54 53 53 53 52 50 49 49 51 49 50 49 51 54 56 56 52 53 50 48 46 45 45 45 43 42 41 40 39
25 24 26 28 38 37 39 37 44 52 52 51 53 52 51 54 54 53 51 53 53 54 53 52 53 54 51 54 56 49 51 51 53 56 59 58 54 52 50 47 47 46 46 45 45 43 42 39 37
22 20 21 30 35 38 36 32 47 52 50 47 48 49 50 53 54 53 50 51 52 53 54 54 55 55 55 57 55 50 52 52 55 58 59 57 54 52 50 49 48 46 45 43 43 42 40 38 34
19 15 20 24 32 35 34 32 44 52 49 44 45 48 47 49 51 52 54 49 51 51 52 53 55 56 58 60 56 52 53 56 58 59 58 57 53 51 50 48 48 47 44 44 43 42 38 35 32
14 15 16 22 29 32 31 33 41 49 48 45 44 45 45 45 48 52 53 54 52 52 53 54 56 57 59 58 54 50 54 57 60 59 57 55 52 50 50 49 49 45 43 43 42 38 35 33 31
21 17 15 19 26 28 27 27 38 46 48 48 47 45 44 44 46 49 52 53 53 54 53 54 54 56 58 56 52 50 54 57 59 59 57 55 52 50 50 48 47 44 42 41 41 36 35 33 33
22 18 17 20 22 23 23 24 34 43 46 47 47 48 46 45 45 48 49 50 51 53 55 55 55 56 57 54 51 51 53 56 58 58 57 55 52 50 49 47 45 43 43 41 38 35 31 31 34
22 18 20 19 22 22 23 20 30 38 44 46 47 47 47 44 45 47 49 50 51 51 53 53 54 55 56 54 51 55 56 56 57 56 56 55 52 50 48 47 44 44 41 37 36 35 32 33 35
19 21 22 22 19 14 22 11 21 29 38 44 44 46 46 45 45 46 50 51 52 52 52 53 53 54 56 56 53 54 53 53 55 56 55 52 51 49 46 45 44 42 35 32 32 33 36 36 36
19 24 22 22 19 20 20 13 18 29 31 33 39 42 45 45 44 46 47 50 53 53 53 55 55 55 55 56 55 54 54 54 54 54 51 50 48 47 44 42 40 37 33 33 32 37 39 39 35
26 24 25 24 22 16 18 16 12 17 20 22 30 36 41 43 44 45 47 49 50 53 54 55 56 55 55 56 57 55 54 55 54 51 48 46 44 43 41 39 38 36 33 36 40 42 41 38 35
24 20 16 16 17 15 23 21 15 17 19 24 26 27 36 40 43 45 46 48 50 52 54 55 56 55 55 56 57 57 56 56 54 51 48 45 43 41 41 39 38 38 38 41 41 42 41 36 35
22 18 16 15 15 13 24 17 16 20 25 26 29 30 30 37 41 44 46 47 49 52 54 56 55 55 55 56 56 56 56 55 53 51 48 46 43 42 41 40 41 37 41 41 42 43 38 37 34
24 20 21 22 28 18 16 18 19 19 18 29 30 32 33 33 33 38 42 46 49 51 54 56 55 56 55 56 57 56 56 55 53 51 49 48 44 42 42 43 40 39 42 42 44 40 37 35 36
25 25 20 22 17 14 14 15 11 14 15 20 20 25 29 35 37 37 40 42 46 50 52 55 56 55 55 56 57 57 56 55 54 52 49 46 44 42 41 40 38 41 42 44 41 37 36 35 36
25 22 23 23 21 14 12 13 17 16 17 19 21 26 29 33 37 42 42 43 44 48 51 53 55 55 55 56 57 57 57 56 53 52 50 48 47 43 40 39 41 41 42 39 37 35 31 36 34
23 20 23 20 19 23 24 16 18 20 21 25 25 25 29 35 37 43 45 46 47 49 50 51 53 53 54 55 56 57 57 55 54 53 52 49 47 41 39 41 39 35 36 34 33 30 31 33 35

GFSSGP_sfc_30mbdewp_033.txt.gz
Dewpoint
51 45 32 23 15 11 6 6 5 10 14 34 42 39 25 44 48 44 63 64 60 60 64 68 69 69 69 68 67 66 65 65 65 64 64 65 64 65 65 65 65 65 64 63 60 59 59 60 61
36 26 22 18 10 4 4 4 6 10 29 42 46 50 42 50 57 59 62 65 61 61 63 67 69 69 68 67 66 65 65 65 64 64 65 65 65 65 65 67 66 65 65 63 59 59 60 61 62
34 25 20 16 10 2 8 11 14 19 39 41 41 51 51 51 50 57 64 65 62 61 60 67 68 68 67 66 65 65 65 64 64 65 65 65 64 64 64 66 66 65 65 62 59 60 61 62 62
28 24 18 6 4 4 7 7 13 25 30 38 41 49 53 54 53 56 64 65 63 62 62 67 67 67 66 66 65 65 64 64 65 65 65 64 64 64 63 64 65 65 64 59 59 60 60 62 61
21 18 10 10 4 6 7 7 23 30 31 36 40 46 56 59 60 61 60 65 64 62 65 67 67 66 66 65 65 65 65 65 65 65 64 64 64 64 63 62 63 63 62 60 59 59 60 60 59
19 13 9 5 4 6 14 25 32 36 38 41 41 50 57 62 63 63 66 66 66 65 66 66 66 66 65 65 65 65 65 65 65 65 65 65 65 64 64 62 63 63 62 62 61 61 59 58 58
18 13 10 10 16 32 33 38 37 40 40 41 46 47 58 59 61 62 64 65 65 65 64 64 64 65 65 65 65 65 65 65 65 65 65 64 63 62 62 61 61 62 62 62 60 59 58 56 55
18 15 13 15 16 30 31 36 40 40 40 48 50 46 53 58 61 60 61 61 63 63 62 61 62 63 65 64 65 65 65 65 65 64 63 62 61 61 61 60 60 61 62 61 59 57 56 54 52
18 13 17 14 13 17 24 32 42 46 44 47 56 57 59 59 60 59 57 58 58 60 60 59 59 60 62 63 64 65 65 64 62 61 57 54 54 52 56 60 61 59 60 59 58 56 53 48 45
15 12 14 16 17 19 27 33 39 40 45 49 55 57 59 59 59 58 56 54 55 56 57 58 59 56 55 54 54 54 53 56 55 53 54 51 54 55 54 60 59 58 57 56 53 50 46 45 40
17 17 17 18 21 23 30 34 40 40 45 45 52 55 57 58 58 57 56 55 55 56 56 57 55 54 53 53 54 56 59 56 56 57 54 55 56 56 56 55 54 51 48 42 42 42 44 45 40
16 18 18 20 22 30 34 35 32 44 47 50 56 56 56 56 56 56 55 55 55 55 56 56 55 55 54 55 58 58 57 56 54 54 55 58 55 56 56 53 51 50 47 45 47 46 47 44 42
18 19 19 21 23 35 37 38 39 49 52 55 56 56 55 54 54 55 55 54 54 54 53 53 54 54 55 55 53 52 48 48 49 54 54 54 53 53 51 51 50 49 49 48 47 47 43 43 41
22 21 20 21 26 33 36 39 41 49 52 53 53 54 55 54 52 53 54 53 53 53 52 52 50 50 49 47 47 49 50 48 49 51 51 51 50 53 51 52 49 48 48 47 46 43 42 39 39
22 20 21 23 28 29 37 39 41 50 50 50 52 51 50 55 51 49 53 53 52 50 51 48 48 48 48 46 47 46 46 48 49 48 54 54 51 54 52 51 49 48 48 47 45 43 41 39 35
19 18 22 30 28 31 38 38 45 48 45 45 46 46 47 49 49 48 50 52 52 52 48 44 42 48 49 48 51 50 49 48 47 51 57 57 55 55 53 50 50 49 48 46 43 42 40 38 35
15 14 27 28 25 30 36 38 42 45 42 41 41 43 44 47 48 49 50 51 52 51 49 51 53 50 51 52 53 49 49 52 50 55 59 58 55 54 53 51 50 50 47 45 43 42 39 37 33
13 12 16 24 25 26 29 28 40 43 42 41 40 39 40 42 44 48 47 49 51 52 52 53 54 54 54 56 55 50 47 50 51 57 57 58 55 54 54 51 50 50 47 45 43 42 36 35 34
19 16 16 21 29 22 25 30 32 41 42 42 40 42 39 39 42 48 50 48 50 51 51 51 51 52 54 56 52 47 46 49 54 58 58 56 54 54 53 51 52 50 46 44 44 40 38 34 34
17 15 14 19 19 20 19 22 33 37 40 41 40 41 41 39 40 45 49 49 49 50 51 51 51 52 53 51 50 46 46 48 53 58 57 56 56 53 53 52 51 49 45 44 43 38 35 34 36
16 15 18 16 20 18 17 18 21 28 36 41 40 39 39 40 40 43 45 48 50 50 50 51 51 52 53 51 50 46 46 50 51 55 57 57 56 54 52 52 50 48 45 45 43 39 35 33 37
14 16 20 17 16 15 18 17 19 21 30 37 39 39 38 38 40 41 44 45 48 49 51 51 51 51 52 52 49 46 48 48 51 54 55 56 57 55 52 51 51 48 46 43 42 38 35 37 36
17 23 20 19 18 18 15 11 19 16 23 28 35 39 39 39 39 40 43 45 46 48 49 51 51 51 51 53 52 49 50 51 51 53 56 57 56 55 53 50 50 48 46 40 39 35 37 40 42
20 21 20 20 19 17 17 14 19 15 16 20 26 33 38 38 39 38 41 45 47 48 50 51 51 50 51 52 54 54 52 52 50 54 55 54 54 53 52 48 48 47 42 38 37 39 42 43 42
21 19 16 18 17 17 18 15 14 23 16 18 20 25 32 38 38 37 38 41 44 48 51 51 51 51 51 52 54 55 54 54 53 54 55 52 51 49 48 47 46 45 42 44 45 43 45 45 44
19 17 16 22 24 20 21 14 12 16 19 20 19 20 22 32 37 38 38 39 42 45 50 53 52 52 51 54 54 55 57 57 57 57 55 53 50 48 50 49 47 43 43 44 45 45 44 45 44
19 19 17 16 21 20 20 16 16 18 15 17 21 25 26 27 33 37 38 40 42 44 48 53 53 52 53 53 55 56 57 58 57 58 56 53 49 50 49 46 44 43 43 45 45 45 45 44 42
21 23 19 20 22 19 14 13 13 14 12 16 14 21 23 30 34 33 36 40 42 44 47 53 54 53 53 55 57 57 58 57 58 57 55 52 50 48 45 44 43 42 44 45 45 45 45 42 37
21 22 22 20 18 19 15 15 17 16 16 17 18 19 20 27 34 39 38 38 41 45 48 50 54 55 54 55 56 58 58 58 58 57 54 52 50 47 45 45 44 43 43 43 43 45 40 36 36
20 20 21 20 21 23 21 19 17 17 18 20 18 20 24 29 32 39 42 42 42 44 47 49 53 54 54 55 56 58 59 57 56 55 54 53 52 50 48 45 43 43 41 42 42 40 35 34 36

GFSSGP_sfc_30mbdewp_036.txt.gz
Dewpoint
49 45 41 34 18 16 10 8 9 4 11 41 46 42 43 52 42 42 63 58 60 65 69 69 69 70 69 68 67 66 66 66 65 65 65 65 66 66 66 66 66 65 62 59 59 58 57 56 59
40 36 24 19 16 11 5 14 8 8 31 40 37 41 39 49 54 60 62 65 65 65 68 69 69 69 68 68 66 66 66 65 65 65 65 66 66 67 66 66 66 64 62 59 58 58 58 58 60
39 30 20 18 16 10 6 12 15 15 17 31 33 48 51 51 54 56 60 63 63 64 67 69 69 68 68 66 66 65 65 65 65 65 66 66 67 67 67 66 66 64 62 59 58 58 58 59 59
34 25 21 13 3 4 7 9 7 15 22 26 38 47 52 54 53 55 56 57 63 64 67 68 68 67 67 66 66 66 65 65 65 65 65 65 66 67 67 66 66 64 61 59 58 58 59 59 56
24 18 15 10 9 5 5 7 8 20 25 35 34 51 49 60 60 62 57 61 56 62 67 67 67 66 66 66 66 65 66 66 66 65 65 65 65 66 66 66 65 62 62 59 58 59 59 57 54
24 19 9 8 8 28 32 38 21 26 31 32 48 47 53 61 61 63 65 64 63 64 67 67 67 66 66 66 65 66 66 66 66 65 65 65 64 64 65 65 63 63 62 62 61 60 58 56 50
20 16 12 10 18 30 32 37 39 35 32 48 50 44 55 59 61 62 64 64 60 62 65 65 65 65 66 66 66 66 65 66 66 66 65 64 64 63 64 64 63 63 62 61 60 58 57 54 48
17 15 13 16 14 20 37 38 39 39 45 52 50 47 52 58 60 60 61 62 63 63 64 64 64 64 65 65 65 65 66 65 64 64 63 63 62 62 62 63 62 62 61 59 58 56 54 49 44
17 14 14 19 14 17 18 26 42 44 46 44 54 56 58 59 59 58 58 58 59 61 61 62 63 63 63 62 64 64 64 63 62 60 58 56 56 56 57 61 62 61 60 58 56 52 48 45 40
16 13 18 16 18 19 21 27 36 43 43 43 45 56 59 59 57 57 56 55 56 58 59 60 59 57 60 61 61 62 61 58 56 56 55 56 57 57 59 60 60 60 58 56 51 49 48 44 40
15 14 19 16 20 21 25 31 36 44 41 43 44 54 58 57 57 56 56 55 55 56 58 56 55 55 55 54 56 57 58 57 56 57 56 58 58 58 59 57 56 55 52 47 46 49 48 48 46
13 16 16 18 21 23 31 35 33 47 41 49 54 55 55 56 56 55 55 55 55 55 54 54 54 54 53 52 51 52 55 58 57 56 58 58 58 58 56 55 54 50 48 43 45 50 47 45 44
13 15 18 18 21 26 30 33 41 49 55 55 55 55 54 55 55 55 55 55 54 54 54 55 54 54 54 54 53 53 57 57 55 56 57 58 55 57 56 55 53 51 51 50 51 48 46 44 43
21 21 19 18 19 28 32 38 41 49 53 54 53 54 54 53 54 54 53 53 51 52 52 54 55 55 55 56 56 57 56 57 54 55 56 56 57 56 56 55 54 53 51 51 50 48 44 45 42
19 19 17 19 21 28 34 30 36 47 49 50 50 50 50 52 52 52 53 52 52 51 51 53 53 54 54 54 55 56 54 46 49 53 54 55 52 54 56 53 53 53 51 51 48 45 44 41 39
19 16 15 23 26 35 34 32 36 41 48 47 44 47 45 49 51 52 52 52 52 50 50 51 52 52 52 50 48 51 50 49 50 52 56 55 55 56 57 55 53 51 51 49 46 45 43 41 39
16 13 17 23 27 35 37 38 37 43 43 44 43 44 48 50 46 51 52 51 51 49 48 49 50 49 49 47 46 48 50 54 54 52 58 58 58 56 56 55 53 52 50 50 47 46 44 40 37
14 18 18 24 25 26 37 40 44 47 39 39 39 42 43 47 47 49 50 51 51 48 45 45 46 48 49 49 44 49 51 53 53 54 59 59 58 57 56 56 54 51 51 49 46 45 41 41 38
13 19 21 22 26 25 26 40 47 45 39 38 37 38 39 41 49 50 50 52 51 49 49 49 50 51 52 52 52 54 49 51 52 56 58 59 59 57 56 56 54 52 51 49 48 45 39 37 37
13 13 16 19 24 21 15 33 44 46 40 36 38 40 38 39 45 48 49 51 52 51 52 54 55 54 53 55 56 54 50 49 51 58 59 59 60 56 56 56 54 53 52 50 48 44 41 40 39
13 13 12 17 23 21 16 14 36 40 37 37 37 42 41 37 43 47 48 50 51 53 53 53 54 55 55 56 55 54 50 49 49 58 59 59 58 57 55 55 55 54 53 50 48 45 42 39 40
13 13 18 20 18 13 21 17 23 29 30 35 36 38 39 40 40 45 47 50 50 52 53 52 51 51 53 53 51 51 47 45 49 56 58 58 58 58 56 55 55 54 51 50 49 46 42 40 40
14 21 20 19 16 17 19 18 14 21 22 29 36 37 38 39 40 41 45 48 51 52 53 53 52 52 53 54 54 52 48 47 49 54 55 57 58 58 57 56 54 53 51 48 47 44 41 41 43
17 21 22 21 17 17 22 16 15 18 19 23 30 36 37 38 39 41 43 45 48 51 52 54 52 52 52 53 53 54 51 51 52 54 55 57 58 58 57 54 54 50 48 48 48 48 43 45 44
18 18 17 15 15 19 21 17 18 22 26 30 30 33 41 38 39 40 42 43 45 48 51 53 53 52 52 53 55 54 55 53 53 54 56 57 57 55 54 49 48 49 50 50 49 46 45 46 44
19 18 19 16 21 24 31 21 15 22 24 21 22 36 38 38 39 40 39 43 45 47 50 51 52 52 51 53 54 56 55 56 56 56 58 57 56 53 51 50 49 50 49 47 46 45 45 45 45
19 18 19 18 28 29 33 28 17 19 19 17 17 21 23 24 38 39 39 40 45 48 50 52 52 52 51 52 54 55 58 57 58 58 58 58 55 51 50 51 51 49 47 45 45 45 45 46 46
18 19 22 21 17 21 19 19 17 20 16 14 16 19 23 28 30 34 39 40 42 45 51 54 53 52 52 53 55 56 58 58 60 59 58 57 52 50 51 51 49 46 44 46 45 45 46 46 45
18 19 23 26 21 23 19 20 24 23 16 16 17 18 21 26 34 35 36 37 40 44 45 52 54 54 53 54 56 58 58 57 56 59 59 54 53 52 50 49 47 44 44 45 44 44 44 44 43
19 19 19 21 21 23 24 22 23 25 21 20 20 20 21 25 31 37 39 39 40 41 45 52 54 54 55 55 59 58 59 60 59 58 56 55 53 52 49 47 45 44 45 44 43 43 42 42 40

GFSSGP_sfc_30mbdewp_039.txt.gz
Dewpoint
47 44 47 39 27 20 15 15 16 17 30 44 45 39 45 54 53 43 60 61 61 57 64 69 70 69 69 67 66 66 66 65 65 66 66 67 67 66 67 64 63 62 61 57 55 54 57 58 60
46 38 40 32 17 15 16 15 14 17 37 43 41 39 45 50 54 60 61 60 60 57 63 67 69 69 68 67 66 66 65 65 66 66 66 67 67 67 67 64 63 62 60 56 54 54 58 59 59
45 37 27 19 18 16 14 13 13 9 18 30 50 52 53 51 53 56 58 63 59 62 66 68 68 68 67 66 66 65 65 65 66 66 66 67 67 67 66 64 63 62 59 55 53 56 58 58 55
38 31 26 17 14 14 15 27 28 13 20 43 48 45 51 56 56 57 57 59 64 65 66 68 67 67 67 66 66 66 66 66 66 66 67 67 67 67 66 64 63 61 58 54 54 56 56 55 54
36 27 19 19 19 18 30 32 32 40 41 46 49 47 48 60 62 63 58 60 62 64 66 67 67 66 66 67 66 66 66 66 66 67 68 68 67 67 66 64 63 61 59 57 56 55 54 51 50
25 23 18 17 16 28 29 32 29 46 49 46 44 47 53 61 60 63 63 63 61 63 62 62 67 66 66 66 66 66 66 66 66 66 66 67 67 67 65 64 63 62 62 61 59 56 51 48 48
24 21 18 15 14 25 29 34 38 47 45 48 49 43 50 57 60 63 63 60 63 65 65 64 67 66 64 63 65 66 66 66 66 66 65 65 66 66 64 64 64 63 61 60 57 53 48 46 45
23 20 14 14 18 25 33 35 42 45 48 53 51 46 49 57 60 61 62 62 62 63 63 64 65 65 65 65 66 66 66 65 64 64 63 64 65 65 64 63 63 61 60 58 55 50 45 42 41
22 14 14 15 18 19 27 31 43 49 47 49 53 55 57 59 59 59 59 60 60 62 63 64 63 63 62 62 64 65 64 63 62 61 59 58 59 60 61 62 61 60 57 55 52 49 45 44 42
17 15 15 18 19 19 22 33 44 43 45 46 54 57 59 58 58 57 56 57 59 60 60 61 61 61 61 62 63 62 60 58 57 55 56 57 59 58 61 61 60 58 56 53 52 49 47 43 42
18 15 15 17 21 22 33 38 45 43 37 43 49 55 57 57 56 55 55 55 56 58 57 58 59 58 58 59 60 60 57 56 56 57 57 59 59 59 59 59 58 57 53 51 51 49 44 47 44
14 15 15 17 21 22 30 41 46 44 46 46 54 56 57 56 55 55 54 55 53 54 54 55 55 56 56 55 56 58 58 57 58 58 58 57 57 56 55 54 53 49 47 43 45 47 48 44 42
15 14 17 20 18 26 39 46 50 53 54 55 55 56 56 55 55 55 55 55 54 53 54 54 53 53 53 54 55 56 56 56 57 57 58 58 56 55 55 54 49 48 48 44 49 46 45 43 42
22 21 20 20 19 30 36 41 46 53 54 54 53 54 55 54 53 54 53 52 53 54 54 55 54 53 53 53 54 55 54 54 55 57 56 57 57 56 55 56 51 50 50 51 49 46 45 43 40
26 22 20 19 18 33 31 31 43 50 54 52 52 52 53 53 53 52 52 52 52 53 54 54 54 54 53 53 54 56 54 53 53 50 56 55 57 57 57 57 54 53 51 50 50 48 46 43 40
22 20 17 19 32 34 31 30 39 46 49 49 49 49 52 52 52 53 52 51 51 52 52 53 53 54 54 54 56 56 54 50 47 44 54 55 54 55 55 53 53 53 52 49 45 45 42 39 37
22 18 16 16 26 36 34 33 37 46 50 46 47 44 47 51 52 52 52 51 50 51 51 50 53 53 53 53 55 54 51 46 45 45 53 55 56 55 56 54 55 53 50 48 46 45 43 41 39
19 17 20 23 29 35 37 36 33 42 49 47 45 46 48 50 51 52 52 51 50 50 51 51 52 51 51 51 51 51 49 49 49 53 56 56 56 57 56 55 55 52 50 49 48 45 45 40 37
19 17 16 22 27 32 35 37 31 34 46 46 43 45 49 47 52 51 51 51 49 49 49 51 50 49 49 46 47 47 48 51 52 53 57 58 57 58 57 56 55 51 50 49 47 46 40 38 39
21 18 14 16 26 26 35 36 34 38 45 42 41 44 48 47 49 50 51 50 49 46 46 47 47 47 49 46 45 45 51 51 51 52 57 58 59 59 57 56 53 51 51 51 48 44 40 38 37
20 18 13 16 23 23 23 37 39 42 43 44 39 39 44 47 48 49 51 50 48 46 45 44 45 50 48 49 47 51 55 50 50 53 55 58 57 54 57 56 54 52 52 51 49 44 40 38 41
17 15 15 17 19 18 20 18 40 39 39 42 39 39 40 48 48 49 51 50 48 49 49 50 50 53 51 51 52 54 53 51 48 50 57 58 58 56 57 57 55 54 53 52 49 46 43 41 38
17 17 22 22 21 20 17 20 21 37 38 38 39 41 41 45 48 47 49 52 51 50 50 53 53 54 52 52 54 54 52 51 49 52 56 57 58 58 58 57 56 54 53 51 49 46 44 45 45
18 22 21 23 22 19 18 21 22 33 35 36 39 41 41 40 45 48 48 50 52 52 52 52 53 54 54 54 54 54 53 49 47 49 57 57 58 58 58 57 56 54 49 49 48 47 46 48 47
19 19 18 18 19 18 29 25 23 22 26 27 37 38 40 41 41 45 47 49 50 51 52 52 51 51 52 52 53 53 53 51 48 49 54 57 57 58 58 56 54 51 49 48 49 49 47 46 46
18 19 18 15 17 21 29 22 24 29 29 26 37 37 38 40 40 42 45 47 49 50 51 52 52 52 52 52 53 53 54 53 51 53 55 57 57 58 57 53 51 50 51 50 49 48 46 46 45
17 18 20 20 31 25 28 29 31 27 25 26 27 34 34 36 40 40 42 45 47 49 50 52 53 52 52 53 53 54 53 54 56 56 57 56 58 56 54 51 49 49 49 49 47 46 46 45 45
18 21 19 22 20 21 26 27 25 25 22 22 21 28 32 35 39 40 41 43 44 46 49 51 51 52 52 52 53 55 56 55 57 56 54 55 56 55 53 52 51 50 48 47 46 45 46 45 45
19 18 21 25 26 23 20 21 27 28 24 19 16 22 27 31 35 38 41 41 44 45 46 49 51 53 54 54 53 54 57 57 57 58 58 58 54 53 52 52 51 48 46 46 45 45 45 43 44
20 19 20 24 24 25 27 24 27 24 24 21 21 20 26 34 35 36 38 39 41 44 47 49 52 55 51 52 55 56 58 58 58 58 57 56 52 52 53 52 50 47 45 45 44 44 44 42 43

GFSSGP_sfc_30mbdewp_042.txt.gz
Dewpoint
47 45 45 38 25 22 18 16 18 17 21 42 45 44 51 53 50 42 62 61 63 66 69 68 67 68 68 66 66 65 65 66 67 67 67 68 66 65 65 64 62 60 59 59 60 60 61 61 62
44 36 39 32 19 15 15 18 15 17 36 42 48 49 50 48 54 58 60 61 59 64 67 66 67 68 67 66 66 65 66 66 67 67 67 68 65 65 64 63 61 59 57 57 58 59 58 57 59
42 36 26 24 18 15 15 16 29 39 44 47 50 52 52 50 55 57 58 64 62 59 62 67 66 67 67 66 65 65 66 66 67 67 67 67 65 65 64 62 61 59 57 57 58 57 55 56 59
37 31 26 18 16 17 16 18 37 42 45 45 48 44 52 61 59 62 57 64 63 63 65 67 67 67 67 66 65 66 66 66 67 67 67 67 65 64 64 62 60 58 56 57 55 54 54 57 60
36 26 19 18 17 19 19 32 44 42 44 44 47 47 50 59 62 63 59 62 64 65 66 66 66 66 66 64 65 66 66 66 66 67 67 67 65 65 64 62 60 58 57 54 54 53 54 57 60
29 24 19 18 18 18 24 34 45 44 45 44 43 46 51 60 60 62 62 61 62 63 66 67 67 67 65 64 67 66 67 67 67 67 67 67 66 65 64 62 62 61 60 56 54 52 52 52 56
25 22 20 18 16 20 30 38 43 45 46 46 48 41 48 56 60 62 61 62 64 65 63 64 63 62 65 62 66 66 66 67 67 67 67 67 65 65 64 63 62 60 57 53 49 48 48 50 52
24 22 20 17 14 19 31 37 46 45 46 52 50 45 46 57 60 61 61 62 63 63 63 63 64 63 59 60 66 66 66 66 66 66 66 65 65 65 64 62 61 58 55 51 49 47 49 48 54
21 19 15 14 15 18 32 36 47 49 46 51 54 55 57 59 60 60 60 60 61 62 62 62 62 62 62 62 65 65 65 64 64 65 64 64 63 63 61 61 60 57 53 51 50 49 45 44 51
20 16 15 17 19 20 35 40 45 44 45 51 53 57 59 59 58 58 58 57 59 60 61 61 59 61 61 63 63 63 62 60 59 59 59 60 60 60 60 59 56 53 54 53 49 47 46 45 42
18 16 17 17 19 26 43 44 44 39 38 46 50 55 57 57 57 56 56 58 58 58 60 60 59 59 58 61 61 60 58 56 56 56 58 58 60 60 60 58 57 56 54 51 47 44 46 44 41
16 19 18 16 22 27 38 46 47 45 45 48 53 57 56 55 55 55 54 54 55 57 58 59 58 58 58 59 59 58 56 57 57 58 58 57 57 57 56 55 54 51 49 46 45 47 45 43 40
23 20 19 20 27 43 45 47 49 51 53 54 55 57 56 55 55 55 55 54 54 54 55 56 57 57 57 57 57 58 58 58 58 57 57 55 54 54 53 52 50 47 46 44 48 46 44 43 39
26 26 23 21 20 45 45 50 48 53 54 54 55 56 55 55 54 54 54 53 53 54 54 54 54 55 56 56 56 56 56 57 58 58 57 55 53 53 52 51 48 47 47 45 49 45 44 40 36
25 21 20 20 21 34 38 37 44 53 54 53 53 54 54 53 54 53 53 53 54 54 54 53 54 54 55 55 55 55 55 55 55 56 57 55 55 54 54 54 50 49 49 50 49 47 45 41 38
22 22 17 18 30 33 31 28 44 53 52 50 51 53 53 53 52 53 53 53 53 54 54 54 54 54 53 53 53 53 54 51 50 50 55 56 56 56 56 55 54 53 51 51 49 47 45 42 38
22 18 19 20 23 33 32 31 37 50 51 50 49 51 52 52 52 52 52 52 53 53 53 53 53 53 52 53 52 53 52 48 47 47 51 55 55 56 56 55 55 54 52 49 48 45 43 40 38
17 19 19 19 31 32 34 33 39 45 49 47 48 46 51 51 52 52 51 51 52 52 52 52 52 52 52 53 53 54 51 46 46 47 48 52 55 55 56 54 54 53 50 47 46 44 45 42 39
21 20 19 19 26 31 31 33 37 44 49 46 45 45 46 51 52 52 52 50 51 51 50 51 51 52 52 51 52 51 49 47 47 47 49 55 54 57 56 55 55 53 50 48 47 45 43 41 40
21 20 20 20 25 28 32 32 37 42 46 49 44 46 47 50 51 51 51 50 50 50 50 50 51 51 51 51 51 49 49 48 49 49 51 55 58 57 57 55 55 53 50 49 48 45 41 38 39
22 21 21 17 21 25 33 33 35 37 43 44 47 44 48 50 50 50 50 50 49 49 49 50 50 50 49 49 47 47 48 50 49 50 51 55 58 58 58 57 55 53 51 50 48 45 42 39 39
21 25 20 17 20 18 24 18 34 35 37 40 43 43 48 49 50 50 49 49 49 48 49 49 50 49 49 48 46 45 46 46 48 50 51 54 57 58 57 57 56 53 52 51 50 46 42 40 39
24 26 20 21 21 21 20 18 19 36 35 36 41 41 45 47 49 50 50 49 49 46 46 46 48 47 47 48 46 45 45 46 52 50 50 54 56 57 56 56 56 54 53 52 51 47 43 43 43
24 20 21 23 22 19 20 21 21 32 32 34 40 39 44 47 48 49 50 50 48 47 45 45 44 44 49 48 48 48 48 51 53 51 50 52 55 57 57 56 57 55 55 54 52 48 45 46 46
22 20 17 17 18 17 24 26 24 26 31 35 39 40 40 47 48 48 50 50 48 47 47 46 47 47 50 51 50 50 52 54 52 51 51 52 55 56 57 57 57 56 54 53 52 49 48 47 46
21 20 17 15 16 17 30 23 23 28 30 34 38 40 41 42 47 48 48 50 50 48 48 48 49 50 50 52 51 51 52 53 54 52 50 55 56 57 58 58 57 56 53 51 51 49 48 47 47
21 19 21 18 29 24 23 27 29 27 27 29 29 37 39 41 42 46 47 49 50 51 50 49 50 51 51 51 52 52 53 54 54 53 53 55 57 57 58 57 56 54 52 51 50 48 47 47 47
20 21 18 23 16 17 24 25 20 22 23 26 27 37 38 40 41 42 46 48 49 50 52 52 51 51 51 52 53 53 53 54 55 55 55 56 56 56 56 55 53 52 51 50 49 48 47 46 46
20 18 23 22 24 18 20 22 28 24 26 25 25 24 34 36 39 41 42 46 47 49 50 52 52 52 52 53 53 53 53 54 55 56 56 56 56 56 55 53 51 50 49 49 48 47 46 46 45
21 19 20 18 23 26 22 22 27 28 29 27 26 22 26 30 32 38 41 43 45 46 48 50 52 53 53 54 54 55 56 57 57 58 57 57 57 57 56 53 52 50 48 47 46 46 46 45 43

GFSSGP_sfc_30mbdewp_045.txt.gz
Dewpoint
51 51 45 35 23 22 20 17 19 24 19 45 49 51 52 53 51 40 61 62 66 67 68 67 67 67 66 66 66 67 67 67 68 67 66 67 66 65 64 62 63 63 63 61 61 61 61 61 63
43 40 35 27 18 14 13 18 23 42 44 46 50 51 48 49 55 58 59 60 62 67 67 67 67 66 65 64 66 67 67 67 68 67 66 66 65 64 62 61 63 63 62 60 60 60 61 62 62
40 32 25 23 17 15 15 17 30 40 44 48 49 52 52 50 55 56 58 60 61 63 66 65 67 65 64 64 64 67 67 67 67 66 66 65 64 63 61 60 62 62 61 59 56 54 56 62 63
36 30 25 20 17 18 18 18 36 40 41 45 47 43 55 58 56 60 58 64 62 61 63 66 66 65 64 63 63 66 67 66 67 66 65 65 64 63 61 60 61 62 59 55 54 59 60 62 61
34 25 18 17 17 19 19 26 40 42 42 43 47 43 51 60 61 62 61 63 62 62 60 64 66 64 64 63 63 66 67 66 67 65 65 64 63 63 61 60 61 60 57 54 58 62 62 61 60
27 23 19 16 17 19 19 33 42 43 43 43 43 47 54 60 60 62 62 61 64 64 64 64 64 64 64 62 62 66 66 66 66 65 65 64 63 63 61 61 60 58 56 56 58 61 60 59 58
24 22 19 19 18 17 27 38 42 44 45 45 48 43 53 57 60 61 61 62 64 64 65 64 63 64 62 59 60 62 66 65 66 65 65 65 64 63 62 60 57 56 55 54 54 55 59 58 58
24 22 20 19 14 14 32 37 46 45 42 52 49 45 48 56 60 61 61 62 63 63 63 63 63 64 62 63 61 62 65 66 66 66 66 65 64 62 61 59 57 55 54 55 54 55 58 59 57
22 19 17 16 15 17 33 37 47 48 47 52 54 56 56 59 60 60 60 61 61 62 61 62 63 63 59 58 59 61 65 67 67 66 65 64 63 61 58 58 55 53 51 51 52 52 58 58 57
21 18 16 16 17 18 32 39 45 45 44 49 52 56 58 59 58 58 58 58 59 59 59 60 60 60 58 57 60 59 64 63 64 64 62 62 60 59 57 55 54 55 53 50 51 49 50 51 54
19 18 18 18 18 21 40 44 44 39 38 44 47 54 57 57 57 56 57 58 58 59 58 59 59 59 59 59 60 59 59 60 61 61 60 59 59 59 58 57 55 54 50 46 44 46 42 44 48
17 18 19 20 19 35 41 45 45 44 42 46 50 55 56 56 56 55 55 56 57 58 58 59 60 59 58 58 58 59 59 59 59 59 58 58 58 57 56 53 53 50 47 44 45 45 42 40 45
20 23 25 24 24 36 45 45 47 49 51 53 54 56 55 55 55 55 54 55 56 57 57 58 58 57 59 58 59 58 57 57 58 58 57 57 56 55 54 52 49 48 45 44 47 44 42 39 42
25 25 24 23 35 46 44 47 49 51 54 53 55 55 55 55 54 54 54 53 54 56 57 58 57 56 58 58 57 57 58 57 57 56 55 55 54 53 52 50 47 46 43 48 46 44 42 39 39
25 21 21 20 26 37 45 41 45 51 53 52 54 54 54 53 54 54 54 53 54 54 55 56 57 57 58 57 57 57 57 57 56 56 55 53 53 53 51 50 47 46 44 49 47 45 42 37 37
21 22 18 20 31 34 31 25 38 53 53 52 53 53 52 51 51 53 53 54 54 54 54 55 56 56 56 56 56 55 55 55 55 56 55 54 53 53 52 50 48 48 48 48 48 46 43 39 36
22 14 18 19 22 31 32 29 36 53 53 51 51 52 52 51 52 52 53 53 54 54 54 54 55 56 55 54 54 54 52 51 52 54 56 55 54 54 53 53 51 51 50 51 49 47 44 41 37
13 17 19 19 21 33 33 31 37 52 52 49 49 50 51 51 51 51 52 53 53 53 54 54 54 54 54 54 54 54 53 49 48 50 54 55 55 55 55 55 55 53 52 50 49 46 44 42 39
20 19 18 19 21 23 27 32 33 46 50 48 48 47 49 50 52 52 50 51 52 52 52 53 53 54 54 53 52 52 51 49 47 47 49 51 54 56 56 55 55 54 52 50 49 46 43 41 40
21 20 19 21 21 24 26 31 35 42 48 48 45 46 45 50 51 51 51 50 51 51 51 51 52 52 52 52 50 51 49 49 47 48 49 51 53 54 56 55 55 54 51 49 47 45 42 41 40
23 22 20 20 21 29 31 28 34 37 44 48 48 46 45 47 50 51 50 50 50 50 50 51 51 51 51 51 51 49 49 49 47 47 48 50 54 55 56 56 55 54 52 50 48 46 42 40 39
21 23 22 23 21 17 27 20 22 34 37 42 46 47 45 47 50 51 51 50 49 50 50 50 51 51 50 50 49 48 47 46 45 45 47 49 53 55 57 57 56 55 53 51 49 48 44 41 39
22 24 24 24 22 20 20 18 18 36 35 37 40 44 46 47 49 50 50 50 50 49 49 50 50 50 50 49 48 47 47 47 47 48 49 50 51 55 57 57 57 56 54 52 51 49 47 44 42
24 25 23 24 23 19 19 18 19 24 25 32 37 40 43 46 49 50 50 50 50 49 49 49 50 50 49 49 48 47 46 46 46 48 49 50 52 54 56 56 57 56 55 53 53 52 49 46 45
25 22 18 17 17 17 21 24 22 23 28 31 33 37 41 46 48 49 49 49 49 48 48 48 48 48 48 49 48 48 46 46 46 48 50 51 51 53 55 56 56 56 56 55 54 52 50 48 46
23 22 19 15 15 15 27 22 23 27 27 29 34 35 40 44 47 48 49 50 49 48 46 46 46 47 47 48 48 48 48 47 47 48 51 52 52 53 55 56 57 57 57 55 54 53 51 50 48
23 21 22 19 27 22 20 25 28 28 28 28 31 38 40 42 47 48 49 50 50 48 47 45 45 45 45 46 49 48 48 48 49 50 52 53 53 55 56 57 57 58 58 56 54 53 51 49 48
22 23 19 22 16 17 21 25 20 21 20 24 27 31 38 41 44 47 48 49 50 49 47 47 45 44 44 45 46 50 50 50 50 53 54 54 53 56 56 57 57 56 55 54 54 52 50 48 48
20 20 22 21 22 16 14 17 27 22 24 26 26 28 35 39 42 44 47 48 50 51 49 47 47 46 46 48 49 50 51 51 53 54 54 55 55 56 56 56 55 55 54 51 50 49 48 47 47
22 21 21 19 19 26 20 18 26 27 28 30 29 28 26 37 39 42 43 47 48 49 51 50 49 48 49 51 51 52 53 54 54 55 56 56 56 57 56 55 55 52 51 50 49 48 47 47 46

GFSSGP_sfc_30mbdewp_048.txt.gz
Dewpoint
51 52 44 31 19 20 18 18 20 21 28 50 53 50 49 51 44 34 61 62 66 67 67 66 68 68 67 66 67 67 66 67 67 67 67 66 66 65 64 64 64 63 62 61 61 61 61 61 60
42 42 33 25 16 13 14 18 16 34 43 46 49 51 49 49 56 58 59 61 64 67 66 66 67 67 67 67 67 67 68 68 67 67 66 66 65 64 65 64 64 63 62 61 61 62 62 61 62
39 31 24 20 17 14 15 17 17 36 43 47 48 51 52 49 54 57 58 61 64 67 66 67 66 65 66 67 67 67 68 67 67 67 66 65 64 64 64 64 64 63 62 61 61 62 62 62 62
36 29 23 20 16 17 17 18 19 37 41 44 46 42 54 58 56 60 58 63 63 64 65 67 65 65 64 64 66 67 67 67 67 66 65 64 63 64 64 63 63 61 58 56 57 61 63 62 61
30 23 18 17 18 19 19 19 29 38 42 42 46 43 49 58 61 62 61 63 62 62 64 66 65 63 63 63 64 65 66 67 66 65 65 64 63 63 63 63 61 58 58 59 62 62 62 61 60
25 23 19 15 17 19 20 26 41 41 43 43 42 46 53 59 59 61 62 61 63 61 62 65 65 64 63 61 60 62 63 66 65 65 64 63 62 62 63 61 59 60 63 63 63 62 61 60 59
23 21 18 19 18 17 23 39 39 42 43 44 48 42 51 56 59 61 61 61 64 64 62 62 63 64 63 61 60 61 62 65 65 65 64 63 63 62 61 59 58 60 63 62 61 60 59 59 58
25 22 20 19 16 14 22 38 46 44 40 52 48 43 46 55 60 61 61 62 63 63 64 62 63 63 61 60 57 58 60 60 65 65 65 64 63 61 58 57 57 57 59 60 60 59 59 58 58
23 19 17 17 15 15 34 35 45 48 47 51 54 55 55 56 60 60 60 61 61 61 62 63 63 60 59 57 59 59 57 62 65 65 64 63 61 59 56 56 57 55 56 58 60 60 59 58 58
21 19 17 18 16 17 25 34 40 44 44 48 53 55 57 58 59 58 58 58 58 59 60 62 62 61 59 59 57 56 57 61 64 64 63 61 59 56 55 56 55 54 55 58 60 60 58 57 56
20 19 19 18 19 19 22 40 46 42 38 42 47 53 56 57 57 57 57 58 58 58 59 59 59 58 59 60 58 58 59 58 61 62 61 59 57 58 57 56 54 53 51 50 52 52 51 53 53
18 18 18 20 21 25 33 44 43 41 41 45 49 55 55 55 56 56 56 57 57 57 58 58 57 56 57 59 59 58 59 58 59 61 59 58 58 55 54 51 49 46 46 45 44 46 48 49 50
17 20 24 24 24 26 43 42 44 46 50 52 54 55 55 54 55 56 56 57 58 57 58 58 57 56 55 56 58 58 58 58 59 59 58 57 56 54 52 50 47 45 46 45 42 41 44 47 48
24 24 24 23 22 45 40 46 49 48 53 52 55 53 54 54 54 54 54 55 56 57 57 59 58 57 57 56 57 57 58 59 59 58 57 56 54 53 50 49 46 44 46 46 43 40 41 44 45
25 22 21 20 21 36 45 40 41 49 52 51 53 52 53 54 54 53 54 54 55 56 58 57 58 58 57 57 57 58 58 57 58 57 56 55 54 52 50 48 45 44 47 46 44 42 39 41 41
22 21 17 20 30 33 39 21 32 51 51 50 52 51 51 52 51 54 54 54 54 55 56 57 58 58 58 58 57 57 57 56 57 56 55 54 53 52 50 48 46 45 48 47 45 43 39 37 38
21 15 16 17 22 31 32 27 37 52 51 50 51 51 50 50 50 52 53 54 54 54 55 56 57 57 57 57 56 55 55 56 55 56 55 53 53 52 50 48 48 47 47 49 46 45 42 38 36
16 17 19 17 22 30 31 29 34 50 51 50 50 51 51 50 50 51 53 53 54 54 54 55 56 56 56 56 55 54 52 50 53 55 55 54 53 53 52 51 50 49 49 50 48 45 44 42 38
18 19 18 18 20 20 20 22 23 45 51 51 49 48 49 51 51 51 51 53 53 54 54 54 55 56 55 55 53 53 52 49 48 50 54 55 54 55 54 54 54 53 51 50 49 46 44 42 39
20 19 17 18 21 21 22 24 30 39 45 50 49 48 47 49 51 51 50 52 52 52 53 53 54 54 55 55 55 52 53 50 48 48 50 54 55 56 56 55 55 54 53 51 49 47 44 42 40
22 20 18 16 21 24 28 25 29 35 41 47 49 48 47 47 50 50 50 50 51 51 52 52 53 53 54 54 54 50 50 49 48 48 48 50 52 54 55 55 55 54 53 51 49 47 44 43 41
19 23 21 21 21 20 27 19 21 25 33 40 44 48 47 45 49 51 50 49 49 50 51 52 52 53 52 52 51 49 49 49 48 46 47 48 50 51 53 55 55 55 53 52 50 48 44 42 41
20 23 22 23 23 22 21 22 20 32 25 29 36 43 48 46 47 50 51 50 50 50 51 51 51 52 52 51 50 49 49 48 47 46 46 47 49 51 52 54 55 55 54 53 52 50 46 44 43
25 24 25 25 24 20 21 19 19 21 23 24 30 38 43 47 47 49 51 51 50 50 50 50 50 51 51 50 50 49 48 48 47 47 46 47 49 51 52 54 55 55 55 54 53 52 50 49 47
24 22 20 18 19 19 21 20 20 21 22 26 25 31 39 45 47 49 50 50 50 49 49 50 50 50 50 50 49 49 48 48 47 47 47 47 48 49 52 54 54 55 55 55 54 53 52 51 49
24 23 20 17 16 16 25 20 21 26 26 26 31 33 36 41 46 48 50 49 50 49 49 49 49 49 50 50 49 49 48 47 47 47 47 48 50 51 52 53 54 54 55 55 54 54 53 52 51
25 22 23 20 25 21 20 24 26 27 27 28 28 29 32 40 45 47 49 49 49 49 48 48 48 49 49 49 49 49 48 48 47 47 48 50 52 52 53 54 54 54 55 55 55 54 54 53 53
24 24 21 22 17 17 20 24 18 22 24 25 23 25 31 40 44 47 48 49 50 49 48 48 48 47 48 48 48 48 49 49 49 49 49 50 52 53 53 54 55 55 56 56 56 56 55 54 53
22 22 22 22 21 17 16 17 26 21 22 23 26 27 28 36 41 45 48 49 50 50 48 47 47 47 47 47 48 48 49 49 50 49 50 52 53 53 54 54 55 56 56 56 55 55 53 51 51
22 21 22 20 19 25 21 18 23 26 26 29 28 29 30 33 38 42 46 48 49 50 49 48 47 46 46 46 47 48 49 51 50 50 50 51 51 54 54 55 55 55 56 53 53 52 51 50 49

GFSSGP_sfc_30mbdewp_051.txt.gz
Dewpoint
51 50 42 30 20 19 17 18 21 18 34 46 52 51 45 51 47 37 61 62 64 60 64 65 68 68 68 69 69 69 69 69 68 68 68 68 67 66 65 64 64 63 62 60 59 59 59 61 61
44 41 32 24 16 15 17 18 18 19 41 45 47 50 49 45 56 58 60 62 64 63 66 66 67 67 68 68 68 68 68 68 68 68 67 67 66 65 65 64 64 63 62 59 59 59 60 61 62
37 30 26 20 17 15 17 17 18 22 42 46 47 50 52 49 54 57 59 62 64 66 66 66 68 67 68 68 67 68 68 68 67 67 67 66 65 65 65 64 64 62 61 61 60 61 61 62 62
34 29 24 20 16 18 18 19 19 25 40 43 46 43 52 58 56 61 61 63 64 66 66 67 67 67 68 68 68 68 67 67 67 66 66 65 65 65 65 64 63 62 63 62 61 61 62 62 61
29 24 19 18 18 20 20 20 20 32 41 42 47 42 47 59 61 62 62 62 62 65 66 65 66 66 68 68 68 68 67 67 66 66 65 65 65 65 64 64 63 63 62 62 62 61 61 61 60
26 24 19 16 18 19 21 21 37 39 42 43 42 43 49 59 58 60 62 62 64 63 66 65 64 64 65 66 67 67 67 66 66 65 64 65 65 64 64 62 60 60 62 64 63 62 61 60 59
24 23 18 19 19 18 20 38 38 40 43 43 47 41 48 55 59 60 61 62 64 63 63 65 64 63 62 63 64 65 65 65 65 64 63 64 64 64 62 61 63 63 64 63 62 61 60 59 58
25 23 20 20 17 15 19 38 43 43 40 52 48 42 45 55 59 61 61 62 63 64 63 63 63 64 62 60 61 63 63 62 62 64 63 63 63 62 61 63 65 64 64 62 61 60 60 59 58
24 20 17 18 17 16 27 31 43 47 46 50 53 54 54 57 60 59 60 61 61 61 63 63 63 63 62 61 59 61 61 61 61 64 63 62 60 57 56 59 63 63 62 61 60 60 59 59 58
22 20 18 19 17 18 20 31 34 43 44 46 52 54 56 56 58 58 58 58 59 60 62 63 63 62 61 60 59 60 61 60 60 63 62 60 58 55 54 58 60 61 61 60 60 59 59 55 53
22 20 20 19 19 19 20 29 43 43 38 43 47 51 55 55 57 57 58 58 58 59 60 61 61 60 59 58 58 57 60 60 60 62 60 58 55 55 54 54 55 57 59 58 57 56 52 52 51
20 20 20 19 21 23 23 41 42 43 41 45 48 53 55 54 56 57 57 57 57 58 58 59 60 60 59 59 58 59 60 60 59 61 58 55 54 54 54 51 50 51 54 57 55 53 53 53 52
19 18 20 22 24 25 40 39 42 44 48 51 54 55 54 54 54 56 57 58 57 57 57 57 58 58 59 57 59 59 59 59 59 60 56 54 53 52 49 49 46 46 50 51 51 52 51 51 51
22 20 24 25 23 37 36 42 49 46 52 52 54 53 53 53 54 54 55 56 57 57 57 57 56 57 58 57 58 59 58 58 60 59 57 56 54 52 48 47 46 46 46 48 49 49 50 49 50
25 23 23 22 21 31 45 38 41 48 51 51 53 51 52 54 54 53 54 55 56 57 58 56 57 56 57 57 57 58 58 58 59 58 58 55 54 52 49 47 45 47 47 45 44 46 48 48 48
23 22 19 20 29 37 37 20 29 49 50 49 51 51 50 52 52 51 53 54 55 56 58 57 57 56 57 58 57 58 59 58 58 58 57 55 53 52 50 47 46 48 48 46 43 42 44 45 45
22 16 17 17 23 35 33 25 33 51 50 49 50 50 50 50 51 51 53 54 55 56 57 57 58 56 57 58 58 58 58 57 56 57 56 55 53 51 49 47 47 49 49 48 45 43 41 42 42
16 18 19 16 23 32 30 28 32 48 50 48 49 51 50 50 50 50 53 53 54 55 56 57 57 57 57 57 57 57 56 55 56 57 56 54 52 52 51 49 49 48 50 49 47 44 44 41 39
19 17 17 19 20 20 21 22 24 34 49 49 49 49 50 50 51 51 51 53 53 55 55 56 56 56 56 56 55 54 54 54 55 56 55 55 53 53 53 51 51 49 48 50 50 47 45 43 41
20 18 18 19 21 21 21 22 27 35 44 48 49 49 49 50 51 51 51 52 53 54 54 55 56 56 56 56 56 55 54 52 53 54 56 55 54 54 54 54 53 52 51 51 52 49 46 45 42
22 21 20 18 21 23 26 24 22 30 39 45 49 49 50 49 50 51 50 50 52 53 54 54 55 55 56 56 56 54 51 50 49 51 53 54 56 53 54 56 56 56 55 51 52 51 49 46 45
21 23 22 20 19 12 26 19 23 23 26 34 39 48 49 49 49 51 51 50 51 52 53 53 54 55 55 56 54 53 51 50 48 48 51 51 53 55 56 57 57 56 56 55 54 53 51 50 47
20 23 22 22 21 22 23 21 22 25 24 25 28 39 46 48 49 50 51 50 50 51 52 53 53 54 55 54 54 52 52 51 50 48 48 49 50 52 53 55 56 56 56 56 56 54 52 51 50
24 22 25 26 25 22 23 21 19 19 21 23 26 31 40 47 47 49 51 51 50 50 51 52 52 53 53 54 53 52 51 49 48 48 47 48 48 50 52 52 54 55 56 56 56 56 54 52 50
24 22 18 19 21 20 23 21 20 22 23 24 24 25 35 45 47 48 50 50 50 50 49 51 51 51 53 52 52 52 51 51 50 49 49 48 49 50 51 52 54 54 55 56 57 56 55 54 53
24 22 19 14 18 17 23 20 19 26 26 27 28 31 34 40 46 48 49 50 50 50 50 51 51 51 52 52 51 51 51 51 50 50 49 50 50 50 51 52 53 53 54 55 56 56 56 56 55
25 22 24 22 24 21 22 22 23 24 26 28 28 30 30 33 42 46 49 50 50 50 50 51 51 51 51 51 52 51 51 50 50 50 50 50 50 50 51 52 52 54 54 55 55 55 55 55 55
24 26 22 23 16 16 19 21 18 21 21 24 27 27 27 31 40 45 48 50 51 50 50 50 51 50 51 51 52 51 51 51 51 51 50 50 50 51 51 52 53 53 54 55 55 56 56 56 55
24 23 23 24 23 17 16 19 26 22 24 24 25 27 30 31 37 45 47 49 50 50 50 50 50 50 50 51 52 51 51 51 51 50 50 50 50 50 50 51 52 53 54 55 56 56 56 55 55
22 23 24 22 20 24 23 20 24 27 29 28 27 30 31 31 33 41 46 49 50 50 50 49 49 49 50 50 51 51 51 51 51 50 50 51 50 50 51 51 52 53 54 55 56 56 55 54 53

GFSSGP_sfc_30mbdewp_054.txt.gz
Dewpoint
47 43 41 33 21 16 13 15 19 18 24 34 46 45 38 41 39 36 60 64 65 62 64 65 69 69 71 70 70 70 70 69 68 68 69 69 69 68 68 67 66 65 64 62 60 59 60 61 62
40 39 34 24 15 8 13 19 18 20 26 41 45 44 44 40 51 55 58 63 65 61 63 62 69 69 70 70 70 70 70 69 68 69 68 68 67 66 66 65 64 63 62 60 60 60 59 60 62
36 33 24 18 13 8 12 18 20 22 28 39 40 46 46 44 53 57 60 62 65 62 61 60 68 69 68 70 70 70 69 68 68 68 68 67 66 66 65 64 63 62 61 59 59 60 61 62 62
29 27 25 16 11 15 15 19 20 20 31 37 38 38 47 53 54 59 60 61 65 66 62 64 67 68 68 69 69 69 69 68 67 67 66 66 66 65 65 63 63 63 62 59 60 61 62 62 61
31 23 13 14 13 18 20 21 21 21 31 37 41 36 42 54 58 60 61 60 63 65 64 64 67 67 65 64 69 68 68 68 67 66 66 66 66 65 65 63 63 63 63 60 60 61 61 61 60
22 22 10 5 13 19 21 23 23 28 31 36 39 39 41 56 56 59 61 61 64 64 65 64 66 65 63 64 66 68 67 66 66 66 66 66 66 65 64 64 64 63 63 62 62 62 61 60 59
20 16 8 10 14 18 20 30 28 27 32 33 43 39 42 51 56 59 60 62 63 64 64 65 64 62 62 62 66 66 66 65 65 66 66 65 65 65 64 63 63 64 64 63 62 61 60 59 59
22 17 10 9 15 16 19 28 30 33 26 48 45 37 38 52 56 59 60 60 62 63 63 64 63 63 61 62 63 64 65 65 64 65 65 65 64 63 63 63 64 65 64 62 62 61 60 59 59
24 13 9 7 17 15 21 24 29 40 35 46 47 46 51 54 56 57 57 60 61 63 63 63 62 61 62 63 63 62 62 63 63 64 64 63 61 60 59 59 65 64 63 61 61 60 60 59 58
18 13 11 12 18 18 20 21 21 32 32 39 45 51 53 53 54 55 55 57 59 61 62 63 61 62 61 61 61 62 63 62 62 61 60 61 60 58 54 63 64 63 62 61 61 60 59 54 50
18 14 13 16 18 21 21 22 25 29 28 33 39 46 52 52 52 54 55 57 58 60 61 62 63 62 61 60 60 61 62 61 61 60 58 60 58 54 59 62 61 60 58 54 56 55 50 47 47
15 16 13 15 20 23 23 25 29 32 32 42 44 46 50 50 52 55 56 58 59 59 60 62 63 63 62 61 61 61 61 60 61 60 59 59 55 55 55 56 56 55 54 53 52 50 49 49 47
19 15 18 19 20 23 24 27 29 32 39 45 49 50 50 51 53 54 57 58 58 58 60 61 61 60 60 59 59 61 60 60 61 60 57 56 54 53 51 52 53 53 53 53 51 50 50 48 47
17 17 17 19 21 22 27 23 41 31 44 47 50 50 52 52 53 53 56 57 57 58 58 58 59 60 60 58 59 60 60 60 60 58 55 53 53 52 48 48 47 48 52 51 49 48 47 45 46
17 19 19 20 20 19 28 23 34 32 46 46 48 49 50 52 52 52 53 56 57 57 57 58 58 58 58 58 59 59 59 59 59 55 54 51 52 51 49 44 43 45 46 47 46 47 45 44 44
18 19 15 15 17 22 31 17 20 37 44 43 46 47 49 49 50 49 52 54 56 58 57 57 57 58 57 58 58 58 59 59 59 57 55 53 50 50 48 44 43 44 45 44 45 46 45 43 43
19 14 15 15 18 21 31 20 25 39 42 39 44 46 46 47 50 50 51 53 55 57 58 57 56 57 57 58 58 57 58 58 58 57 53 52 49 48 45 44 45 48 45 44 44 43 42 42 41
14 15 13 13 15 22 23 24 22 31 39 41 41 45 45 47 47 49 52 52 54 56 58 57 56 57 57 57 58 58 57 57 57 56 54 52 50 50 47 44 47 49 46 47 45 43 42 40 39
14 14 11 9 15 18 17 18 19 24 33 39 41 44 45 45 47 49 51 52 54 55 57 57 56 56 57 56 56 56 55 54 55 54 55 56 51 50 48 45 49 48 48 47 48 46 44 41 41
15 14 12 12 18 16 12 16 18 24 30 36 39 42 45 45 47 49 51 52 53 54 55 57 56 56 56 56 56 56 55 53 54 53 54 55 55 51 50 48 48 47 48 51 51 49 47 44 43
17 14 15 14 17 18 17 16 17 21 30 36 39 41 43 45 46 48 50 51 53 53 54 56 56 56 56 56 57 56 56 55 53 52 53 54 55 51 50 51 49 49 48 50 52 52 50 47 47
16 18 19 17 17 8 18 12 14 19 19 28 32 41 42 45 46 47 49 50 51 52 54 55 56 56 56 57 55 54 53 52 53 52 51 52 54 53 51 52 52 53 51 50 51 52 52 51 48
17 19 21 19 18 14 14 14 12 16 19 17 18 30 40 43 46 47 49 50 51 51 53 53 55 56 56 56 55 54 53 52 52 52 52 54 54 53 52 52 54 55 55 55 55 54 55 53 53
21 21 21 22 17 15 13 13 10 11 18 17 17 22 33 41 45 47 49 50 50 51 52 53 54 55 55 55 55 54 53 51 51 51 51 53 53 55 55 54 56 56 56 56 56 56 56 56 54
20 19 16 15 14 13 16 17 14 19 20 19 19 19 31 38 43 46 48 49 49 51 51 52 52 53 55 55 55 54 53 53 52 50 50 49 51 51 52 54 53 54 55 55 55 56 56 56 55
21 19 14 11 13 13 21 18 18 21 23 24 21 24 29 37 43 44 47 49 50 51 51 51 51 51 53 55 55 55 54 53 52 51 49 48 48 49 51 51 52 52 52 52 53 53 54 54 55
22 21 21 17 23 20 19 20 21 20 20 22 23 25 26 32 40 42 45 48 50 50 51 51 50 50 51 53 55 55 54 54 52 51 51 50 49 49 50 51 51 50 50 51 52 52 52 53 54
25 23 21 21 15 14 14 17 17 19 19 20 20 23 23 25 31 37 43 47 49 50 51 52 51 49 50 52 53 53 54 54 54 53 52 51 52 52 51 52 53 52 52 52 52 53 52 52 54
24 23 22 21 19 15 13 16 21 22 26 27 25 23 25 28 32 38 42 46 49 50 51 52 52 50 49 51 52 52 53 53 54 54 53 53 53 52 52 52 52 52 52 52 52 53 53 53 54
23 21 22 18 19 21 23 18 24 26 25 25 26 26 27 29 31 34 43 46 48 49 50 51 51 50 50 50 51 53 53 53 53 53 53 54 53 53 53 52 52 51 51 51 51 52 52 52 53

GFSSGP_sfc_30mbdewp_057.txt.gz
Dewpoint
45 40 39 31 23 15 11 11 13 12 15 25 32 31 32 33 29 34 58 62 64 62 63 65 68 70 70 70 70 70 70 70 69 68 68 69 68 68 68 67 66 66 64 62 62 64 63 63 64
36 33 33 27 14 10 8 14 13 15 19 29 31 33 30 32 41 45 54 61 62 60 64 62 68 69 70 70 69 69 69 69 69 68 69 68 67 67 67 66 66 65 63 60 60 62 63 62 62
43 30 25 17 14 8 8 16 15 17 21 26 28 37 37 33 46 51 59 62 63 62 63 63 66 69 69 70 70 70 69 69 69 69 69 68 67 67 66 65 65 64 62 59 59 61 62 62 63
29 23 21 13 8 10 12 13 17 16 20 28 30 30 39 48 51 56 60 60 63 64 60 65 65 68 69 69 70 70 69 68 67 67 68 68 67 66 65 64 63 62 61 60 61 61 62 62 61
26 22 17 13 12 11 16 13 18 17 20 28 32 32 35 50 54 57 59 60 61 65 62 66 66 67 68 68 69 68 68 67 67 68 67 67 66 65 64 63 62 62 62 61 61 62 61 61 60
21 17 12 8 5 11 16 17 18 19 22 26 32 32 33 54 53 57 60 60 61 64 66 65 66 65 65 66 65 66 66 66 67 67 67 66 65 64 64 64 64 63 62 63 62 62 61 60 59
20 17 14 9 7 11 17 22 20 21 23 25 37 30 33 47 52 56 58 61 61 64 66 66 65 64 64 63 65 65 67 67 67 66 66 65 65 63 64 64 64 63 63 63 62 62 61 60 59
21 16 13 10 7 10 17 21 21 23 22 40 35 27 30 51 55 56 57 57 57 63 65 66 65 64 62 63 63 64 65 64 66 66 66 66 65 64 64 64 64 63 63 63 62 61 60 59 58
21 16 12 8 8 11 17 18 18 26 26 32 38 40 44 52 53 54 54 56 57 61 64 64 64 64 63 62 64 64 65 62 64 66 65 64 62 62 62 62 65 63 63 62 61 61 60 59 57
19 12 11 11 8 14 15 18 17 19 23 27 32 39 49 52 50 50 51 54 58 59 62 63 63 62 62 63 63 64 63 63 62 62 62 61 61 61 58 63 64 63 62 61 61 60 58 53 48
17 13 13 12 12 15 16 17 18 18 19 25 29 34 46 50 48 51 50 54 56 59 61 63 62 61 61 62 63 63 64 63 62 60 58 59 61 59 60 63 63 59 58 56 55 55 49 45 45
15 15 13 11 13 16 17 19 19 21 23 34 37 41 45 46 48 51 51 54 57 58 60 62 61 60 61 61 61 62 62 62 61 60 59 60 58 59 61 60 59 56 53 52 50 49 48 47 46
13 14 13 12 11 16 20 20 20 20 24 37 40 45 44 44 47 50 53 56 58 58 59 61 62 62 61 60 61 61 62 61 60 60 60 60 56 58 59 58 58 54 53 51 49 48 48 47 47
12 17 15 14 14 15 19 20 20 23 27 37 41 45 45 45 46 48 53 55 57 58 59 60 61 61 61 60 60 60 61 60 60 58 58 59 57 56 56 56 55 52 52 50 48 48 47 45 47
16 15 16 14 15 15 18 17 18 19 27 35 40 44 45 47 47 47 49 54 57 57 58 58 60 60 59 59 60 61 61 60 58 58 59 58 55 55 54 54 52 51 51 49 48 48 45 43 45
18 16 13 15 15 16 16 15 17 23 32 32 38 41 45 45 45 46 48 51 56 58 57 58 59 59 59 59 59 60 60 60 58 59 59 55 54 53 52 49 48 48 49 48 46 45 43 43 43
20 15 15 17 16 15 17 18 17 28 32 29 34 40 43 45 45 45 47 50 55 57 57 57 58 58 58 59 59 59 59 59 59 58 55 54 53 51 49 46 47 47 46 45 44 45 43 42 42
16 16 17 15 16 16 12 18 19 24 28 30 32 36 41 43 44 46 48 49 53 57 57 57 57 57 58 58 58 58 58 58 59 56 54 52 50 50 50 48 49 47 44 43 44 45 44 42 41
17 17 15 16 14 14 15 13 17 19 19 24 33 34 39 41 44 45 50 49 52 55 57 57 57 57 57 56 56 56 56 57 57 57 52 53 50 50 50 48 52 51 47 45 47 44 43 41 41
15 16 15 16 13 15 12 9 12 15 19 22 29 34 37 41 43 46 49 50 52 54 56 57 56 57 56 56 56 55 55 56 56 56 57 53 52 50 50 49 50 52 48 49 50 48 44 41 41
17 16 16 15 14 18 13 10 12 14 17 21 27 29 32 39 42 45 48 51 52 53 55 57 56 56 56 56 57 56 55 55 54 53 54 55 55 51 50 51 51 51 51 52 53 52 49 45 45
19 18 17 16 15 14 13 8 11 13 15 21 24 25 30 35 41 44 47 50 51 52 54 56 56 56 56 57 56 55 54 52 52 52 51 50 54 54 51 51 52 52 51 51 54 53 52 50 47
19 19 18 18 17 16 15 12 14 14 14 16 18 22 28 34 40 43 46 49 51 51 54 55 56 56 56 56 56 55 54 53 51 51 51 51 54 56 54 52 53 53 53 53 53 54 55 53 51
18 18 18 20 18 16 17 13 12 13 12 17 16 16 22 33 38 42 45 48 50 50 52 55 56 56 56 56 55 55 54 53 52 52 52 52 53 55 55 52 53 55 56 56 55 55 55 56 53
18 18 16 16 16 16 17 15 14 15 18 18 17 17 21 28 34 41 44 46 48 50 51 53 54 55 56 56 55 55 54 54 53 52 51 51 53 54 55 55 53 55 57 57 56 57 57 57 56
18 18 16 13 17 16 17 15 13 19 20 20 20 19 21 28 35 40 44 46 47 50 51 51 52 52 55 56 55 55 55 54 53 53 52 52 52 53 55 55 55 56 57 57 56 56 56 55 56
20 18 17 17 21 21 16 18 20 21 19 19 19 19 21 26 34 38 41 45 48 49 51 51 50 51 53 55 55 55 55 54 53 53 53 52 52 52 54 55 56 56 56 56 56 56 55 55 56
20 21 16 19 17 17 17 20 21 18 18 21 20 20 21 23 28 34 39 42 47 49 50 52 50 49 50 53 55 55 55 54 54 53 53 53 52 52 52 54 54 54 54 55 55 54 54 54 54
20 21 23 20 19 17 17 17 20 24 26 26 26 23 27 28 29 31 34 39 45 48 49 52 51 48 48 51 53 55 55 56 56 55 55 54 54 53 51 51 52 52 52 53 53 52 52 52 53
22 21 25 21 23 20 23 21 25 25 24 25 25 25 26 26 27 30 35 40 43 47 49 51 52 50 48 49 52 54 56 56 56 56 56 56 54 54 53 51 51 51 51 52 52 52 51 52 52

GFSSGP_sfc_30mbdewp_060.txt.gz
Dewpoint
46 39 37 37 25 21 15 13 13 11 12 21 28 28 29 27 27 39 58 62 63 62 67 68 71 71 71 70 70 70 70 70 69 69 69 69 68 68 68 68 67 66 66 65 65 64 64 65 65
35 31 33 28 23 17 11 14 14 13 20 26 26 27 26 29 43 46 58 61 61 60 66 66 69 71 71 70 70 70 70 69 69 69 69 68 68 68 67 67 66 65 65 64 64 64 64 64 65
41 38 25 24 19 16 12 14 14 16 19 21 22 27 35 33 46 49 59 62 62 62 64 64 67 69 70 70 70 69 69 69 68 69 69 68 68 67 66 66 65 64 63 63 63 63 63 63 62
35 30 23 18 15 14 11 11 15 16 17 22 27 27 37 44 46 55 59 59 62 63 63 66 66 67 69 69 69 68 68 68 68 68 68 68 68 67 66 65 64 63 62 61 62 63 62 62 61
30 21 18 17 15 14 12 15 14 16 16 19 27 29 33 50 55 56 58 59 60 63 66 66 65 66 68 68 67 68 68 68 68 68 68 67 67 66 65 64 64 63 62 62 62 62 61 61 59
23 21 17 14 11 10 10 16 16 16 18 19 24 30 35 52 52 57 60 60 61 63 65 67 65 65 64 67 67 66 65 66 67 68 67 67 66 65 64 63 63 64 64 63 63 62 61 60 58
23 18 16 13 12 12 11 18 18 17 18 22 35 31 30 49 53 55 58 61 62 63 64 66 66 66 64 64 64 65 64 61 66 67 67 66 65 64 64 64 64 64 64 63 62 62 61 59 56
20 19 17 15 13 12 10 20 21 19 19 33 34 24 29 53 55 57 57 57 58 63 65 66 65 65 64 63 64 62 62 58 58 66 66 65 64 64 65 64 64 64 63 63 62 61 60 57 55
19 17 16 15 13 10 17 18 20 17 23 23 31 35 46 52 52 53 52 55 56 60 65 65 65 65 64 64 64 63 63 58 64 65 65 63 63 63 64 63 64 63 63 62 62 61 59 56 53
18 18 17 16 13 10 13 17 17 15 20 24 25 33 48 51 50 48 48 54 56 58 62 64 64 63 64 64 64 62 61 60 64 63 63 62 63 62 62 62 64 63 62 62 61 60 57 53 52
18 17 17 14 13 12 12 14 16 16 16 18 33 30 48 50 48 50 49 52 55 58 61 63 63 63 63 63 63 63 63 63 64 63 63 63 62 62 62 63 62 62 61 60 59 57 51 48 49
16 16 18 15 14 12 12 15 16 17 19 22 32 35 38 46 47 49 50 53 56 58 59 62 63 62 62 63 63 62 61 63 62 60 60 61 60 61 61 61 59 57 56 55 54 52 51 47 48
16 15 15 16 14 12 12 15 17 18 20 24 35 39 41 43 42 49 51 56 57 57 60 62 62 60 61 62 63 62 62 61 61 59 59 60 59 59 60 60 57 54 54 53 51 51 50 50 48
16 13 13 13 14 14 10 13 17 18 19 22 34 39 42 44 42 45 51 54 57 58 60 61 62 62 61 61 61 61 62 61 59 58 58 60 59 59 58 60 56 54 53 53 50 52 50 50 50
15 12 13 15 17 14 15 13 15 18 18 20 32 38 42 45 43 43 49 53 58 58 59 60 60 61 61 60 61 61 61 60 59 58 58 59 59 57 59 58 56 54 53 53 51 51 49 49 50
16 17 14 15 16 15 15 14 16 17 19 21 30 37 42 43 45 44 47 52 57 58 58 59 60 60 60 60 60 61 61 60 58 58 57 58 58 57 58 57 56 54 53 53 52 49 48 48 49
19 16 16 16 16 15 15 15 16 17 25 28 27 32 40 43 44 44 46 51 56 57 58 58 59 59 59 59 60 60 61 60 57 57 56 57 57 56 56 56 56 54 53 52 50 49 47 47 48
17 17 18 17 17 18 15 15 16 21 25 29 28 27 37 42 44 44 45 49 56 57 57 58 58 58 59 59 59 59 59 58 57 57 56 58 56 53 54 51 52 50 50 50 49 48 48 47 46
20 17 17 18 19 16 16 16 14 15 18 24 27 30 32 40 43 46 47 48 56 57 57 57 57 58 57 57 57 57 56 57 57 57 57 55 53 51 51 50 50 49 47 46 49 49 47 47 46
21 20 18 18 17 15 14 14 13 12 16 18 21 29 33 37 42 45 49 49 53 57 57 57 57 57 57 57 56 56 56 57 57 57 54 52 52 51 50 51 49 49 52 50 49 46 47 47 47
18 19 18 17 18 17 15 16 16 12 12 15 21 23 31 35 41 45 49 50 52 55 57 57 56 57 56 56 56 56 56 56 55 55 54 52 51 50 50 51 52 51 53 50 50 49 49 45 45
16 18 16 17 17 15 16 13 14 13 13 14 18 23 27 30 40 45 48 51 51 53 57 57 56 56 56 56 55 55 54 53 51 54 55 53 55 51 50 52 52 51 51 53 54 53 53 50 46
20 22 21 20 18 18 16 15 15 14 14 14 18 23 26 29 37 44 47 50 52 53 55 56 56 56 56 56 55 55 54 53 50 53 54 53 54 56 52 52 53 52 51 52 54 55 54 54 53
21 21 22 21 20 18 18 17 16 15 14 14 16 19 25 28 33 41 47 49 52 52 55 56 56 55 56 56 56 55 54 53 50 51 50 50 52 56 56 53 53 54 55 53 54 55 56 55 55
21 19 17 18 19 19 19 17 18 18 16 18 17 17 19 30 34 40 46 48 50 52 54 55 55 55 56 55 55 55 55 54 52 51 50 49 49 52 56 55 54 55 55 55 56 56 56 57 55
21 21 18 19 20 18 18 16 17 19 17 20 21 20 24 29 34 37 43 47 49 51 55 54 54 54 55 56 55 55 55 54 53 51 50 50 49 51 53 55 54 55 55 55 57 57 57 56 56
23 24 21 21 22 24 25 19 18 19 20 18 19 19 20 25 31 36 42 47 48 51 52 54 53 54 55 54 56 55 55 54 54 53 52 51 51 52 55 56 55 55 55 56 57 57 56 56 56
25 25 21 20 19 21 22 19 17 20 20 19 19 19 22 26 30 36 39 46 48 51 52 54 53 52 55 55 55 55 55 55 55 54 54 53 52 51 52 55 56 55 54 56 57 57 56 55 55
22 23 26 26 19 22 20 25 30 26 26 26 27 28 29 28 29 30 36 41 48 50 51 53 53 51 52 55 55 55 54 54 55 54 54 54 53 53 52 52 53 54 56 56 56 55 55 55 54
21 21 22 25 26 23 24 24 31 29 26 26 27 27 28 28 28 30 32 39 42 49 50 53 53 52 51 53 56 55 55 55 55 55 54 54 54 54 53 52 52 53 53 54 54 54 54 54 53

GFSSGP_sfc_30mbdewp_063.txt.gz
Dewpoint
49 44 39 37 33 25 21 20 21 15 27 29 30 30 28 30 39 43 62 61 65 66 69 70 71 70 70 69 70 70 70 70 70 70 69 68 68 68 68 68 68 68 67 65 64 65 64 65 66
41 36 33 33 25 22 22 21 20 22 24 24 25 27 27 40 54 59 60 62 62 67 68 70 71 71 70 69 70 70 70 69 70 70 69 68 68 69 68 68 68 67 66 65 65 64 65 65 66
42 37 32 27 24 20 22 19 18 20 21 22 23 26 35 44 48 58 61 62 62 65 66 69 71 71 70 70 70 70 70 69 70 69 68 68 69 68 68 67 67 66 66 65 64 64 64 65 66
34 36 32 20 19 20 20 19 16 18 20 22 27 28 42 47 48 59 61 62 62 63 65 68 69 70 70 70 69 69 69 69 69 69 68 69 68 68 67 66 65 65 65 64 63 64 64 63 63
32 30 21 19 17 18 17 16 17 16 18 27 29 28 45 54 58 59 59 59 62 63 66 67 67 69 70 70 69 68 68 67 68 68 69 68 67 67 66 65 64 65 64 63 63 63 62 61 61
26 24 19 17 18 19 19 18 15 17 17 18 22 28 48 55 56 60 60 60 62 63 66 66 67 67 67 68 67 68 68 65 65 68 68 68 67 66 65 64 63 64 64 63 63 62 61 60 58
27 24 19 18 17 17 17 18 17 18 17 30 33 30 50 53 58 60 60 60 61 63 65 66 65 65 65 65 65 64 65 63 64 65 67 66 65 65 65 65 65 64 64 63 62 62 60 58 57
29 26 22 20 18 17 17 20 21 18 25 34 31 27 49 54 56 57 59 59 60 63 65 65 65 65 64 65 63 62 62 61 61 62 63 66 64 65 65 65 65 64 63 63 62 61 58 56 53
31 23 18 17 18 18 17 20 21 19 22 29 32 27 51 55 56 55 56 56 56 63 63 64 65 65 64 64 63 61 60 60 61 61 59 64 64 64 64 64 64 64 63 62 61 60 56 54 52
25 19 18 18 18 18 16 19 18 16 23 23 28 51 53 52 52 51 50 54 56 60 62 63 63 64 64 64 63 62 61 59 60 61 60 64 64 63 64 64 64 63 63 62 60 58 55 51 51
25 21 20 19 19 20 18 13 17 16 16 23 35 49 51 50 50 49 50 53 55 60 62 62 63 63 63 63 62 61 60 60 59 63 64 63 63 63 63 63 62 62 62 60 58 56 53 49 50
25 22 20 19 19 18 17 13 14 16 19 31 34 49 51 50 49 50 50 55 57 59 62 62 63 63 63 63 62 61 61 62 61 63 63 63 63 62 62 61 61 60 59 58 56 52 50 48 50
25 22 20 19 18 18 17 13 14 16 20 31 39 39 43 48 48 51 54 57 57 59 60 62 62 62 62 62 61 61 62 62 62 62 62 62 62 61 60 60 58 57 57 55 52 51 49 47 49
24 23 20 18 16 15 15 14 14 16 19 19 38 41 42 43 47 51 55 56 57 60 59 61 61 61 62 62 61 61 62 61 61 61 61 60 61 61 60 56 55 55 54 51 50 51 50 47 48
23 20 18 16 13 13 17 16 13 15 17 19 36 41 43 44 44 50 52 56 57 58 58 60 61 61 61 61 61 61 61 59 58 59 59 59 60 59 60 55 53 54 53 48 50 51 51 49 51
26 22 17 17 17 17 17 15 16 15 16 18 20 40 44 45 43 44 52 57 58 58 59 60 61 61 61 60 61 61 60 58 57 57 57 59 58 58 60 57 53 55 52 51 50 51 50 50 50
25 20 18 17 19 17 16 15 16 17 17 19 24 38 42 45 45 45 53 58 58 58 58 59 59 60 60 60 60 61 60 59 58 57 57 58 58 57 59 58 55 55 53 54 52 50 49 49 50
23 20 18 18 19 19 16 15 16 16 21 28 29 30 42 44 44 45 52 57 58 58 58 58 59 59 59 60 60 60 60 60 58 57 57 58 57 57 58 58 57 56 55 54 50 49 48 49 49
23 22 22 22 21 22 20 16 17 18 19 28 28 29 38 43 45 46 52 57 56 57 58 57 57 58 58 58 57 57 57 57 57 57 56 57 56 55 53 55 54 55 54 52 49 49 47 47 49
23 21 22 22 22 23 20 17 16 17 17 23 29 29 30 43 45 46 54 56 56 56 57 57 57 57 57 57 57 57 57 57 57 57 56 56 54 54 51 53 53 52 53 51 49 48 48 47 48
21 22 22 21 22 20 18 14 15 17 17 17 22 28 31 42 45 46 51 55 56 56 56 56 56 57 57 57 57 57 57 57 56 56 56 55 53 52 51 51 52 51 52 51 48 47 46 44 47
12 16 18 18 17 16 19 15 17 18 18 17 16 25 32 43 45 47 48 53 56 56 57 57 56 56 56 57 56 55 54 53 54 54 53 52 52 51 50 50 50 50 52 51 49 47 47 46 44
27 21 22 22 22 19 19 17 17 19 18 16 15 22 27 42 45 48 49 50 54 56 56 56 56 56 56 56 55 54 53 53 53 54 53 52 52 51 50 52 51 51 51 53 50 49 48 51 47
30 31 27 25 23 21 22 20 17 18 19 19 17 22 26 36 45 48 50 50 53 56 56 56 56 56 56 56 55 54 53 52 51 53 54 53 53 52 51 51 53 51 51 51 55 53 52 51 53
29 30 23 22 23 20 21 20 19 21 20 21 20 23 26 32 45 47 50 51 51 55 55 55 55 55 56 56 55 54 54 53 50 52 53 52 52 54 54 52 52 54 53 51 53 55 55 53 53
27 27 26 20 20 20 21 18 19 21 22 22 21 25 28 34 45 47 49 51 51 54 55 55 55 54 56 55 55 55 54 53 51 50 52 52 51 52 54 55 52 53 55 55 55 55 55 56 55
30 26 24 25 29 26 26 26 20 21 21 19 19 28 32 35 43 47 48 50 52 53 55 55 55 54 55 56 55 55 55 53 52 50 50 50 49 50 53 55 54 53 53 55 55 56 55 56 56
28 26 27 32 25 24 22 25 25 26 19 24 21 26 28 32 36 46 48 49 51 53 54 55 54 53 54 55 55 55 55 55 54 53 51 49 49 49 49 54 55 54 53 54 56 55 56 56 55
27 28 35 34 29 23 23 25 31 25 28 27 28 28 28 29 34 38 47 49 51 52 55 54 54 53 53 54 54 55 55 55 54 54 53 52 51 49 49 52 55 55 55 53 54 55 55 55 54
27 26 34 31 29 29 25 27 35 30 25 26 27 26 30 34 37 39 40 43 49 51 53 54 53 53 54 54 54 54 55 55 55 54 54 54 52 51 50 49 52 54 54 54 53 53 55 55 55

GFSSGP_sfc_30mbdewp_066.txt.gz
Dewpoint
55 46 36 37 31 26 23 21 22 21 25 29 31 28 36 37 37 34 61 64 67 68 71 70 70 70 70 70 70 70 70 70 70 69 69 68 68 67 66 66 67 67 66 65 65 66 66 66 67
43 37 33 32 29 21 19 23 21 22 28 27 27 28 33 48 57 59 60 64 66 67 70 71 70 70 70 70 70 70 70 70 69 68 68 68 68 69 69 68 67 67 65 63 63 65 65 66 66
39 36 30 29 25 19 17 23 20 21 24 22 24 31 39 48 57 59 61 63 66 67 69 71 70 70 70 70 70 70 70 70 69 68 68 68 69 69 69 68 67 67 66 65 64 64 65 66 65
33 35 33 25 21 24 22 22 22 18 21 23 28 34 46 50 57 59 62 62 66 66 68 70 70 70 70 70 70 70 70 70 69 68 69 69 69 68 68 68 67 66 66 65 64 65 66 65 64
31 30 27 21 19 19 20 20 19 18 20 27 27 34 45 58 60 61 61 62 62 65 67 69 70 70 70 70 70 70 69 69 69 69 69 69 68 68 67 66 66 65 66 65 64 65 65 64 63
24 26 21 19 18 18 19 20 19 19 23 29 28 45 49 58 58 59 60 62 63 65 66 68 69 70 69 68 68 69 69 69 69 69 69 68 68 67 66 66 65 66 65 64 64 63 63 60 58
24 23 20 19 18 18 19 21 19 19 19 25 32 40 53 55 59 60 60 62 63 66 65 66 67 68 67 67 66 66 67 66 66 64 66 67 67 66 66 66 66 65 64 64 64 63 60 57 59
27 26 23 23 20 20 21 19 21 18 20 35 35 46 50 54 60 60 59 59 62 63 65 65 65 65 65 65 65 64 65 64 63 63 62 64 65 65 65 65 65 64 64 63 63 61 58 58 59
31 27 23 22 21 20 20 19 19 20 33 33 32 46 49 57 58 58 57 57 61 63 63 64 64 64 64 63 64 64 63 64 63 62 61 60 63 63 65 64 64 64 63 63 62 59 57 58 59
33 28 27 24 22 19 19 19 19 17 26 27 45 55 55 56 55 53 55 55 61 61 62 63 64 64 63 63 62 62 62 62 61 61 61 59 63 64 64 64 64 63 62 62 60 58 56 54 54
28 29 25 22 21 20 19 19 20 16 17 24 38 52 54 54 53 53 53 55 56 60 61 62 63 64 64 62 62 60 60 60 60 60 59 60 63 63 64 63 63 62 61 60 58 56 51 51 51
29 28 26 25 23 21 20 19 18 16 17 27 46 52 52 51 51 49 52 54 58 61 61 62 63 63 63 62 61 60 59 59 60 60 59 61 63 63 62 61 61 61 59 58 56 53 50 49 51
31 30 29 26 23 22 20 18 18 17 17 34 50 51 50 50 49 51 53 57 59 60 61 62 62 63 63 62 61 60 59 60 59 62 60 62 62 62 61 60 60 59 58 56 54 51 48 48 52
27 29 28 26 23 21 18 16 16 16 18 38 48 48 50 49 49 53 56 57 59 60 60 61 62 62 62 62 61 60 62 61 61 63 62 62 62 61 60 59 58 57 56 55 52 50 46 48 50
27 24 23 23 20 18 17 14 14 16 16 19 38 40 47 48 50 53 55 57 59 59 59 60 61 62 62 61 61 61 61 61 62 62 62 62 62 60 59 56 55 55 54 51 50 51 48 47 50
27 25 21 21 19 18 16 14 16 17 16 15 27 39 43 46 48 53 56 57 58 58 58 60 61 61 61 61 61 61 60 59 60 60 60 61 61 60 57 54 53 52 51 48 50 51 49 47 51
26 23 21 20 20 18 18 16 18 19 17 15 16 37 43 44 46 51 56 57 57 58 58 60 61 60 60 60 61 60 59 58 59 59 59 60 60 59 56 53 53 51 50 47 50 51 50 48 51
24 23 21 19 19 21 21 21 20 19 18 17 18 28 42 44 43 48 56 57 57 58 58 59 60 60 60 60 60 60 59 58 58 58 58 59 58 59 58 54 56 51 49 49 51 51 50 50 50
23 23 23 23 24 23 22 22 26 25 18 18 23 30 41 44 45 51 57 57 57 57 57 58 58 59 59 59 58 58 58 58 58 58 57 58 57 58 59 56 55 55 53 52 51 50 49 50 50
22 23 24 24 23 23 22 23 21 21 19 19 26 30 40 44 45 52 56 57 56 56 56 56 58 58 58 58 58 58 58 58 58 58 57 57 57 56 57 58 55 56 55 53 51 49 48 49 49
17 17 23 23 23 22 24 22 19 19 18 19 25 29 35 44 44 51 55 56 56 56 56 56 57 57 57 57 57 57 57 57 56 57 57 58 57 55 54 56 54 55 55 52 50 49 47 47 48
27 17 15 18 20 21 24 21 20 19 19 20 20 24 31 43 44 50 54 55 55 56 56 56 56 56 56 57 56 56 54 54 55 56 56 57 56 54 53 54 53 54 54 53 51 49 47 47 47
27 32 31 28 26 24 22 21 20 20 19 20 20 20 28 42 44 48 53 55 55 56 56 56 56 56 56 56 56 56 55 55 55 56 55 56 56 53 52 52 53 52 53 54 53 50 47 47 47
36 32 30 26 24 22 23 23 22 20 19 19 20 21 26 42 45 46 52 55 55 56 56 56 55 55 56 56 56 55 54 53 53 54 54 54 53 52 52 51 52 52 52 54 54 51 46 46 46
34 32 23 21 21 22 25 23 23 23 22 22 22 22 25 42 45 47 49 54 55 55 55 55 55 55 56 55 55 54 53 53 53 53 53 53 52 51 51 52 52 53 52 53 54 51 48 48 50
31 33 27 23 25 24 23 19 20 23 23 23 23 23 30 43 46 48 49 52 55 55 55 55 55 55 55 55 55 54 54 52 52 53 53 53 52 51 52 52 52 52 52 51 52 55 53 52 52
33 33 33 30 28 27 27 26 27 28 24 22 21 28 35 44 46 49 50 50 54 54 54 54 55 55 55 55 55 54 54 53 51 51 52 52 53 53 53 53 52 53 54 54 53 51 53 55 54
30 36 31 32 25 23 24 23 25 27 28 27 27 31 39 44 46 48 50 51 52 54 54 54 54 54 55 55 56 55 54 54 53 51 51 52 52 52 52 55 54 53 53 54 55 55 54 53 54
31 34 35 34 32 27 24 29 39 33 29 31 35 37 39 40 44 47 49 51 52 54 55 54 54 53 54 55 55 55 55 55 54 53 51 50 51 50 50 53 54 54 53 53 53 54 55 55 54
31 34 34 30 28 31 31 31 41 39 33 29 35 38 39 40 41 43 48 50 52 54 54 54 54 53 54 55 55 55 55 55 55 54 53 52 50 50 49 49 53 54 54 53 52 51 51 54 54

GFSSGP_sfc_30mbdewp_069.txt.gz
Dewpoint
58 47 36 38 28 27 23 20 24 20 21 28 30 29 28 36 31 25 58 65 67 68 70 70 70 70 70 70 70 70 70 70 70 70 70 69 69 68 68 68 68 68 67 66 67 67 67 67 67
47 36 34 33 28 19 15 24 22 22 24 28 37 41 38 41 56 57 59 65 67 69 70 70 70 70 70 70 70 70 70 69 69 69 69 68 68 68 68 68 68 67 67 66 67 67 67 67 67
39 35 30 29 27 14 11 23 20 21 20 26 25 33 42 43 57 58 60 66 67 68 69 69 70 70 70 70 70 70 70 70 69 68 68 68 67 67 68 68 67 67 66 65 66 66 66 66 66
35 32 31 26 23 23 21 21 23 21 19 22 26 34 46 54 56 60 63 66 66 67 69 70 69 69 70 70 70 70 70 69 69 68 68 68 68 68 68 67 66 65 64 65 65 65 65 65 65
31 31 26 26 23 22 23 23 21 19 20 20 27 36 43 55 59 62 62 65 65 66 68 70 69 69 70 70 70 70 70 69 68 68 68 68 68 68 68 67 67 66 65 65 66 65 64 65 64
26 27 24 21 21 20 19 20 20 20 20 21 25 42 48 58 60 61 62 63 65 65 67 69 69 69 69 70 68 68 69 69 68 68 68 68 68 68 67 67 66 65 65 65 65 64 64 63 62
20 23 21 20 18 18 19 21 20 19 20 21 36 43 52 57 59 60 62 63 64 65 66 68 69 69 69 68 68 66 65 66 68 67 66 67 67 67 67 66 66 66 65 65 64 64 62 62 62
27 25 22 20 19 16 20 20 20 19 19 34 47 42 46 56 59 60 61 63 64 65 65 66 67 66 65 66 67 66 64 64 64 65 65 64 65 65 66 66 66 66 65 64 63 61 60 62 61
29 23 19 21 19 18 21 19 20 21 23 29 36 48 49 56 59 58 58 59 62 64 64 64 64 64 64 65 66 65 63 62 61 64 64 62 63 64 64 65 64 65 64 63 61 60 61 61 60
33 27 22 24 22 20 21 21 20 19 20 20 41 52 56 58 58 57 56 56 60 61 62 63 64 63 63 64 64 64 62 63 63 63 62 61 62 63 62 63 64 64 63 62 60 59 61 59 58
32 27 26 26 26 25 23 22 22 20 18 21 32 48 56 57 56 56 55 56 58 61 61 62 63 63 62 62 62 62 63 63 62 61 61 61 62 63 62 63 63 63 62 60 58 57 56 56 55
30 29 28 29 28 25 24 23 21 19 19 20 21 50 55 55 54 53 54 55 59 60 60 62 62 62 62 62 61 60 61 61 61 60 60 61 61 62 63 62 61 61 59 58 55 51 52 53 53
31 31 30 30 29 27 25 23 22 21 21 20 37 54 53 53 53 52 53 55 58 59 60 61 61 61 62 61 61 60 59 60 60 59 59 61 61 62 63 61 61 59 58 56 53 50 50 52 52
27 28 29 30 31 29 26 23 20 20 18 22 50 52 52 51 51 51 53 55 58 59 60 61 61 62 62 61 60 59 59 60 59 60 59 62 61 62 61 60 60 58 57 55 52 49 50 52 52
28 26 26 25 25 23 22 19 17 18 17 23 47 50 50 50 50 50 54 56 58 59 60 60 61 62 62 61 60 60 61 61 60 60 59 61 62 62 61 59 58 57 56 54 51 48 49 51 52
27 26 24 24 24 22 19 18 19 18 17 17 39 47 49 49 49 52 55 57 59 59 59 60 61 60 61 61 60 61 61 61 61 62 61 60 62 61 59 58 57 56 54 52 51 49 48 49 52
26 24 24 23 23 21 18 17 19 21 20 18 18 40 45 48 49 52 56 58 58 58 58 59 60 60 60 61 61 60 60 60 60 61 61 62 61 59 57 55 54 54 52 51 50 50 49 49 52
24 24 23 22 22 23 23 22 23 23 23 22 20 24 41 45 47 51 56 58 57 57 58 59 58 60 60 61 60 60 59 59 59 59 60 61 60 58 55 54 53 52 49 49 49 49 50 50 52
24 24 23 24 25 24 22 22 22 24 25 24 21 20 38 43 44 52 56 57 57 57 57 58 57 59 60 59 58 58 57 58 58 58 59 59 60 58 55 54 53 51 46 47 51 50 49 50 51
16 18 23 24 25 23 22 22 22 23 23 21 20 21 26 41 45 53 56 56 56 56 57 57 57 58 59 59 59 59 59 58 58 58 58 59 58 60 56 54 54 51 48 50 51 49 49 49 50
22 16 20 23 24 24 23 21 22 24 22 21 20 22 31 40 44 53 55 55 56 55 56 57 57 57 58 59 58 58 58 58 58 57 57 58 58 58 59 55 54 54 51 52 51 50 49 48 50
24 21 24 17 16 18 24 20 23 25 24 22 21 25 31 43 45 52 55 54 55 55 56 56 56 57 57 58 57 56 56 55 56 57 57 58 57 57 57 58 55 56 55 53 51 50 49 49 48
27 34 32 30 27 25 23 21 22 23 22 22 21 21 25 38 44 50 54 55 55 55 55 56 56 56 57 57 57 56 55 55 56 56 56 57 57 56 55 57 56 54 56 54 53 50 48 49 49
33 34 31 31 27 22 21 21 22 24 23 22 22 22 23 34 43 47 53 55 54 55 55 55 55 55 56 56 56 55 54 54 55 55 55 56 57 56 55 56 55 55 55 55 54 51 49 49 49
35 34 26 23 22 20 22 22 22 25 25 25 24 24 24 32 43 48 53 54 54 54 55 54 54 54 55 55 55 55 54 54 54 54 55 55 55 55 54 54 55 54 54 55 55 54 54 51 49
30 35 28 21 21 23 26 22 22 31 29 30 26 25 24 28 43 48 53 54 54 54 54 53 53 53 55 55 55 55 54 54 54 54 54 55 55 54 53 54 55 55 55 55 55 55 54 54 51
35 31 37 31 32 26 27 26 28 31 31 35 28 24 24 33 43 47 52 53 54 54 54 54 53 53 54 54 55 55 54 53 53 53 53 54 54 53 52 53 54 55 55 54 54 55 54 54 51
36 38 31 32 25 22 25 29 32 33 31 36 38 38 39 44 46 48 51 53 54 54 54 54 54 54 53 54 54 54 54 53 52 52 52 52 53 53 53 52 52 53 54 54 53 52 51 53 52
35 34 34 34 32 26 24 31 39 39 39 36 39 40 42 45 48 50 50 52 54 54 54 54 54 54 53 54 54 54 54 54 53 51 51 52 52 52 52 54 53 52 53 53 52 51 51 51 52
33 34 36 30 29 32 31 31 41 42 38 37 39 40 42 46 48 50 51 52 54 54 54 54 54 54 54 55 54 54 55 54 54 53 52 51 51 52 51 52 54 54 52 52 52 53 53 54 53

GFSSGP_sfc_30mbdewp_072.txt.gz
Dewpoint
58 49 36 37 26 26 19 16 24 19 20 26 30 30 28 27 28 22 54 65 66 67 69 70 69 68 70 70 70 71 71 71 71 71 71 70 70 70 69 70 69 69 68 67 67 67 67 68 68
51 35 34 33 22 12 4 24 22 22 22 24 39 40 39 34 55 56 58 64 67 67 69 70 69 68 69 70 69 70 71 70 71 71 70 70 70 69 70 69 69 68 66 67 67 67 67 67 67
41 34 28 29 27 10 4 19 22 22 21 23 25 34 38 38 56 57 60 64 67 68 68 69 70 69 69 70 70 70 70 70 70 70 70 70 69 69 69 69 68 67 67 67 67 67 67 67 67
35 33 30 25 22 21 16 19 23 22 19 22 24 27 43 53 56 59 62 66 67 68 68 69 70 69 70 70 69 69 70 70 69 69 69 69 69 69 69 68 67 67 66 66 66 67 66 66 66
31 30 22 26 24 22 23 21 22 20 20 20 25 28 41 54 60 62 65 66 65 67 68 68 69 69 70 69 69 69 69 69 69 69 69 68 68 68 68 68 67 67 66 66 66 66 66 65 65
26 28 22 16 22 21 21 21 20 18 20 20 22 23 40 59 60 62 65 65 65 66 68 68 68 69 69 69 69 68 69 69 69 68 68 68 67 67 67 67 66 65 66 66 66 66 65 64 64
20 25 20 21 19 20 18 20 19 20 19 21 28 27 46 57 60 62 63 64 65 65 66 68 67 68 69 69 67 66 65 67 68 66 66 66 66 66 65 65 65 65 66 66 65 65 64 64 63
25 22 20 20 18 18 18 20 20 19 19 32 46 38 37 55 60 61 62 63 64 64 65 66 67 68 68 67 66 66 64 64 64 65 64 63 63 63 64 64 65 66 65 65 65 64 64 63 62
28 20 17 17 18 17 21 20 20 21 20 21 31 43 51 57 59 60 60 62 63 63 64 65 66 66 65 65 65 65 64 65 65 65 64 64 64 63 63 62 65 65 65 64 62 63 63 62 60
31 24 18 22 20 19 20 21 22 21 21 21 24 47 56 58 58 57 58 60 61 62 63 63 64 63 64 65 66 64 64 63 64 64 63 63 63 64 62 62 63 63 64 62 61 62 62 60 58
33 25 25 26 24 25 24 23 23 22 21 22 20 23 50 57 58 56 56 58 59 61 62 62 63 63 63 63 63 63 62 61 62 63 63 61 61 63 63 62 62 63 62 59 60 61 59 57 57
27 30 29 27 28 28 27 26 25 23 23 23 22 22 43 55 57 56 55 55 58 60 60 61 62 62 62 62 62 62 62 62 62 62 62 62 62 63 61 62 62 62 60 57 59 57 57 56 54
26 30 30 30 29 28 28 27 26 24 25 24 22 24 45 53 56 56 56 55 57 59 60 61 62 62 62 61 61 61 62 62 62 61 60 61 62 61 60 61 61 61 58 55 54 54 55 53 53
23 25 27 29 29 30 29 28 27 27 26 21 22 29 44 53 55 54 53 54 56 59 59 60 60 61 61 61 61 60 60 60 61 60 60 61 61 61 60 61 60 59 58 54 52 53 53 52 53
27 26 27 27 27 28 29 24 22 23 22 19 20 34 46 53 53 52 52 54 56 58 59 59 60 60 60 60 60 60 59 60 60 60 60 61 61 61 61 61 59 58 56 53 50 50 52 52 52
24 26 25 26 25 25 23 22 23 23 21 19 18 32 46 51 51 52 52 54 57 58 59 59 59 60 60 60 60 60 60 60 60 61 59 60 61 62 61 60 58 57 55 52 49 50 51 52 52
25 22 24 25 24 23 21 21 20 21 22 21 21 24 45 49 50 50 52 55 57 58 59 58 59 59 59 60 60 61 60 60 61 60 61 60 61 62 60 59 58 56 54 52 49 49 50 52 51
20 23 24 23 23 23 21 20 23 24 23 23 24 21 35 44 48 50 54 57 58 58 58 58 59 59 60 60 60 60 59 59 60 61 61 60 62 61 59 57 56 55 54 52 50 48 49 52 52
20 21 21 24 25 25 24 24 24 24 24 23 24 23 22 35 43 50 55 57 57 57 57 58 59 60 60 59 58 58 57 58 58 60 61 60 60 58 56 55 54 53 52 51 50 48 48 51 52
20 18 16 19 23 25 24 23 24 24 23 23 23 24 23 26 43 52 55 56 56 56 57 56 57 59 60 59 58 59 58 58 58 58 60 61 59 57 56 54 53 51 49 50 50 49 49 51 52
26 24 22 18 19 23 22 21 23 23 24 24 22 22 21 26 40 52 54 55 56 56 56 56 56 58 59 59 58 58 58 58 57 57 58 59 60 58 57 56 51 51 48 49 50 50 48 49 51
28 27 24 20 21 17 22 19 22 22 23 25 25 23 24 28 42 52 54 55 55 56 56 56 56 56 59 59 57 57 56 55 57 57 58 58 59 59 57 56 54 51 49 50 50 50 49 50 49
31 31 32 31 29 26 25 22 20 23 23 24 25 25 23 34 42 51 53 54 55 55 55 55 56 56 57 58 58 57 57 56 57 57 57 58 58 59 59 56 56 53 53 53 51 51 49 49 50
33 33 31 30 29 24 24 23 20 21 21 24 24 24 23 24 43 50 53 54 55 55 55 55 55 54 55 56 57 57 55 55 55 56 56 57 57 57 58 59 56 56 56 54 53 52 50 49 50
33 32 25 24 24 22 23 23 21 21 22 30 32 30 27 25 35 49 53 54 54 54 54 54 54 53 54 55 56 56 55 54 54 55 55 56 56 55 55 57 57 57 55 55 54 52 51 50 50
33 30 26 20 20 23 26 21 23 31 33 37 39 39 30 26 35 47 53 53 53 53 53 54 54 53 54 55 55 55 54 54 55 55 55 56 56 56 56 56 56 56 56 56 55 54 53 53 51
32 32 36 31 32 28 25 26 32 39 38 38 39 41 41 33 32 46 52 53 53 53 53 53 53 53 53 54 55 55 54 54 54 55 55 56 56 56 55 55 56 56 56 56 56 55 55 55 54
34 38 30 31 24 21 23 29 33 37 37 38 40 42 44 46 45 50 53 53 53 53 53 53 53 53 53 53 54 54 54 53 53 54 54 54 55 55 53 54 55 55 56 56 56 55 55 55 55
33 32 33 33 30 26 25 31 39 38 38 38 40 44 46 49 49 51 53 52 53 53 53 53 53 53 53 53 53 54 54 53 52 52 53 53 53 53 52 52 53 54 55 55 55 54 54 54 54
35 35 34 29 29 32 31 31 41 39 39 39 41 43 44 45 47 51 52 53 53 53 53 53 53 53 53 54 53 53 54 54 53 52 51 52 52 52 53 53 52 52 53 54 54 53 52 52 52

GFSSGP_sfc_30mbdewp_075.txt.gz
Dewpoint
56 50 37 37 23 25 13 14 23 20 21 25 29 27 27 29 39 28 56 65 67 67 69 68 68 68 70 70 71 72 72 71 71 71 71 71 71 70 70 70 69 69 69 69 68 68 68 67 69
48 35 35 34 17 6 1 21 19 21 23 23 34 38 37 32 51 52 58 65 66 68 69 68 68 68 70 70 71 70 71 72 71 71 71 71 70 70 70 70 69 69 68 68 68 68 68 68 68
37 33 28 30 23 5 -1 14 23 24 23 22 26 35 34 38 55 54 59 65 66 67 68 68 68 67 69 70 70 70 70 71 71 71 71 71 70 70 70 70 69 68 67 68 67 67 68 68 68
35 33 30 23 19 20 9 17 23 23 19 22 25 23 39 52 56 58 61 66 67 67 68 69 68 68 68 70 70 70 69 69 71 71 71 70 70 70 70 69 68 68 68 67 67 67 67 67 67
32 29 19 23 22 22 23 21 23 20 20 19 22 22 36 52 60 61 64 66 66 67 68 69 69 68 68 70 69 70 69 69 69 70 70 70 70 70 68 68 68 67 67 67 67 67 67 66 66
25 28 17 11 20 22 22 23 22 19 19 21 23 22 28 57 60 63 65 65 67 67 67 68 69 69 68 68 69 69 69 69 69 70 70 69 69 68 67 66 65 67 67 67 67 67 66 65 64
21 24 14 17 17 18 17 22 19 17 18 22 27 27 39 56 60 63 65 66 66 67 68 67 67 69 69 68 68 67 66 66 68 68 66 66 64 65 64 64 64 66 66 67 66 66 65 65 64
23 23 18 19 15 13 18 21 21 21 19 27 45 34 36 52 61 63 64 65 65 66 67 68 67 67 68 68 67 67 66 64 64 64 65 65 64 64 63 63 64 65 67 66 66 65 65 64 62
27 19 17 17 17 16 21 19 21 22 21 22 24 33 49 56 61 61 61 63 64 65 66 66 66 67 67 68 67 66 65 65 64 65 64 64 63 62 62 62 63 65 65 65 65 64 64 62 61
28 22 19 21 19 17 18 21 21 21 22 21 23 39 56 59 60 59 59 59 62 63 64 66 66 66 66 66 66 66 65 64 65 65 63 63 63 62 61 62 64 63 65 64 64 64 62 60 59
32 23 25 24 22 22 22 22 23 20 21 22 23 24 42 55 58 58 58 59 61 62 63 64 65 65 65 64 65 65 65 65 65 64 63 63 63 63 63 63 63 62 63 63 63 62 59 59 58
25 30 29 25 25 26 25 26 25 25 25 26 27 26 25 37 54 57 57 58 60 61 62 63 64 64 63 64 63 64 64 64 64 64 63 63 63 62 61 61 63 63 63 61 61 60 59 58 57
25 24 27 28 28 28 28 27 26 25 27 28 26 27 26 27 40 53 57 57 58 59 61 62 63 63 63 62 62 63 62 62 62 63 62 62 62 62 62 61 62 62 60 60 59 58 58 57 56
23 25 24 25 25 27 26 26 29 27 28 27 26 24 24 34 42 50 57 56 57 59 61 61 61 62 63 62 61 62 62 62 62 62 62 61 62 62 61 61 62 60 59 58 57 57 56 55 55
23 23 25 27 26 25 30 28 28 30 30 28 25 23 23 33 48 52 54 56 56 58 60 60 61 62 62 61 61 61 61 61 61 61 61 62 62 62 60 60 61 60 57 56 56 56 55 55 54
21 24 20 26 27 27 26 15 22 26 24 23 23 22 22 30 46 52 54 55 56 58 60 60 60 61 61 60 60 61 60 60 61 61 61 61 61 62 60 60 60 59 56 54 54 54 54 54 53
22 18 22 23 25 24 24 22 24 23 24 22 23 24 25 30 45 51 53 54 56 58 60 59 60 60 60 60 60 60 61 60 60 61 60 61 61 62 61 60 59 58 55 53 53 53 54 53 52
16 20 24 24 24 24 23 22 23 24 25 25 25 26 27 27 35 45 52 54 56 58 59 59 60 59 60 60 60 61 61 61 61 60 60 60 62 61 61 60 58 58 55 52 52 53 53 53 52
18 18 17 18 21 21 20 23 25 27 26 25 25 25 25 26 30 40 52 55 56 58 59 59 59 59 59 58 58 58 58 59 59 61 61 60 60 62 60 58 58 57 55 53 52 52 53 52 53
21 20 19 21 20 18 17 19 25 26 25 26 25 26 25 27 27 43 53 55 56 57 59 58 59 59 60 58 58 58 58 59 59 60 61 61 60 60 59 58 57 56 56 54 52 51 52 52 53
28 27 27 26 26 25 21 19 19 20 25 25 25 25 26 26 26 38 52 54 56 56 58 58 58 59 59 59 59 59 59 58 58 58 59 59 59 58 57 57 56 55 54 53 52 51 51 51 53
27 30 28 27 25 21 21 17 20 22 22 24 24 26 27 27 27 32 50 54 55 56 58 57 57 57 59 59 58 57 56 56 57 57 58 59 59 58 57 55 54 53 52 53 52 51 50 51 51
29 32 31 30 29 27 26 23 21 23 22 22 25 26 28 29 29 39 49 52 55 56 57 56 56 57 58 58 57 56 56 56 57 58 58 58 59 58 58 56 54 52 51 52 52 51 50 51 52
33 32 31 30 29 25 24 23 21 21 21 25 29 33 33 31 32 41 50 53 54 56 56 55 56 56 58 58 58 57 57 56 56 56 57 57 58 59 57 57 55 53 52 52 52 52 51 51 52
30 28 24 23 23 19 23 24 23 25 27 36 37 38 40 38 36 46 51 52 54 55 55 55 55 55 56 57 58 57 56 56 56 56 57 57 57 57 58 57 57 56 54 53 52 52 51 52 51
30 27 25 19 20 22 26 21 23 38 38 39 41 42 43 43 33 46 51 52 54 54 54 54 54 53 54 55 57 57 56 56 56 56 56 56 57 56 57 58 57 57 56 55 54 53 52 52 52
31 29 32 30 29 27 23 25 36 37 38 40 42 44 46 46 44 40 51 53 53 53 53 53 54 53 53 54 55 55 55 55 55 56 56 56 57 57 56 57 57 57 57 56 55 54 53 52 52
33 36 30 31 21 20 21 25 31 36 37 39 42 44 47 49 48 47 52 53 53 53 53 54 54 54 53 53 55 55 55 55 55 55 55 56 57 57 56 56 56 56 57 57 56 55 55 54 54
32 30 34 32 29 23 24 30 38 38 39 40 42 42 43 46 50 51 51 53 53 53 54 53 53 53 53 53 54 55 55 55 55 54 55 55 56 55 55 55 56 56 56 56 56 56 56 55 54
32 31 34 28 27 30 30 28 42 40 39 40 40 40 42 43 45 50 52 53 53 53 53 53 53 52 53 53 53 53 55 55 54 54 54 55 54 55 54 54 55 55 55 56 56 55 55 55 55

GFSSGP_sfc_30mbdewp_078.txt.gz
Dewpoint
51 44 34 30 18 12 2 0 6 12 21 24 27 20 22 28 32 26 54 61 62 64 67 68 68 69 70 71 71 72 72 71 71 71 71 71 71 71 71 70 71 70 70 69 69 69 69 69 69
40 37 29 25 8 0 0 2 10 7 18 22 23 28 28 27 35 45 55 61 61 62 66 67 68 69 70 71 71 72 72 72 72 71 71 71 71 71 70 70 70 70 70 70 69 68 69 69 69
38 30 19 15 11 1 -2 1 6 20 20 21 28 33 33 31 46 46 53 61 61 62 64 66 68 68 70 71 71 71 72 72 71 71 71 71 71 70 70 70 70 70 69 70 69 68 69 69 68
32 25 22 14 3 9 3 0 11 22 19 16 20 22 29 42 48 49 55 61 61 63 64 68 67 67 69 70 71 70 69 70 71 71 71 71 71 70 70 70 70 69 69 69 68 68 68 68 67
30 20 11 9 5 4 11 12 17 22 21 17 14 15 24 41 51 55 58 61 61 64 65 68 67 67 68 70 70 70 69 70 71 71 71 71 70 70 68 69 69 68 69 68 68 68 68 67 66
23 19 9 5 5 9 13 7 15 15 14 14 16 22 21 46 50 55 59 62 64 65 67 67 68 68 68 68 69 70 69 69 70 71 69 70 69 69 68 67 67 67 67 66 68 68 67 66 65
21 17 10 8 5 6 11 9 15 10 8 8 26 25 26 42 52 58 60 62 65 66 67 68 68 68 68 68 68 69 69 68 67 68 65 67 66 67 65 64 64 65 66 67 67 67 66 65 64
25 19 16 13 10 10 10 12 12 12 8 25 28 25 27 39 55 61 60 60 62 66 67 68 68 67 68 68 67 68 67 67 66 66 64 63 65 66 66 64 64 63 66 67 67 66 65 64 63
25 19 16 15 14 14 14 13 12 15 14 16 19 23 31 43 53 60 60 59 60 64 65 68 67 67 68 67 67 67 67 66 66 65 65 65 65 65 65 65 64 64 65 66 66 65 64 63 62
21 16 16 17 18 17 16 15 14 17 18 19 19 20 40 44 48 56 57 56 60 62 63 66 67 66 67 67 68 67 65 64 63 64 65 65 64 64 63 63 63 64 64 65 65 64 63 61 59
25 18 18 20 20 19 17 16 16 16 16 16 17 17 22 25 42 49 54 53 57 59 61 63 67 66 66 67 67 65 63 63 64 64 65 65 63 62 60 62 64 63 63 65 64 63 61 59 58
24 24 23 20 21 21 20 20 18 17 19 20 19 19 21 23 27 40 48 53 54 58 60 62 65 64 66 66 66 66 64 63 64 64 64 63 63 62 60 61 62 63 64 64 64 62 60 59 57
20 18 16 19 21 19 18 17 17 18 20 20 19 20 23 24 26 28 38 46 54 57 59 61 65 64 64 65 65 65 64 64 65 65 64 62 62 61 62 63 63 62 63 62 63 60 60 58 56
20 22 20 22 21 22 22 20 20 20 22 23 23 22 21 23 24 25 31 42 50 56 58 61 63 64 64 63 64 64 63 64 64 64 64 63 63 62 62 62 62 62 62 62 61 59 59 56 55
22 19 20 21 22 22 22 19 20 23 24 24 22 21 20 21 23 27 33 43 50 55 58 61 62 63 63 62 62 63 63 63 63 63 63 62 62 63 62 61 62 62 62 62 60 58 57 55 54
19 18 16 16 25 25 25 17 15 19 23 23 23 22 18 20 22 24 36 44 51 55 58 61 62 63 62 62 62 62 62 63 63 63 63 62 61 62 61 60 61 60 60 61 59 57 55 54 53
17 11 13 17 21 21 22 20 22 23 23 23 23 21 20 20 23 28 38 46 51 55 58 60 61 61 61 61 61 61 61 62 62 62 62 62 61 61 61 61 61 59 59 59 58 56 54 53 52
10 13 14 17 20 21 20 20 23 24 23 24 24 23 22 23 23 25 37 47 52 55 59 60 60 61 61 61 61 60 62 62 61 61 61 62 62 62 61 61 60 59 58 57 57 55 55 53 51
16 16 15 14 16 17 17 17 18 19 23 25 25 24 23 22 22 24 34 48 53 56 58 59 60 60 60 60 59 59 60 60 60 61 61 61 61 62 62 61 59 59 57 56 56 55 54 52 52
17 15 16 20 22 22 20 20 20 19 18 20 24 25 24 23 21 23 35 48 53 55 57 58 59 59 59 59 58 59 60 60 61 61 61 61 61 61 61 60 59 58 57 56 56 55 53 52 52
21 22 22 24 26 26 25 20 19 21 22 21 23 24 25 24 22 22 34 48 52 55 57 57 58 59 59 58 58 59 59 59 59 60 59 60 61 60 61 59 59 58 57 56 55 55 53 52 52
22 26 26 25 25 16 22 14 18 20 21 19 20 24 24 24 23 25 29 44 50 54 57 57 58 58 58 57 57 57 56 56 57 57 59 60 60 59 59 59 59 58 58 56 56 54 54 52 51
22 29 26 26 26 25 23 22 18 21 21 21 21 23 25 26 23 27 30 38 48 53 57 58 58 58 57 56 56 56 57 56 57 58 58 59 59 58 58 58 58 58 58 57 56 54 54 53 51
27 26 22 23 26 22 21 21 17 19 23 24 27 27 30 31 32 31 32 42 48 54 57 57 57 57 57 56 57 57 56 56 56 57 57 58 58 58 58 57 57 56 56 56 56 54 54 53 52
27 19 9 16 21 16 20 20 20 23 32 33 33 36 38 39 38 34 40 45 49 54 57 57 56 56 57 56 55 56 55 56 56 56 56 58 58 57 57 57 56 55 54 55 55 55 54 53 52
22 20 16 13 12 14 22 19 21 35 36 37 38 41 43 43 42 35 43 47 50 54 55 56 56 55 56 55 54 57 57 57 56 56 56 57 57 58 59 57 56 55 54 54 54 54 54 54 53
28 26 27 26 25 23 18 19 30 33 35 37 40 42 44 47 47 40 44 49 51 53 54 56 55 55 55 55 55 57 57 57 56 57 57 56 57 57 58 58 58 57 55 54 53 53 52 53 54
31 31 28 29 21 16 15 19 24 35 37 39 41 42 43 46 49 45 47 51 52 53 54 56 55 54 55 54 55 54 55 56 56 56 55 54 56 56 57 57 57 57 57 56 55 53 53 53 52
30 29 31 33 29 20 17 29 39 38 39 40 40 41 42 44 46 49 50 51 52 53 54 55 54 54 54 54 55 54 53 54 55 55 54 55 56 57 56 56 57 57 57 56 56 55 53 53 53
25 25 29 25 25 30 29 27 41 38 37 38 38 38 40 41 43 45 51 52 53 53 54 54 54 54 54 54 54 54 54 54 55 54 55 55 55 56 56 56 56 56 56 57 56 56 55 54 52

GFSSGP_sfc_30mbdewp_081.txt.gz
Dewpoint
53 44 35 22 16 12 2 2 2 2 9 14 22 19 14 16 24 30 49 58 56 59 63 67 70 70 71 71 71 71 72 71 71 72 72 72 72 72 72 71 71 71 71 70 69 68 68 68 70
40 35 29 18 13 6 3 4 1 6 4 20 21 24 22 22 27 38 49 57 58 59 64 64 68 70 71 71 71 71 72 72 71 72 72 70 72 72 70 71 71 71 70 69 69 69 69 69 69
45 32 21 14 11 11 2 -0 1 5 14 15 14 26 29 26 31 36 52 56 54 55 61 65 68 69 70 71 71 71 72 72 72 71 72 71 72 71 70 70 71 70 70 69 68 69 69 69 68
35 28 21 13 9 7 7 6 2 3 17 15 14 20 27 33 42 44 53 55 54 55 57 68 68 69 70 71 71 71 72 72 72 71 72 71 71 71 68 68 70 70 70 69 68 69 69 68 68
28 20 15 11 9 8 6 7 5 8 14 15 14 12 18 31 39 47 52 54 56 57 60 68 67 68 69 70 70 70 70 71 71 71 71 71 71 70 68 69 70 69 68 68 68 69 68 68 67
26 22 15 11 9 7 7 5 7 6 13 19 17 15 18 30 37 46 52 56 58 60 62 67 67 67 69 70 70 70 69 69 71 71 70 70 68 68 67 67 67 66 66 66 68 68 68 67 66
24 20 15 13 10 8 6 9 10 6 10 9 9 13 20 27 42 46 52 57 60 62 64 67 67 67 68 68 69 70 69 69 69 69 66 67 65 67 67 66 65 65 64 66 68 68 67 66 65
26 23 18 15 12 10 8 9 10 8 8 9 11 16 17 37 42 53 55 56 60 63 65 67 67 67 67 67 68 68 69 68 68 68 66 66 67 66 66 66 65 64 65 65 67 67 66 65 64
27 22 19 16 14 13 13 12 11 11 9 9 15 19 21 38 38 51 54 56 56 61 64 68 67 67 66 66 66 67 67 67 67 66 65 65 66 65 65 64 63 65 64 63 66 66 65 63 62
23 20 18 16 14 14 15 14 14 13 14 15 12 13 18 36 35 44 52 54 54 59 62 67 67 66 66 63 68 66 66 65 64 62 64 64 65 64 63 61 60 65 64 65 66 65 63 62 62
20 19 17 14 14 16 18 17 16 14 13 15 18 17 18 24 26 38 45 51 54 57 60 62 67 66 66 63 67 65 64 63 64 63 64 64 66 64 64 63 64 64 64 65 65 64 63 62 60
19 20 19 17 17 18 19 18 15 15 15 17 18 18 17 19 23 27 36 46 50 54 58 60 65 64 63 62 66 64 62 64 63 64 64 64 64 64 64 62 63 63 64 64 64 64 63 61 59
12 13 15 18 15 15 17 17 16 16 17 18 18 19 19 18 19 21 27 38 48 50 56 59 62 62 63 66 66 66 62 62 64 63 64 64 63 62 61 61 62 61 63 64 64 63 62 59 57
12 14 15 15 13 15 16 16 16 16 16 17 18 19 20 19 19 19 25 28 41 49 54 58 62 63 64 64 65 65 65 64 64 64 64 63 63 62 61 60 61 63 63 62 62 62 61 59 57
19 17 15 14 15 15 17 17 17 19 19 19 19 20 21 21 20 18 23 27 32 43 53 58 63 63 63 62 63 63 65 65 64 64 64 63 62 62 61 61 62 62 63 61 62 62 61 56 55
15 15 11 11 13 18 20 15 16 17 16 19 21 22 22 21 18 15 22 27 32 42 52 58 62 62 62 60 62 62 64 64 64 64 64 62 62 63 62 62 62 62 62 62 62 61 58 56 52
14 9 8 9 15 17 18 18 18 20 21 18 19 21 22 21 17 15 21 25 34 45 53 58 61 61 62 61 62 61 63 63 64 64 63 63 62 63 63 61 62 62 61 62 61 60 57 54 53
4 8 11 11 13 19 20 17 17 19 20 21 22 22 22 20 17 16 22 29 39 47 54 59 61 61 61 61 61 61 61 62 62 62 62 62 62 62 62 61 61 61 61 61 60 59 56 53 52
13 11 10 11 11 12 12 13 13 14 15 18 23 24 24 24 21 19 23 31 42 49 55 59 60 60 60 59 59 59 59 60 61 61 62 62 62 62 62 61 60 60 60 59 60 58 55 54 53
14 14 13 13 14 19 20 19 18 18 16 16 17 21 24 25 23 21 22 32 46 50 55 58 60 60 59 58 58 58 59 59 60 61 61 61 61 62 62 61 60 60 59 58 58 58 55 53 53
14 14 14 16 19 19 18 17 18 19 22 21 19 17 20 25 24 21 21 32 47 50 55 57 59 59 59 57 58 58 59 59 59 59 60 60 60 60 61 60 60 59 58 57 57 58 55 52 53
15 18 20 22 19 13 17 14 15 14 16 18 19 21 20 24 25 23 19 30 45 49 54 57 58 58 58 58 57 58 57 56 57 57 59 59 60 61 61 60 59 59 58 57 57 58 57 53 52
20 22 25 23 19 16 15 14 13 16 17 19 21 21 20 23 25 22 21 23 42 49 54 57 57 57 57 57 56 55 54 55 56 56 58 60 59 60 60 60 59 58 58 57 57 58 56 54 52
21 24 24 20 16 14 16 14 11 14 23 25 26 27 24 25 25 25 20 21 38 48 54 57 57 57 57 57 56 54 54 55 56 56 58 59 59 58 58 59 59 59 58 58 57 58 56 54 53
24 22 11 5 14 15 16 17 14 20 30 31 32 33 36 37 36 32 27 28 35 47 54 56 56 56 56 56 56 54 54 56 56 56 57 58 57 57 57 57 58 58 59 59 58 58 56 55 54
19 20 12 10 10 18 24 17 24 31 32 34 36 39 41 44 46 40 33 33 41 48 54 56 56 56 56 56 55 54 54 55 55 56 56 57 57 58 58 57 57 57 57 58 58 57 56 56 55
22 20 19 18 18 15 13 13 26 33 33 35 38 40 42 44 46 46 37 43 45 51 57 56 55 56 56 55 55 54 54 54 55 56 57 58 58 58 58 57 56 56 56 56 57 57 56 56 56
23 28 27 23 18 14 13 14 33 35 35 38 39 40 42 43 45 49 43 46 48 55 56 56 56 56 56 55 54 55 55 55 56 57 56 56 56 56 58 58 57 56 55 55 55 55 55 54 54
24 25 26 29 27 20 18 29 38 36 37 37 37 39 40 41 41 45 49 50 54 55 55 57 55 56 56 55 54 54 55 55 56 56 55 55 56 56 57 57 58 57 56 55 54 53 53 52 52
19 23 25 25 19 25 26 26 38 37 37 37 37 37 38 38 39 41 45 47 53 54 55 55 55 54 55 54 55 54 54 54 55 54 54 55 55 56 56 56 56 57 57 57 56 55 53 52 51

GFSSGP_sfc_30mbdewp_084.txt.gz
Dewpoint
52 47 41 34 17 15 10 7 7 5 2 7 13 19 16 15 29 33 55 55 64 64 68 69 70 71 71 71 72 71 71 71 72 72 72 72 72 72 72 71 71 71 71 71 69 68 68 69 70
41 39 34 24 15 11 8 8 6 4 5 19 21 20 18 16 23 45 53 55 59 62 66 68 70 70 71 71 71 72 72 72 72 72 72 72 72 72 71 71 71 71 70 70 69 68 69 70 70
43 34 26 20 15 11 11 10 10 5 12 15 14 12 18 22 22 42 55 56 58 61 63 67 70 70 70 71 71 71 72 72 72 72 72 71 71 70 70 70 71 70 70 69 69 69 70 69 69
33 35 26 18 13 11 10 10 10 7 10 15 13 9 24 31 41 46 55 54 54 59 62 67 68 69 70 70 70 71 72 72 72 72 71 71 71 70 70 69 70 70 70 69 69 69 69 68 68
26 28 22 17 14 13 12 11 9 7 7 14 15 11 16 29 36 50 54 53 55 62 68 67 68 69 70 71 71 71 71 72 71 71 71 71 71 69 68 69 69 70 68 69 69 70 69 68 67
29 26 19 15 14 13 12 10 8 5 7 11 15 14 15 19 33 45 54 56 60 64 69 68 68 69 70 70 70 70 70 71 71 71 70 71 70 68 66 66 67 67 66 66 67 68 68 67 67
30 25 20 18 16 13 12 13 8 6 7 7 10 17 16 19 37 48 54 58 62 64 68 69 67 68 69 69 69 69 69 68 68 69 69 69 68 67 66 67 66 67 65 65 66 68 68 67 66
33 27 22 19 16 15 15 12 9 9 8 12 9 9 9 30 44 50 54 57 61 65 67 69 68 68 68 68 68 69 69 69 69 69 68 68 67 66 65 66 63 66 66 65 66 67 67 66 65
31 26 23 20 18 17 17 14 13 12 10 9 10 11 19 38 40 50 52 54 60 64 66 69 68 68 69 68 68 68 68 69 68 68 67 66 67 67 66 66 65 66 65 65 65 66 66 65 64
24 27 24 23 20 18 16 14 15 14 12 11 11 13 18 30 34 37 51 53 58 63 65 68 67 68 68 65 68 67 67 67 67 65 66 66 67 66 66 65 65 63 65 64 65 65 64 64 63
18 21 22 21 18 17 15 16 16 16 14 15 16 18 19 25 29 35 40 50 55 60 63 68 67 68 68 64 68 67 67 66 66 65 65 66 67 65 64 61 63 64 65 65 65 64 64 63 63
16 16 16 16 18 18 16 17 17 18 18 16 16 18 19 19 28 33 36 42 51 55 60 67 67 67 67 65 66 66 67 66 66 65 64 65 66 63 63 62 63 64 64 65 64 64 64 63 62
12 12 13 17 16 17 16 15 14 16 17 17 16 17 18 20 20 24 26 31 41 51 57 62 66 66 67 65 65 66 65 65 65 65 65 65 66 64 64 63 63 63 64 64 64 64 63 62 61
13 12 11 10 12 11 12 11 11 12 13 14 14 15 17 21 21 21 21 24 36 45 56 61 64 65 65 65 66 66 66 65 65 65 65 65 65 64 63 63 63 62 63 64 63 63 62 61 60
19 17 17 17 16 14 14 12 12 15 15 16 17 18 17 19 21 21 21 24 31 42 50 61 63 64 65 64 65 66 65 66 64 64 64 64 64 63 62 62 62 62 63 63 62 62 61 61 61
17 15 11 11 9 9 11 11 12 14 15 17 18 19 20 20 22 23 25 23 27 38 46 61 64 64 64 64 64 64 64 65 65 65 64 64 63 63 62 62 62 63 63 62 61 61 61 61 60
16 14 12 11 10 10 10 14 16 17 18 19 20 19 20 22 23 24 25 22 23 32 46 61 64 64 64 64 63 63 62 64 65 64 64 63 62 62 62 62 63 63 62 61 61 61 61 60 59
11 11 11 8 8 12 12 13 17 18 16 16 20 21 23 23 24 25 25 21 22 29 52 62 63 63 63 63 62 62 62 63 64 64 63 63 62 62 63 62 62 62 61 61 61 60 61 59 57
15 15 13 12 10 10 11 11 12 13 12 13 14 17 23 25 26 24 24 21 28 41 56 62 62 62 63 61 60 60 60 61 62 62 62 62 63 63 63 62 62 61 60 60 60 60 59 59 56
13 11 11 12 12 14 13 12 17 20 20 18 15 15 19 25 26 26 24 26 38 49 55 62 62 62 62 61 60 59 59 60 60 61 61 62 62 62 62 62 61 60 60 60 59 59 58 58 55
14 12 12 11 12 16 19 16 15 17 16 19 19 19 17 20 26 27 26 27 43 50 56 60 61 61 61 59 59 59 59 59 57 59 61 61 62 61 62 62 60 60 60 59 59 59 58 56 55
15 14 14 18 16 18 18 15 14 11 15 18 22 22 23 20 19 26 27 26 46 49 57 59 60 60 60 59 58 58 57 57 57 58 60 60 61 61 61 61 60 60 60 59 59 59 58 57 53
12 16 19 20 22 21 20 14 12 12 12 14 18 22 24 24 22 25 27 26 47 50 57 59 60 59 59 59 58 58 57 57 57 58 59 59 60 61 62 60 60 59 59 59 59 59 58 58 54
22 21 18 21 21 19 19 12 12 14 26 29 30 31 37 29 23 25 28 27 42 50 56 59 59 59 59 59 59 58 56 55 56 57 58 59 58 58 59 60 59 59 59 58 58 59 58 58 56
23 21 14 12 9 14 27 28 18 30 33 31 31 39 41 44 46 48 44 27 30 50 56 58 58 58 58 58 58 57 56 55 56 57 58 58 57 57 57 59 59 58 58 58 57 58 58 57 56
19 21 18 9 14 15 20 29 26 32 38 41 41 41 42 43 45 47 48 50 38 52 57 58 57 57 58 58 57 57 57 56 56 57 58 58 57 57 58 58 58 58 59 58 58 57 58 57 56
18 16 19 18 18 16 16 24 38 40 37 38 39 40 41 42 43 45 47 50 40 52 57 57 57 56 57 58 57 56 56 56 57 57 58 58 58 58 58 57 57 57 58 59 58 57 57 57 56
20 21 24 29 19 13 11 19 32 36 37 37 37 38 40 41 41 42 44 48 55 55 58 58 57 56 57 57 57 55 56 55 56 57 58 58 59 58 58 57 56 56 57 57 58 57 57 57 56
19 21 21 26 25 21 22 29 37 37 38 36 37 37 38 38 38 39 41 44 49 56 57 57 57 57 56 57 56 56 55 56 57 57 57 56 57 58 58 58 56 56 56 56 56 56 56 56 55
20 17 23 24 20 23 23 26 38 36 37 37 36 37 37 36 37 37 38 40 43 46 52 56 56 57 56 56 56 55 55 56 57 56 56 56 56 57 57 58 57 56 55 55 55 54 54 54 54

GFSSGP_sfc_30mbdewp_087.txt.gz
Dewpoint
51 49 47 40 28 19 15 14 15 12 10 14 20 20 19 19 35 40 62 65 67 68 70 70 71 71 71 71 71 71 71 72 72 72 72 71 71 71 71 71 72 72 72 71 70 69 70 70 70
45 43 41 33 20 14 13 15 14 13 12 21 21 16 15 16 43 54 60 65 67 68 70 70 70 71 71 72 71 71 71 72 72 72 72 72 71 72 71 71 71 72 72 71 69 69 69 70 69
42 40 33 26 20 14 13 14 13 14 13 16 15 14 15 21 47 53 59 63 65 66 68 70 70 70 71 71 72 71 71 72 72 72 72 72 71 71 71 71 71 71 71 70 69 69 70 69 69
35 36 32 23 19 17 15 13 13 12 14 14 13 10 25 40 46 55 59 62 62 63 68 69 69 70 70 71 71 71 72 71 71 71 71 72 71 71 70 70 70 71 70 70 69 70 70 68 68
29 29 26 22 20 20 19 17 15 13 12 15 14 13 18 44 54 55 56 61 63 65 67 68 69 70 70 70 70 70 71 71 71 71 71 71 70 70 70 69 69 70 70 68 69 70 69 68 68
24 28 25 23 22 21 19 17 15 13 12 9 14 13 15 27 53 54 55 63 67 66 67 68 69 69 70 70 70 70 71 71 71 71 71 71 70 69 68 68 67 66 65 66 67 68 68 68 67
30 27 25 23 21 20 19 19 16 14 11 8 10 16 17 45 50 55 58 64 68 69 67 68 68 69 69 69 69 69 70 71 71 70 69 70 70 69 67 67 66 66 66 67 66 67 68 67 66
32 32 29 27 22 21 21 20 19 16 9 13 13 9 11 45 50 55 60 61 67 69 68 67 67 68 68 69 69 69 69 68 68 68 68 69 68 67 67 66 65 65 62 63 66 66 67 67 66
33 31 30 29 26 24 23 21 20 17 11 10 11 10 37 45 48 50 55 61 64 67 68 67 67 67 67 67 68 69 69 68 68 68 68 67 67 67 67 64 64 63 62 63 65 66 65 64 65
22 27 29 28 27 25 24 20 17 17 17 17 14 15 36 39 43 48 50 54 63 64 68 68 68 68 68 68 67 67 68 68 67 67 66 66 66 66 66 64 64 64 64 65 64 66 65 64 64
20 18 20 25 27 25 22 17 18 17 17 20 20 19 19 35 35 38 49 50 62 64 67 67 67 68 68 66 67 67 67 67 66 65 65 67 66 65 65 65 65 64 65 64 65 65 64 64 63
20 20 18 18 19 20 17 18 19 17 17 19 18 18 18 21 33 34 36 40 47 63 66 67 66 68 67 67 67 67 67 66 66 65 65 66 65 64 62 62 63 63 64 64 64 63 64 63 62
14 14 15 15 16 15 17 15 14 16 16 14 14 14 17 18 22 32 36 38 38 57 65 67 66 67 67 66 67 66 67 66 66 65 65 66 64 63 62 61 63 63 64 64 63 63 64 63 62
12 15 16 18 18 18 16 15 15 15 14 13 13 12 14 16 19 21 30 31 33 37 63 67 66 66 66 65 65 65 66 66 65 65 65 65 65 63 62 62 62 63 64 64 63 63 63 63 62
22 20 18 17 16 15 15 15 14 15 15 14 15 16 16 16 16 20 21 23 23 32 52 66 65 66 66 65 65 65 65 65 65 64 65 65 65 64 64 63 62 63 64 64 63 62 62 61 61
22 21 17 16 14 13 12 10 12 13 12 12 13 14 15 17 19 18 21 22 22 23 48 65 65 65 65 65 65 65 65 65 64 64 64 64 64 64 63 63 62 63 63 63 62 61 60 60 60
21 17 16 16 17 14 12 11 15 13 17 17 18 19 20 19 20 21 22 24 23 24 48 63 64 64 64 64 64 64 64 64 64 64 64 64 63 63 62 62 62 63 62 62 61 60 60 60 60
18 15 14 14 15 15 12 11 12 13 13 12 13 13 14 18 23 22 23 26 25 23 53 63 63 64 63 64 63 62 61 64 63 63 63 63 63 63 62 61 62 62 61 60 60 60 60 60 60
16 13 13 15 16 13 12 12 13 12 13 13 13 14 14 15 19 26 27 26 25 24 60 63 63 64 63 62 61 60 59 62 63 63 63 62 62 62 62 62 62 61 61 60 60 60 59 59 59
16 14 13 12 13 13 13 12 15 19 19 17 18 18 17 15 16 25 27 28 26 37 61 63 63 63 62 61 60 60 59 60 61 62 62 62 62 62 62 62 61 61 60 60 60 59 59 59 59
17 17 15 13 15 15 15 14 18 20 20 19 16 18 21 16 17 19 26 28 32 50 61 62 62 62 61 61 60 60 59 60 59 60 59 60 62 62 62 61 61 61 60 60 60 59 58 57 58
17 18 17 14 15 18 22 20 21 21 19 16 29 26 18 19 17 22 26 28 46 60 62 62 62 62 61 60 59 59 58 58 58 58 60 60 61 62 62 62 61 60 60 60 59 59 58 58 55
17 17 16 18 18 20 20 20 19 21 18 15 41 42 30 25 28 27 26 25 46 58 61 61 62 61 60 59 58 58 57 57 57 58 59 60 61 61 61 61 61 60 60 60 60 59 58 58 56
19 23 23 23 20 17 19 23 24 25 24 36 42 43 43 44 45 46 47 49 46 57 60 60 61 60 59 59 58 58 57 57 56 57 58 59 59 60 61 60 60 60 60 60 60 59 58 58 57
20 22 20 15 15 15 20 21 26 39 41 41 41 42 42 43 43 44 46 47 49 51 59 60 60 59 59 58 58 58 57 56 56 57 58 58 57 57 57 60 59 59 59 59 59 59 58 58 57
21 20 21 16 15 18 19 18 30 39 41 39 41 41 41 41 42 43 44 45 47 51 58 59 59 59 59 58 58 58 57 56 57 58 58 57 57 56 57 58 59 59 59 59 59 59 58 58 57
21 19 22 21 21 19 17 17 37 39 40 40 38 38 39 39 39 41 42 43 47 55 58 59 59 58 59 58 59 58 56 56 57 58 58 57 57 57 57 58 58 58 58 58 58 58 57 57 57
20 21 20 26 20 19 17 26 31 35 35 38 38 37 38 37 38 39 40 42 45 49 56 58 58 58 58 59 57 57 56 56 58 59 58 58 58 57 57 57 57 57 58 58 57 56 57 57 57
20 21 22 24 25 21 19 23 36 37 37 38 38 37 36 36 36 37 37 39 42 44 48 51 58 58 58 58 57 56 56 57 58 58 59 59 58 57 57 57 56 56 57 57 58 57 56 57 56
23 25 25 21 21 24 25 27 38 38 39 37 36 36 35 35 35 35 35 36 38 40 42 44 50 57 57 57 56 56 55 56 57 57 57 58 58 59 58 57 56 56 56 56 56 56 56 56 55

GFSSGP_sfc_30mbdewp_090.txt.gz
Dewpoint
51 50 45 39 25 20 14 11 14 7 13 12 20 20 17 23 31 26 63 65 67 68 70 71 71 71 71 71 71 71 71 71 71 71 71 71 72 71 71 72 72 72 72 70 70 70 70 70 70
43 44 40 32 22 14 10 17 12 13 15 15 15 18 17 19 51 60 61 66 66 68 70 71 71 71 71 71 71 71 72 72 71 71 71 71 72 71 71 72 72 72 72 70 70 70 70 70 69
41 40 33 28 21 12 8 14 13 14 15 14 15 15 16 30 56 60 63 66 68 68 69 70 71 71 71 70 70 71 71 71 71 71 71 71 71 71 71 71 71 72 71 70 70 70 70 69 69
35 36 33 26 20 19 15 13 14 15 16 15 14 10 25 42 54 58 65 66 66 68 69 70 70 71 71 71 70 71 71 71 71 71 72 72 71 71 71 70 70 71 71 70 70 70 68 68 68
28 32 27 25 23 23 22 21 21 19 17 15 14 12 20 47 57 63 63 63 63 66 68 69 70 70 70 71 71 71 71 71 71 71 71 71 71 71 70 70 70 71 69 68 68 68 67 68 67
23 27 26 20 20 23 23 22 21 19 18 17 14 15 16 52 59 61 62 61 64 66 67 69 69 70 70 70 70 70 71 71 71 71 71 71 71 70 70 69 68 68 66 66 66 67 66 66 67
24 26 24 25 24 23 23 23 21 20 20 16 13 14 25 50 55 59 63 65 66 67 67 68 69 69 69 69 69 69 70 71 71 71 70 70 70 69 69 68 67 66 66 66 66 66 66 64 66
33 32 29 27 25 25 26 24 23 22 17 19 14 10 16 48 55 62 66 66 66 66 66 67 68 69 69 69 69 69 70 70 70 70 70 69 70 69 68 67 66 65 66 66 66 65 66 64 63
32 31 29 29 29 29 30 27 27 20 18 19 21 18 34 50 58 61 65 67 66 66 66 66 67 67 68 68 68 69 69 69 69 69 68 68 68 68 67 65 66 65 65 66 65 65 63 65 63
25 26 30 31 31 29 28 28 27 21 19 19 19 23 41 48 55 58 61 64 65 66 66 66 66 66 67 67 68 68 68 68 68 68 68 67 67 66 65 65 66 63 63 64 65 65 64 65 64
22 23 25 24 22 24 26 27 27 23 18 19 18 19 21 37 46 53 57 62 62 65 66 66 66 66 66 67 67 67 68 67 67 67 66 66 66 66 65 64 65 64 64 64 65 65 65 64 64
21 20 20 19 20 20 18 19 19 18 19 19 19 18 18 20 29 39 50 56 62 65 66 67 67 67 67 67 66 66 66 66 66 65 65 65 64 64 64 63 63 63 64 63 63 63 64 64 64
19 21 22 22 21 19 18 17 17 17 16 17 16 14 14 16 21 24 36 44 59 63 66 66 67 67 67 67 66 66 66 66 65 65 66 65 63 62 63 62 62 63 63 63 63 62 63 63 63
13 12 14 18 18 19 17 17 16 17 17 16 16 15 15 15 16 21 23 31 40 62 65 66 66 67 67 67 66 66 66 66 65 65 65 65 64 63 62 61 62 62 62 62 62 61 62 63 63
24 22 22 21 18 16 15 12 12 13 14 14 14 15 15 15 17 17 19 22 32 41 63 66 66 67 66 66 66 65 65 66 65 65 65 65 64 63 62 61 61 62 62 62 63 62 62 62 63
20 21 19 20 18 17 14 13 14 13 13 13 13 13 14 14 15 16 18 21 25 32 58 66 66 66 66 65 65 65 65 65 65 64 65 65 64 63 62 61 61 62 63 62 61 61 61 61 61
20 18 18 18 18 17 16 14 14 15 14 14 15 16 17 17 18 18 18 20 21 23 43 64 65 65 65 65 65 64 64 64 64 64 64 64 64 64 63 62 62 62 62 62 61 61 60 59 60
15 18 18 16 15 16 15 14 14 14 14 14 14 14 14 14 15 18 20 22 22 22 42 64 65 65 65 64 64 64 64 63 63 63 64 63 64 63 63 62 62 63 62 61 61 60 60 59 59
16 17 16 16 15 15 12 12 13 14 14 15 17 18 17 15 17 17 20 24 25 25 49 61 64 64 64 63 62 62 62 63 63 63 63 63 63 63 62 61 61 62 61 60 60 59 59 59 60
16 15 15 16 15 14 13 13 14 15 15 16 18 21 20 19 19 19 18 22 27 28 50 62 63 63 63 63 62 61 60 62 62 62 62 62 62 62 61 61 61 61 60 59 59 59 58 58 60
18 17 16 17 18 17 15 15 18 20 22 23 23 29 42 42 30 21 19 20 25 32 58 62 63 63 62 62 60 60 59 60 60 61 61 61 61 61 61 62 61 61 60 59 60 59 58 57 58
16 20 19 17 16 13 21 16 18 20 20 22 23 43 43 43 45 37 39 41 41 37 57 62 63 62 62 61 60 59 58 57 58 59 59 60 61 61 61 61 61 60 60 59 59 59 58 58 56
16 20 20 19 18 20 18 17 16 26 38 40 42 43 43 42 42 44 46 47 49 54 59 61 63 62 61 61 60 58 57 57 58 58 58 58 59 61 61 61 60 60 60 60 59 59 58 58 56
19 19 23 22 21 18 17 17 20 35 37 36 40 42 43 42 42 43 45 46 46 51 61 62 62 61 60 60 59 58 58 57 57 57 58 58 59 60 60 61 61 60 60 60 59 59 59 58 57
17 19 18 17 16 15 18 19 22 36 38 38 39 42 42 41 40 42 43 45 46 50 53 61 61 60 60 59 58 58 58 57 56 57 57 58 58 59 60 60 60 60 60 60 60 59 59 58 57
17 18 18 14 12 11 20 18 28 38 38 39 43 42 40 40 39 40 41 42 45 49 54 61 61 59 59 58 58 58 57 57 57 57 58 58 58 58 59 59 60 60 60 60 60 60 59 59 57
21 20 21 19 20 20 20 29 36 37 38 41 43 40 38 37 37 38 39 40 43 46 51 59 60 59 58 58 58 57 57 56 57 58 58 58 57 57 57 57 58 59 59 59 59 59 58 58 58
23 25 18 23 17 16 19 19 26 33 36 38 39 38 35 35 36 36 37 38 41 44 47 53 59 59 58 58 58 58 57 57 57 58 57 57 57 57 57 57 57 57 58 58 58 58 58 57 57
17 19 26 26 23 19 17 19 35 34 36 39 37 36 34 34 34 34 35 37 39 41 43 47 51 59 59 59 58 57 57 57 58 58 58 57 57 57 57 56 57 57 57 58 57 57 57 57 57
19 27 33 26 24 25 22 21 36 36 38 36 35 34 33 33 33 33 34 34 36 37 40 42 45 49 58 58 57 57 57 58 58 58 58 58 57 57 57 57 56 56 57 57 57 56 57 56 56